[[{"header":{"parameterUnit":"m.s-1","parameterCategory":1,"la1":31.0,"la2":29.5877,"lo1":-88.7671,"lo2":-86.6584,"dy":0.0162,"dx":0.0185,"nx":115,"ny":88,"refTime":"2024-02-27T06:00:00:Z","depth":0,"parameterNumber":2,"parameterNumberName":"U-component_of_WINDS"},"data":[0.0,0.0,0.0,0.0,0.0,0.0,0.0,0.0,0.0,0.0,0.0,0.0,0.0,0.0,0.0,0.0,0.0,0.0,0.0,0.0,0.0,0.0,0.0,0.0,0.0,0.0,0.0,0.0,0.0,0.0,0.0,0.0,0.0,0.0,0.0,0.0,0.0,0.0,0.0,0.0,0.0,0.0,0.0,0.0,0.0,0.0,0.0,0.0,0.0,0.0,0.0,0.0,0.0,0.0,0.0,0.0,0.0,0.0,0.0,0.0,0.0,0.0,0.0,0.0,0.0,0.0,0.0,0.0,0.0,0.0,0.0,0.0,0.0,0.0,0.0,0.0,0.0,0.0,0.0,0.0,0.0,0.0,0.0,0.0,0.0,0.0,0.0,0.0,0.0,0.0,0.0,0.0,0.0,0.0,0.0,0.0,0.0,0.0,0.0,0.0,0.0,0.0,0.0,0.0,0.0,0.0,0.0,0.0,0.0,0.0,0.0,0.0,0.0,0.0,0.0,0.0,0.0,0.0,0.0,0.0,0.0,0.0,0.0,0.0,0.0,0.0,0.0,0.0,0.0,0.0,0.0,0.0,0.0,0.0,0.0,0.0,0.0,0.0,0.0,0.0,0.0,0.0,0.0,0.0,0.0,0.0,0.0,0.0,0.0,0.0,0.0,0.0,0.0,0.0,0.0,0.0,0.0,0.0,0.0,0.0,0.0,0.0,0.0,0.0,0.0,0.0,0.0,0.0,0.0,0.0,0.0,0.0,0.0,0.0,0.0,0.0,0.0,0.0,0.0,0.0,0.0,0.0,0.0,0.0,0.0,0.0,0.0,0.0,0.0,0.0,0.0,0.0,0.0,0.0,0.0,0.0,0.0,0.0,0.0,0.0,0.0,0.0,0.0,0.0,0.0,0.0,0.0,0.0,0.0,0.0,0.0,0.0,0.0,0.0,0.0,0.0,0.0,0.0,0.0,0.0,0.0,0.0,0.0,0.0,0.0,0.0,0.0,0.0,0.0,0.0,0.0,0.0,0.0,0.0,0.0,0.0,0.0,0.0,0.0,0.0,0.0,0.0,0.0,0.0,0.0,0.0,0.0,0.0,0.0,0.0,0.0,0.0,0.0,0.0,0.0,0.0,0.0,0.0,0.0,0.0,0.0,0.0,0.0,0.0,0.0,0.0,0.0,0.0,0.0,0.0,0.0,0.0,0.0,0.0,0.0,0.0,0.0,0.0,0.0,0.0,0.0,0.0,0.0,0.0,0.0,0.0,0.0,0.0,0.0,0.0,0.0,0.0,0.0,0.0,0.0,0.0,0.0,0.0,0.0,0.0,0.0,0.0,0.0,0.0,0.0,0.0,0.0,0.0,0.0,0.0,0.0,0.0,0.0,0.0,0.0,0.0,0.0,0.0,0.0,0.0,0.0,0.0,0.0,0.0,0.0,0.0,0.0,0.0,0.0,0.0,0.0,0.0,0.0,0.0,0.0,0.0,0.0,0.0,0.0,0.0,0.0,0.0,0.0,0.0,0.0,0.0,0.0,0.0,0.0,0.0,0.0,0.0,0.0,0.0,0.0,0.0,0.0,0.0,0.0,0.0,0.0,0.0,0.0,0.0,0.0,0.0,0.0,0.0,0.0,0.0,0.0,0.0,0.0,0.0,0.0,0.0,0.0,0.0,0.0,0.0,0.0,0.0,0.0,0.0,0.0,0.0,0.0,0.0,0.0,0.0,0.0,0.0,0.0,0.0,0.0,0.0,0.0,0.0,0.0,0.0,0.0,0.0,0.0,0.0,0.0,0.0,0.0,0.0,0.0,0.0,0.0,0.0,0.0,0.0,0.0,0.0,0.0,0.0,0.0,0.0,0.0,0.0,0.0,0.0,0.0,0.0,0.0,0.0,0.0,0.0,0.0,0.0,0.0,0.0,0.0,0.0,0.0,0.0,0.0,0.0,0.0,0.0,0.0,0.0,0.0,0.0,0.0,0.0,0.0,0.0,0.0,0.0,0.0,0.0,0.0,0.0,0.0,0.0,0.0,0.0,0.0,0.0,0.0,0.0,0.0,0.0,0.0,0.0,0.0,0.0,0.0,0.0,0.0,0.0,0.0,0.0,0.0,0.0,0.0,0.0,0.0,0.0,0.0,0.0,0.0,0.0,0.0,0.0,0.0,0.0,0.0,0.0,0.0,0.0,0.0,0.0,0.0,0.0,0.0,0.0,0.0,0.0,0.0,0.0,0.0,0.0,0.0,0.0,0.0,0.0,0.0,0.0,0.0,0.0,0.0,0.0,0.0,0.0,0.0,0.0,0.0,0.0,0.0,0.0,0.0,0.0,0.0,0.0,0.0,0.0,0.0,0.0,0.0,0.0,0.0,0.0,0.0,0.0,0.0,0.0,0.0,0.0,0.0,0.0,0.0,0.0,0.0,0.0,0.0,0.0,0.0,0.0,0.0,0.0,0.0,0.0,0.0,0.0,0.0,0.0,0.0,0.0,0.0,0.0,0.0,0.0,0.0,0.0,0.0,0.0,0.0,0.0,0.0,0.0,0.0,0.0,0.0,0.0,0.0,0.0,0.0,0.0,0.0,0.0,0.0,0.0,0.0,0.0,0.0,0.0,0.0,0.0,0.0,0.0,0.0,0.0,0.0,0.0,0.0,0.0,0.0,0.0,0.0,0.0,0.0,0.0,0.0,0.0,0.0,0.0,0.0,0.0,0.0,0.0,0.0,0.0,0.0,0.0,0.0,0.0,0.0,0.0,0.0,0.0,0.0,0.0,0.0,0.0,0.0,0.0,0.0,0.0,0.0,0.0,0.0,0.0,0.0,0.0,0.0,0.0,0.0,0.0,0.0,0.0,0.0,0.0,0.0,0.0,0.0,0.0,0.0,0.0,0.0,0.0,0.0,0.0,0.0,0.0,0.0,0.0,0.0,0.0,0.0,0.0,0.0,0.0,0.0,0.0,0.0,0.0,0.0,0.0,0.0,0.0,0.0,0.0,0.0,0.0,0.0,0.0,0.0,0.0,0.0,0.0,0.0,0.0,0.0,0.0,0.0,0.0,0.0,0.0,0.0,0.0,0.0,0.0,0.0,0.0,0.0,0.0,0.0,0.0,0.0,0.0,0.0,0.0,0.0,0.0,0.0,0.0,0.0,0.0,0.0,0.0,0.0,0.0,0.0,0.0,0.0,0.0,0.0,0.0,0.0,0.0,0.0,0.0,0.0,0.0,0.0,0.0,0.0,0.0,0.0,0.0,0.0,0.0,0.0,0.0,0.0,0.0,0.0,0.0,0.0,0.0,0.0,0.0,0.0,0.0,0.0,0.0,0.0,0.0,0.0,0.0,0.0,0.0,0.0,0.0,0.0,0.0,0.0,0.0,0.0,0.0,0.0,0.0,0.0,0.0,0.0,0.0,0.0,0.0,0.0,0.0,0.0,0.0,0.0,0.0,0.0,0.0,0.0,0.0,0.0,0.0,0.0,0.0,0.0,0.0,0.0,0.0,0.0,0.0,0.0,0.0,0.0,0.0,0.0,0.0,0.0,0.0,0.0,0.0,0.0,0.0,0.0,0.0,0.0,0.0,0.0,0.0,0.0,0.0,0.0,0.0,0.0,0.0,0.0,0.0,0.0,0.0,0.0,0.0,0.0,0.0,0.0,0.0,0.0,0.0,0.0,0.0,0.0,0.0,0.0,0.0,0.0,0.0,0.0,0.0,0.0,0.0,0.0,0.0,0.0,0.0,0.0,0.0,0.0,0.0,0.0,0.0,0.0,0.0,0.0,0.0,0.0,0.0,0.0,0.0,0.0,0.0,0.0,0.0,0.0,0.0,0.0,0.0,0.0,0.0,0.0,0.0,0.0,0.0,0.0,0.0,0.0,0.0,0.0,0.0,0.0,0.0,0.0,0.0,0.0,0.0,0.0,0.0,0.0,0.0,0.0,0.0,0.0,0.0,0.0,0.0,0.0,0.0,0.0,0.0,0.0,0.0,0.0,0.0,0.0,0.0,0.0,0.0,0.0,0.0,0.0,0.0,0.0,0.0,0.0,0.0,0.0,0.0,0.0,0.0,0.0,0.0,0.0,0.0,0.0,0.0,0.0,0.0,0.0,0.0,0.0,0.0,0.0,0.0,0.0,0.0,0.0,0.0,0.0,0.0,0.0,0.0,0.0,0.0,0.0,0.0,0.0,0.0,0.0,0.0,0.0,0.0,0.0,0.0,0.0,0.0,0.0,0.0,0.0,0.0,0.0,0.0,0.0,0.0,0.0,0.0,0.0,0.0,-2.9602,0.0,0.0,0.0,0.0,0.0,0.0,0.0,0.0,0.0,0.0,0.0,0.0,0.0,0.0,0.0,0.0,0.0,0.0,0.0,0.0,0.0,0.0,0.0,0.0,0.0,0.0,0.0,0.0,0.0,0.0,0.0,0.0,0.0,0.0,0.0,0.0,0.0,0.0,0.0,0.0,0.0,0.0,0.0,0.0,0.0,0.0,0.0,0.0,0.0,0.0,0.0,0.0,0.0,0.0,0.0,0.0,0.0,0.0,0.0,0.0,0.0,0.0,0.0,0.0,0.0,0.0,0.0,0.0,0.0,0.0,0.0,0.0,0.0,0.0,0.0,0.0,0.0,0.0,0.0,0.0,0.0,0.0,0.0,0.0,0.0,0.0,0.0,0.0,0.0,0.0,0.0,0.0,0.0,0.0,0.0,0.0,0.0,0.0,0.0,0.0,0.0,0.0,0.0,0.0,0.0,0.0,0.0,0.0,0.0,0.0,-2.9602,-2.9602,-2.9602,-2.9602,-2.9602,0.0,0.0,0.0,0.0,0.0,0.0,0.0,0.0,0.0,0.0,0.0,0.0,0.0,0.0,0.0,0.0,0.0,0.0,0.0,0.0,0.0,0.0,0.0,0.0,0.0,0.0,0.0,0.0,0.0,0.0,0.0,0.0,0.0,0.0,0.0,0.0,0.0,0.0,0.0,0.0,0.0,0.0,0.0,0.0,0.0,0.0,0.0,0.0,0.0,0.0,0.0,0.0,0.0,0.0,0.0,0.0,0.0,0.0,0.0,0.0,0.0,0.0,0.0,0.0,0.0,0.0,0.0,0.0,0.0,0.0,0.0,0.0,0.0,0.0,0.0,0.0,0.0,0.0,0.0,0.0,0.0,0.0,0.0,0.0,0.0,0.0,0.0,0.0,0.0,0.0,0.0,0.0,0.0,0.0,0.0,0.0,0.0,0.0,0.0,0.0,0.0,0.0,0.0,0.0,0.0,0.0,0.0,0.0,0.0,0.0,0.0,0.0,-2.9602,-2.9602,-2.9602,0.0,0.0,0.0,0.0,0.0,0.0,0.0,0.0,0.0,0.0,0.0,0.0,0.0,0.0,0.0,0.0,0.0,0.0,0.0,0.0,0.0,0.0,0.0,0.0,0.0,0.0,0.0,0.0,0.0,0.0,0.0,0.0,0.0,0.0,0.0,0.0,0.0,0.0,0.0,0.0,0.0,0.0,0.0,0.0,0.0,0.0,0.0,0.0,0.0,0.0,0.0,0.0,0.0,0.0,0.0,0.0,0.0,0.0,0.0,0.0,0.0,0.0,0.0,0.0,0.0,0.0,0.0,0.0,0.0,0.0,0.0,0.0,0.0,0.0,0.0,0.0,0.0,0.0,0.0,0.0,0.0,0.0,0.0,0.0,0.0,0.0,0.0,0.0,0.0,0.0,0.0,0.0,0.0,0.0,0.0,0.0,0.0,0.0,0.0,0.0,0.0,0.0,0.0,0.0,0.0,0.0,0.0,0.0,0.0,0.0,-2.9602,-2.9602,-2.9602,0.0,-2.9602,0.0,0.0,0.0,0.0,0.0,0.0,0.0,0.0,0.0,0.0,0.0,0.0,0.0,0.0,0.0,0.0,0.0,0.0,0.0,0.0,0.0,0.0,0.0,0.0,0.0,0.0,0.0,0.0,0.0,0.0,0.0,0.0,0.0,0.0,0.0,0.0,0.0,0.0,0.0,0.0,0.0,0.0,0.0,0.0,0.0,0.0,0.0,0.0,0.0,0.0,0.0,0.0,0.0,0.0,0.0,0.0,0.0,0.0,0.0,0.0,0.0,0.0,0.0,0.0,0.0,0.0,0.0,0.0,0.0,0.0,0.0,0.0,0.0,0.0,0.0,0.0,0.0,0.0,0.0,0.0,0.0,0.0,0.0,0.0,0.0,0.0,0.0,0.0,0.0,0.0,0.0,0.0,0.0,0.0,0.0,0.0,0.0,0.0,0.0,0.0,0.0,0.0,0.0,0.0,0.0,0.0,0.0,0.0,0.0,0.0,-2.9602,-2.9602,-2.9602,-2.9602,0.0,0.0,0.0,0.0,0.0,0.0,0.0,0.0,0.0,0.0,0.0,0.0,0.0,0.0,0.0,0.0,0.0,0.0,0.0,0.0,0.0,0.0,0.0,0.0,0.0,0.0,0.0,0.0,0.0,0.0,0.0,0.0,0.0,0.0,0.0,0.0,0.0,0.0,0.0,0.0,0.0,0.0,0.0,0.0,0.0,0.0,0.0,0.0,0.0,0.0,0.0,0.0,0.0,0.0,0.0,0.0,0.0,0.0,0.0,0.0,0.0,0.0,0.0,0.0,0.0,0.0,0.0,0.0,0.0,0.0,0.0,0.0,0.0,0.0,0.0,0.0,0.0,0.0,0.0,0.0,0.0,0.0,0.0,0.0,0.0,0.0,0.0,0.0,0.0,0.0,0.0,0.0,0.0,0.0,0.0,0.0,0.0,0.0,0.0,0.0,0.0,0.0,0.0,0.0,0.0,0.0,0.0,0.0,0.0,0.0,-2.9602,-2.9602,-2.9602,-2.9602,-2.9602,-2.9602,0.0,0.0,0.0,0.0,0.0,0.0,0.0,0.0,0.0,0.0,0.0,0.0,0.0,0.0,0.0,0.0,0.0,0.0,0.0,0.0,0.0,0.0,0.0,0.0,0.0,0.0,0.0,0.0,0.0,0.0,0.0,0.0,0.0,0.0,0.0,0.0,0.0,0.0,0.0,0.0,0.0,0.0,0.0,0.0,0.0,0.0,0.0,0.0,0.0,0.0,0.0,0.0,0.0,0.0,0.0,0.0,0.0,0.0,0.0,0.0,0.0,0.0,0.0,0.0,0.0,0.0,0.0,0.0,0.0,0.0,0.0,0.0,0.0,0.0,0.0,0.0,0.0,0.0,0.0,0.0,0.0,0.0,0.0,0.0,0.0,0.0,0.0,0.0,0.0,0.0,0.0,0.0,0.0,0.0,0.0,0.0,0.0,0.0,0.0,0.0,0.0,0.0,0.0,0.0,0.0,0.0,0.0,0.0,-2.9602,-2.9602,-2.9602,-2.9602,-2.9602,-2.9602,0.0,0.0,0.0,0.0,0.0,0.0,0.0,0.0,0.0,0.0,0.0,0.0,0.0,0.0,0.0,0.0,0.0,0.0,0.0,0.0,0.0,0.0,0.0,0.0,0.0,0.0,0.0,0.0,0.0,0.0,0.0,0.0,0.0,0.0,0.0,0.0,0.0,0.0,0.0,0.0,0.0,0.0,0.0,0.0,0.0,0.0,0.0,0.0,0.0,0.0,0.0,0.0,0.0,0.0,0.0,0.0,0.0,0.0,0.0,0.0,0.0,0.0,0.0,0.0,0.0,0.0,0.0,0.0,0.0,0.0,0.0,0.0,0.0,0.0,0.0,0.0,0.0,0.0,0.0,0.0,0.0,0.0,0.0,0.0,0.0,0.0,0.0,0.0,0.0,0.0,0.0,0.0,0.0,0.0,0.0,0.0,0.0,0.0,0.0,0.0,0.0,0.0,0.0,0.0,0.0,0.0,0.0,0.0,0.0,-2.9602,-2.9602,-2.9602,-2.9602,-2.9602,-2.9602,0.0,0.0,0.0,0.0,0.0,0.0,0.0,0.0,0.0,0.0,0.0,0.0,0.0,0.0,0.0,0.0,0.0,0.0,0.0,0.0,0.0,0.0,0.0,0.0,0.0,0.0,0.0,0.0,0.0,0.0,0.0,0.0,0.0,0.0,0.0,0.0,0.0,0.0,0.0,0.0,0.0,0.0,0.0,0.0,0.0,0.0,0.0,0.0,0.0,0.0,0.0,0.0,0.0,0.0,0.0,0.0,0.0,0.0,0.0,0.0,0.0,0.0,0.0,0.0,0.0,0.0,0.0,0.0,0.0,0.0,0.0,0.0,0.0,0.0,0.0,0.0,0.0,0.0,0.0,0.0,0.0,0.0,0.0,0.0,0.0,0.0,0.0,0.0,0.0,0.0,0.0,0.0,0.0,0.0,0.0,0.0,0.0,0.0,0.0,0.0,0.0,0.0,0.0,0.0,0.0,0.0,0.0,0.0,0.0,-2.9602,0.0,-2.9602,-2.9602,-2.9602,-2.9602,0.0,0.0,0.0,0.0,0.0,0.0,0.0,0.0,0.0,0.0,0.0,0.0,0.0,0.0,0.0,0.0,0.0,0.0,0.0,0.0,0.0,0.0,0.0,0.0,0.0,0.0,0.0,0.0,0.0,0.0,0.0,0.0,0.0,0.0,0.0,0.0,0.0,0.0,0.0,0.0,0.0,0.0,0.0,0.0,0.0,0.0,0.0,0.0,0.0,0.0,0.0,0.0,0.0,0.0,0.0,0.0,0.0,0.0,0.0,0.0,0.0,0.0,0.0,0.0,0.0,0.0,0.0,0.0,0.0,0.0,0.0,0.0,0.0,0.0,0.0,0.0,0.0,0.0,0.0,0.0,0.0,0.0,0.0,0.0,0.0,0.0,0.0,0.0,0.0,0.0,0.0,0.0,0.0,0.0,0.0,0.0,0.0,0.0,0.0,0.0,0.0,0.0,0.0,0.0,0.0,0.0,0.0,0.0,-2.9602,-2.9602,-2.9602,-2.9602,-2.9602,-2.9602,-2.9602,0.0,0.0,0.0,0.0,0.0,0.0,0.0,0.0,0.0,0.0,0.0,0.0,0.0,0.0,0.0,0.0,0.0,0.0,0.0,0.0,0.0,0.0,0.0,0.0,0.0,0.0,0.0,0.0,0.0,0.0,0.0,0.0,0.0,0.0,0.0,0.0,0.0,0.0,0.0,0.0,0.0,0.0,0.0,0.0,0.0,0.0,0.0,0.0,0.0,0.0,0.0,0.0,0.0,0.0,0.0,0.0,0.0,0.0,0.0,0.0,0.0,0.0,0.0,0.0,0.0,0.0,0.0,0.0,0.0,0.0,0.0,0.0,0.0,0.0,0.0,0.0,0.0,0.0,0.0,0.0,0.0,0.0,0.0,0.0,0.0,0.0,0.0,0.0,0.0,0.0,0.0,0.0,0.0,0.0,0.0,0.0,0.0,0.0,0.0,0.0,0.0,0.0,0.0,0.0,0.0,0.0,0.0,0.0,0.0,-2.9602,-2.9602,-2.9602,-2.9602,-2.9602,-2.9602,0.0,0.0,0.0,0.0,0.0,0.0,0.0,0.0,0.0,0.0,0.0,0.0,0.0,0.0,0.0,0.0,0.0,0.0,0.0,0.0,0.0,0.0,0.0,0.0,0.0,0.0,0.0,0.0,0.0,0.0,0.0,0.0,0.0,0.0,0.0,0.0,0.0,0.0,0.0,0.0,0.0,0.0,0.0,0.0,0.0,0.0,0.0,0.0,0.0,0.0,0.0,0.0,0.0,0.0,0.0,0.0,0.0,0.0,0.0,0.0,0.0,0.0,0.0,0.0,0.0,0.0,0.0,0.0,0.0,0.0,0.0,0.0,0.0,0.0,0.0,0.0,0.0,0.0,0.0,0.0,0.0,0.0,0.0,0.0,0.0,0.0,0.0,0.0,0.0,0.0,0.0,0.0,0.0,0.0,0.0,0.0,0.0,0.0,0.0,0.0,0.0,0.0,0.0,0.0,0.0,0.0,0.0,0.0,0.0,-2.9954,-2.9954,-2.994,-2.994,-2.994,-2.9841,-2.9617,0.0,0.0,0.0,0.0,0.0,0.0,0.0,0.0,0.0,0.0,0.0,0.0,0.0,0.0,0.0,0.0,0.0,0.0,0.0,0.0,0.0,0.0,0.0,0.0,0.0,0.0,0.0,0.0,0.0,0.0,0.0,0.0,0.0,0.0,0.0,0.0,0.0,0.0,0.0,0.0,0.0,0.0,0.0,0.0,0.0,0.0,0.0,0.0,0.0,0.0,0.0,0.0,0.0,0.0,0.0,0.0,0.0,0.0,0.0,0.0,0.0,0.0,0.0,0.0,0.0,0.0,0.0,0.0,0.0,0.0,0.0,0.0,0.0,0.0,0.0,0.0,0.0,0.0,0.0,0.0,0.0,0.0,0.0,0.0,0.0,0.0,0.0,0.0,0.0,0.0,0.0,0.0,0.0,0.0,0.0,0.0,0.0,0.0,0.0,0.0,0.0,0.0,0.0,0.0,0.0,0.0,0.0,0.0,-3.0596,-3.0596,-3.0582,-3.054,-3.0512,-3.0217,0.0,0.0,0.0,0.0,0.0,0.0,0.0,0.0,0.0,0.0,0.0,0.0,0.0,0.0,0.0,0.0,0.0,0.0,0.0,0.0,0.0,0.0,0.0,0.0,0.0,0.0,0.0,0.0,0.0,0.0,0.0,0.0,0.0,0.0,0.0,0.0,0.0,0.0,0.0,0.0,0.0,0.0,0.0,0.0,0.0,0.0,0.0,0.0,0.0,0.0,0.0,0.0,0.0,0.0,0.0,0.0,0.0,0.0,0.0,0.0,0.0,0.0,0.0,0.0,0.0,0.0,0.0,0.0,0.0,0.0,0.0,0.0,0.0,0.0,0.0,0.0,0.0,0.0,0.0,0.0,0.0,0.0,0.0,0.0,0.0,0.0,0.0,0.0,0.0,0.0,0.0,0.0,0.0,0.0,0.0,0.0,0.0,0.0,0.0,0.0,0.0,0.0,0.0,0.0,0.0,0.0,0.0,0.0,0.0,-3.1878,-3.1873,-3.1696,-3.1246,-3.0769,-3.0413,0.0,0.0,0.0,0.0,0.0,0.0,0.0,0.0,0.0,0.0,0.0,0.0,0.0,0.0,0.0,0.0,0.0,0.0,0.0,0.0,0.0,0.0,0.0,0.0,0.0,0.0,0.0,0.0,0.0,0.0,0.0,0.0,0.0,0.0,0.0,0.0,0.0,0.0,0.0,0.0,0.0,0.0,0.0,0.0,0.0,0.0,0.0,0.0,0.0,0.0,0.0,0.0,0.0,0.0,0.0,0.0,0.0,0.0,0.0,0.0,0.0,0.0,0.0,0.0,0.0,0.0,0.0,0.0,0.0,0.0,0.0,0.0,0.0,0.0,0.0,0.0,0.0,0.0,0.0,0.0,0.0,0.0,0.0,0.0,0.0,0.0,0.0,0.0,0.0,0.0,0.0,0.0,0.0,0.0,0.0,0.0,0.0,0.0,0.0,0.0,0.0,0.0,0.0,0.0,0.0,0.0,0.0,0.0,-3.1188,-3.2248,-3.2534,-3.2526,-3.2272,-3.1401,-3.0797,0.0,0.0,0.0,0.0,0.0,0.0,0.0,0.0,0.0,0.0,0.0,0.0,0.0,0.0,0.0,0.0,0.0,0.0,0.0,0.0,0.0,0.0,0.0,0.0,0.0,0.0,0.0,0.0,0.0,0.0,0.0,0.0,0.0,0.0,0.0,0.0,0.0,0.0,0.0,0.0,0.0,0.0,0.0,0.0,0.0,0.0,0.0,0.0,0.0,0.0,0.0,0.0,0.0,0.0,0.0,0.0,0.0,0.0,0.0,0.0,0.0,0.0,0.0,0.0,0.0,0.0,0.0,0.0,0.0,0.0,0.0,0.0,0.0,0.0,0.0,0.0,0.0,0.0,0.0,0.0,0.0,0.0,0.0,0.0,0.0,0.0,0.0,0.0,0.0,0.0,0.0,0.0,0.0,0.0,0.0,0.0,0.0,0.0,0.0,0.0,0.0,0.0,0.0,0.0,0.0,0.0,0.0,0.0,-3.1426,-3.2201,-3.2841,-3.319,-3.3276,-3.2182,-3.1288,0.0,0.0,0.0,0.0,0.0,0.0,0.0,0.0,0.0,0.0,0.0,0.0,0.0,0.0,0.0,0.0,0.0,0.0,0.0,0.0,0.0,0.0,0.0,0.0,0.0,0.0,0.0,0.0,0.0,0.0,0.0,0.0,0.0,0.0,0.0,0.0,0.0,0.0,0.0,0.0,0.0,0.0,0.0,0.0,0.0,0.0,0.0,0.0,0.0,0.0,0.0,0.0,0.0,0.0,0.0,0.0,0.0,0.0,0.0,0.0,0.0,0.0,0.0,0.0,0.0,0.0,0.0,0.0,0.0,0.0,0.0,0.0,0.0,0.0,0.0,0.0,0.0,0.0,0.0,0.0,0.0,0.0,0.0,0.0,0.0,0.0,0.0,0.0,0.0,0.0,0.0,0.0,0.0,0.0,0.0,0.0,0.0,0.0,0.0,0.0,0.0,0.0,0.0,0.0,0.0,0.0,0.0,0.0,-3.2393,-3.3047,-3.3799,-3.3919,-3.3312,-3.2591,-3.1935,0.0,0.0,0.0,0.0,0.0,0.0,0.0,0.0,0.0,0.0,0.0,0.0,0.0,0.0,0.0,0.0,0.0,0.0,0.0,0.0,0.0,0.0,0.0,0.0,0.0,0.0,0.0,0.0,0.0,0.0,0.0,0.0,0.0,0.0,0.0,0.0,0.0,0.0,0.0,0.0,0.0,0.0,0.0,0.0,0.0,0.0,0.0,0.0,-3.1071,0.0,0.0,0.0,0.0,0.0,0.0,0.0,0.0,0.0,0.0,0.0,0.0,0.0,0.0,0.0,0.0,0.0,0.0,0.0,0.0,0.0,0.0,0.0,0.0,0.0,0.0,0.0,0.0,0.0,0.0,0.0,0.0,0.0,0.0,0.0,0.0,0.0,0.0,0.0,0.0,0.0,0.0,0.0,0.0,0.0,0.0,0.0,0.0,0.0,0.0,0.0,0.0,0.0,0.0,0.0,0.0,0.0,0.0,0.0,-3.2304,-3.3214,-3.3808,-3.3859,-3.3417,-3.2855,-3.2226,0.0,0.0,0.0,0.0,0.0,0.0,0.0,0.0,0.0,0.0,0.0,0.0,0.0,0.0,0.0,0.0,0.0,0.0,0.0,0.0,0.0,0.0,0.0,0.0,0.0,0.0,0.0,0.0,0.0,0.0,0.0,0.0,0.0,0.0,0.0,0.0,0.0,0.0,0.0,0.0,0.0,0.0,0.0,0.0,0.0,0.0,0.0,0.0,0.0,0.0,0.0,0.0,0.0,0.0,0.0,0.0,0.0,0.0,0.0,0.0,0.0,0.0,0.0,0.0,0.0,0.0,0.0,0.0,0.0,0.0,0.0,0.0,0.0,0.0,0.0,0.0,0.0,0.0,0.0,0.0,0.0,0.0,0.0,0.0,0.0,0.0,0.0,0.0,0.0,0.0,0.0,0.0,0.0,0.0,0.0,0.0,0.0,0.0,0.0,0.0,0.0,0.0,0.0,0.0,0.0,0.0,0.0,-3.113,-3.1936,-3.3106,-3.3501,-3.3619,-3.346,-3.2925,-3.2273,-3.1544,0.0,0.0,0.0,0.0,0.0,0.0,0.0,0.0,0.0,0.0,0.0,0.0,0.0,0.0,0.0,0.0,0.0,0.0,0.0,0.0,0.0,0.0,0.0,0.0,0.0,0.0,0.0,0.0,0.0,0.0,0.0,0.0,0.0,0.0,0.0,0.0,0.0,0.0,-3.2261,-3.2625,0.0,0.0,0.0,0.0,0.0,0.0,0.0,0.0,-3.191,0.0,0.0,0.0,0.0,0.0,0.0,0.0,0.0,0.0,0.0,0.0,0.0,0.0,0.0,0.0,0.0,0.0,0.0,0.0,0.0,0.0,0.0,0.0,0.0,0.0,0.0,0.0,0.0,0.0,0.0,0.0,0.0,0.0,0.0,0.0,0.0,0.0,0.0,0.0,0.0,0.0,0.0,0.0,0.0,0.0,0.0,0.0,0.0,0.0,0.0,0.0,0.0,0.0,0.0,0.0,0.0,-2.9884,-3.1265,-3.2273,-3.2931,-3.3669,-3.3777,-3.3255,-3.267,-3.2085,-3.1509,0.0,0.0,0.0,0.0,0.0,0.0,0.0,0.0,0.0,0.0,0.0,0.0,0.0,0.0,0.0,0.0,0.0,0.0,0.0,0.0,0.0,0.0,0.0,0.0,0.0,0.0,0.0,0.0,0.0,0.0,0.0,0.0,0.0,0.0,0.0,0.0,0.0,0.0,0.0,-3.1289,-3.111,0.0,0.0,0.0,0.0,0.0,0.0,0.0,0.0,-3.1366,0.0,0.0,0.0,0.0,0.0,0.0,0.0,0.0,0.0,0.0,0.0,0.0,0.0,0.0,0.0,0.0,0.0,0.0,0.0,0.0,0.0,0.0,0.0,0.0,0.0,0.0,0.0,0.0,0.0,0.0,0.0,0.0,0.0,0.0,0.0,0.0,0.0,0.0,0.0,0.0,0.0,0.0,0.0,0.0,0.0,0.0,0.0,0.0,0.0,0.0,0.0,0.0,0.0,0.0,0.0,-2.993,-3.0785,-3.1705,-3.2604,-3.3119,-3.3314,-3.3131,-3.2291,-3.1786,0.0,0.0,0.0,0.0,0.0,0.0,0.0,0.0,0.0,0.0,0.0,0.0,0.0,0.0,0.0,0.0,0.0,0.0,0.0,0.0,0.0,0.0,0.0,0.0,0.0,0.0,0.0,0.0,0.0,0.0,0.0,0.0,0.0,0.0,0.0,0.0,0.0,0.0,0.0,0.0,-3.1528,-3.1361,-3.0954,0.0,0.0,0.0,0.0,0.0,0.0,-3.1468,-3.136,0.0,0.0,0.0,0.0,0.0,0.0,0.0,0.0,0.0,0.0,0.0,0.0,0.0,0.0,0.0,0.0,0.0,0.0,0.0,0.0,0.0,0.0,0.0,0.0,0.0,0.0,0.0,0.0,0.0,0.0,0.0,0.0,0.0,0.0,0.0,0.0,0.0,0.0,0.0,0.0,0.0,0.0,0.0,0.0,0.0,0.0,0.0,0.0,0.0,0.0,0.0,0.0,0.0,0.0,0.0,-2.9756,-3.0097,-3.0877,-3.2115,-3.2307,-3.2581,-3.2828,-3.1726,-3.1235,0.0,0.0,0.0,0.0,0.0,0.0,0.0,0.0,0.0,0.0,0.0,0.0,0.0,0.0,0.0,0.0,0.0,0.0,0.0,0.0,0.0,0.0,0.0,0.0,0.0,0.0,0.0,0.0,0.0,0.0,0.0,0.0,0.0,0.0,0.0,0.0,0.0,0.0,0.0,0.0,0.0,-3.1642,-3.0727,-3.1027,0.0,0.0,0.0,0.0,-3.128,-3.1345,0.0,0.0,0.0,0.0,0.0,0.0,0.0,0.0,0.0,0.0,0.0,0.0,0.0,0.0,0.0,0.0,0.0,0.0,0.0,0.0,0.0,0.0,0.0,0.0,0.0,0.0,0.0,0.0,0.0,0.0,0.0,0.0,0.0,0.0,0.0,0.0,0.0,0.0,0.0,0.0,0.0,0.0,0.0,0.0,0.0,0.0,0.0,0.0,0.0,0.0,0.0,0.0,0.0,0.0,0.0,0.0,-2.8763,-2.9499,-3.0365,-3.138,-3.1484,-3.1649,-3.2108,-3.0858,-3.0396,0.0,0.0,0.0,0.0,0.0,0.0,0.0,0.0,0.0,0.0,0.0,0.0,0.0,0.0,0.0,0.0,0.0,0.0,0.0,0.0,0.0,0.0,0.0,0.0,0.0,0.0,0.0,0.0,0.0,0.0,0.0,0.0,0.0,0.0,0.0,0.0,0.0,0.0,0.0,0.0,0.0,-3.0522,-3.0516,-3.0879,-3.1047,0.0,0.0,-3.1059,-3.0676,-3.082,0.0,0.0,0.0,0.0,0.0,0.0,0.0,0.0,0.0,0.0,0.0,0.0,0.0,0.0,0.0,0.0,0.0,0.0,0.0,0.0,0.0,0.0,0.0,0.0,0.0,0.0,0.0,0.0,0.0,0.0,0.0,0.0,0.0,0.0,0.0,0.0,0.0,0.0,0.0,0.0,0.0,0.0,0.0,0.0,0.0,0.0,0.0,0.0,0.0,0.0,0.0,0.0,0.0,0.0,0.0,-2.7656,-2.8653,-2.9273,-3.0033,-3.0857,-3.0892,-3.1116,-3.1605,-3.0443,-3.0001,0.0,0.0,0.0,0.0,0.0,0.0,0.0,0.0,0.0,0.0,0.0,0.0,0.0,0.0,0.0,0.0,0.0,0.0,0.0,0.0,0.0,0.0,0.0,0.0,0.0,0.0,0.0,0.0,0.0,0.0,0.0,0.0,0.0,0.0,0.0,0.0,0.0,0.0,0.0,0.0,0.0,0.0,-3.0186,-3.0813,0.0,0.0,0.0,-3.1306,-3.11,0.0,0.0,0.0,0.0,0.0,0.0,0.0,0.0,0.0,0.0,0.0,0.0,0.0,0.0,0.0,0.0,0.0,0.0,0.0,0.0,0.0,0.0,0.0,0.0,0.0,0.0,0.0,0.0,0.0,0.0,0.0,0.0,0.0,0.0,0.0,0.0,0.0,0.0,0.0,0.0,0.0,0.0,0.0,0.0,0.0,0.0,0.0,0.0,0.0,0.0,0.0,0.0,0.0,0.0,0.0,0.0,0.0,-2.8505,-2.9085,-2.9722,-3.0431,-3.0487,-3.0668,-3.1104,-3.0123,0.0,0.0,0.0,0.0,0.0,0.0,0.0,0.0,0.0,0.0,0.0,0.0,0.0,0.0,0.0,0.0,0.0,0.0,0.0,0.0,0.0,0.0,0.0,0.0,0.0,0.0,0.0,-2.554,0.0,0.0,0.0,0.0,0.0,0.0,0.0,0.0,0.0,0.0,0.0,0.0,0.0,0.0,-2.9894,-2.9964,-3.0783,-3.1277,0.0,0.0,-3.1467,-3.1424,-3.1357,-3.1085,0.0,0.0,0.0,0.0,0.0,0.0,0.0,0.0,0.0,0.0,0.0,0.0,0.0,0.0,0.0,0.0,0.0,0.0,0.0,0.0,0.0,0.0,0.0,0.0,0.0,0.0,0.0,0.0,0.0,0.0,0.0,0.0,0.0,0.0,0.0,0.0,0.0,0.0,0.0,0.0,0.0,0.0,0.0,0.0,0.0,0.0,0.0,0.0,0.0,0.0,0.0,0.0,0.0,0.0,0.0,-2.8005,-2.8765,-2.9409,-2.9909,-3.0136,-3.0352,-3.0599,-2.9578,-2.9184,0.0,0.0,0.0,0.0,0.0,0.0,0.0,0.0,0.0,0.0,0.0,0.0,0.0,0.0,0.0,0.0,0.0,0.0,0.0,0.0,0.0,0.0,0.0,0.0,0.0,0.0,0.0,0.0,0.0,0.0,0.0,0.0,0.0,0.0,0.0,0.0,0.0,0.0,0.0,0.0,0.0,-2.9743,-3.0061,-3.0731,-3.1223,0.0,0.0,-3.1424,-3.1235,-3.1003,-3.0719,-3.0426,0.0,0.0,0.0,0.0,0.0,0.0,0.0,0.0,0.0,0.0,0.0,0.0,0.0,0.0,0.0,0.0,0.0,0.0,0.0,0.0,0.0,0.0,0.0,0.0,0.0,0.0,0.0,0.0,0.0,0.0,0.0,0.0,0.0,0.0,0.0,0.0,0.0,0.0,0.0,0.0,0.0,0.0,0.0,0.0,0.0,0.0,0.0,0.0,0.0,0.0,0.0,0.0,0.0,-2.6073,-2.7382,-2.8216,-2.8848,-2.9152,-2.9244,-2.9428,-2.9669,-2.9004,-2.8672,0.0,0.0,0.0,0.0,0.0,0.0,0.0,0.0,0.0,0.0,0.0,0.0,0.0,0.0,0.0,0.0,0.0,0.0,0.0,0.0,0.0,0.0,0.0,0.0,0.0,0.0,0.0,0.0,-2.6754,-2.7053,-2.7237,0.0,0.0,0.0,0.0,0.0,0.0,0.0,0.0,0.0,0.0,-2.9563,-3.0458,-3.111,0.0,0.0,-3.1579,-3.1622,-3.1491,-3.1143,-3.0725,-3.0272,-2.976,0.0,0.0,0.0,0.0,0.0,0.0,0.0,0.0,0.0,0.0,0.0,0.0,0.0,0.0,0.0,0.0,0.0,0.0,0.0,0.0,0.0,0.0,0.0,0.0,0.0,0.0,0.0,0.0,0.0,0.0,0.0,0.0,0.0,0.0,0.0,0.0,0.0,0.0,0.0,0.0,0.0,0.0,0.0,0.0,0.0,0.0,0.0,0.0,0.0,0.0,0.0,0.0,-2.5518,-2.6638,-2.7668,-2.8233,-2.8341,-2.8445,-2.8606,-2.8746,-2.8368,-2.8176,0.0,0.0,0.0,0.0,0.0,0.0,0.0,0.0,0.0,0.0,0.0,0.0,0.0,0.0,0.0,0.0,0.0,0.0,0.0,0.0,0.0,0.0,0.0,0.0,0.0,0.0,0.0,0.0,-2.6504,-2.6674,-2.6603,0.0,0.0,0.0,0.0,0.0,0.0,0.0,0.0,0.0,0.0,-2.955,-3.0414,-3.1149,-3.1572,-3.1572,-3.1661,-3.1673,-3.1617,-3.1009,-3.0438,-3.0192,0.0,0.0,0.0,0.0,0.0,0.0,0.0,0.0,0.0,0.0,0.0,0.0,0.0,0.0,0.0,0.0,0.0,0.0,0.0,0.0,0.0,0.0,0.0,0.0,0.0,0.0,0.0,-2.0274,0.0,0.0,-2.0644,0.0,0.0,0.0,0.0,0.0,0.0,0.0,0.0,0.0,0.0,0.0,0.0,0.0,0.0,0.0,0.0,0.0,0.0,0.0,0.0,0.0,0.0,-2.4954,-2.591,-2.6988,-2.7589,-2.7589,-2.7846,-2.7987,-2.8023,-2.7761,-2.7594,-2.7629,0.0,0.0,0.0,0.0,0.0,0.0,0.0,0.0,0.0,0.0,0.0,0.0,0.0,0.0,0.0,0.0,0.0,0.0,0.0,0.0,0.0,0.0,0.0,0.0,0.0,0.0,-2.5499,-2.592,-2.6113,0.0,0.0,0.0,0.0,0.0,0.0,0.0,0.0,0.0,0.0,-2.8965,-2.9788,-2.9822,-3.0664,-3.1306,-3.1294,-3.1528,-3.1572,-3.135,-3.0474,-2.992,0.0,0.0,0.0,0.0,0.0,0.0,0.0,0.0,0.0,0.0,0.0,0.0,0.0,0.0,0.0,0.0,0.0,0.0,0.0,0.0,0.0,0.0,0.0,0.0,0.0,0.0,0.0,-2.0514,-2.0365,0.0,0.0,0.0,0.0,0.0,0.0,0.0,0.0,0.0,0.0,0.0,-2.1444,-2.1398,0.0,0.0,0.0,0.0,0.0,0.0,0.0,0.0,0.0,0.0,0.0,0.0,-2.3873,-2.471,-2.5597,-2.6187,-2.636,-2.6408,-2.6658,-2.6965,-2.6907,-2.6962,-2.7112,0.0,0.0,0.0,0.0,0.0,0.0,0.0,0.0,0.0,0.0,0.0,0.0,0.0,0.0,0.0,0.0,0.0,0.0,0.0,0.0,0.0,0.0,0.0,0.0,0.0,-2.4723,0.0,0.0,0.0,0.0,0.0,0.0,0.0,0.0,0.0,0.0,0.0,-2.7234,-2.7877,-2.8333,-2.888,-2.9703,-3.0078,-3.0419,0.0,0.0,0.0,0.0,0.0,0.0,0.0,0.0,0.0,0.0,0.0,0.0,0.0,0.0,-2.9172,-2.9668,-2.975,-2.9702,-2.9614,0.0,0.0,0.0,0.0,0.0,0.0,0.0,0.0,0.0,0.0,0.0,0.0,0.0,0.0,-2.0166,0.0,-1.9913,0.0,0.0,0.0,0.0,0.0,0.0,0.0,0.0,-2.0781,-2.1031,-2.1357,-2.1174,-2.1136,0.0,-2.1465,-2.1367,0.0,0.0,0.0,0.0,0.0,0.0,0.0,0.0,-2.3301,-2.398,-2.4756,-2.5226,-2.5411,-2.5411,-2.5606,-2.5907,-2.6014,-2.6142,-2.6233,-2.5499,-2.4864,0.0,0.0,0.0,0.0,0.0,0.0,0.0,0.0,0.0,0.0,0.0,0.0,0.0,0.0,0.0,0.0,0.0,0.0,0.0,0.0,0.0,0.0,0.0,-2.4261,0.0,0.0,0.0,0.0,0.0,0.0,0.0,0.0,0.0,-2.5794,-2.6114,-2.6494,-2.7235,-2.7551,-2.8031,-2.889,0.0,0.0,0.0,0.0,0.0,0.0,0.0,-2.9148,-2.9071,-2.8678,-2.8586,-2.918,-2.9144,-2.8973,-2.8912,0.0,0.0,-2.9681,-2.9833,-2.9959,-2.9959,-3.014,-3.0307,-3.0307,-3.0379,-3.0504,0.0,0.0,0.0,0.0,0.0,0.0,0.0,0.0,-1.9885,-1.9645,0.0,-1.9066,0.0,0.0,0.0,0.0,-1.8905,-1.9058,0.0,0.0,-2.0079,-2.0338,-2.0588,-2.0597,-2.0663,-2.0791,-2.1015,-2.0998,-2.0752,-2.0921,0.0,0.0,0.0,0.0,0.0,0.0,-2.3219,-2.371,-2.4467,-2.4883,-2.4883,-2.4883,-2.4883,-2.4883,-2.5128,-2.5228,-2.5003,-2.4982,-2.4417,-2.3227,-2.3107,0.0,0.0,0.0,0.0,0.0,0.0,0.0,0.0,0.0,0.0,0.0,0.0,0.0,0.0,0.0,0.0,0.0,0.0,0.0,0.0,-2.4091,0.0,0.0,0.0,0.0,0.0,0.0,0.0,0.0,0.0,0.0,-2.4709,-2.5269,-2.5765,-2.603,0.0,0.0,0.0,0.0,-2.862,-2.8678,-2.9106,-2.9255,-2.8746,-2.8318,-2.8095,-2.8373,0.0,0.0,-2.8948,-2.8653,-2.854,-2.9236,-2.9704,-2.9827,-2.9152,-2.9535,-2.9823,-2.9842,-3.0071,-3.0176,-3.014,-3.0241,-3.0236,-2.007,0.0,0.0,0.0,0.0,-1.9296,-1.9129,-1.9086,-1.9182,-1.9118,-1.8933,-1.8974,0.0,0.0,0.0,0.0,0.0,0.0,-1.9159,-1.9574,-1.9847,-2.0169,-2.0541,-2.0548,-2.0553,-2.0589,-2.0452,-2.0327,-2.0177,-2.0369,-2.0643,-2.087,0.0,0.0,0.0,0.0,-2.3007,-2.3564,-2.4131,-2.4399,-2.4399,-2.4399,-2.444,-2.4627,-2.4883,-2.4973,-2.4946,-2.466,-2.4336,-2.3973,-2.307,0.0,0.0,0.0,0.0,0.0,0.0,0.0,0.0,0.0,0.0,0.0,0.0,0.0,0.0,0.0,0.0,0.0,0.0,0.0,-2.3178,-2.3332,-2.3121,0.0,0.0,0.0,0.0,0.0,0.0,0.0,0.0,0.0,-2.4107,-2.4572,-2.5081,0.0,0.0,-2.5994,-2.6476,-2.6706,-2.704,-2.7552,-2.7741,0.0,-2.803,-2.7967,-2.7955,-2.8142,-2.8286,-2.8435,-2.8629,-2.8561,-2.8519,-2.8742,-2.9171,-2.9449,-2.9375,-3.0242,-3.1044,-3.1148,-3.1194,-3.1158,-3.1013,-3.0953,-3.0937,-1.8687,-1.8907,-1.8598,-1.8505,-1.8508,-1.8316,-1.8256,-1.8339,-1.8412,-1.8362,-1.8398,-1.8225,-1.8175,-1.8167,-1.8038,0.0,0.0,0.0,-1.8419,-1.8861,-1.9153,-1.9573,-1.9975,-2.0027,-1.9879,-1.9709,-1.9724,-1.9619,-1.9315,-1.9925,-2.0305,-2.0489,0.0,0.0,-2.2044,-2.2458,-2.2811,-2.3208,-2.3744,-2.4053,-2.4044,-2.4152,-2.4251,-2.439,-2.4538,-2.4646,-2.4637,-2.4363,-2.4197,-2.3981,-2.3214,-2.2589,0.0,0.0,0.0,0.0,0.0,0.0,0.0,0.0,0.0,0.0,0.0,-2.1759,-2.2258,0.0,0.0,0.0,-2.2566,-2.2926,-2.2866,-2.3025,0.0,0.0,0.0,0.0,0.0,0.0,0.0,-2.3101,-2.327,-2.3472,-2.3712,-2.4169,-2.456,-2.4952,-2.4981,-2.5194,-2.579,0.0,-2.6261,-2.6812,-2.6989,-2.7129,-2.7271,-2.7272,-2.7382,-2.7612,-2.7864,-2.8096,-2.8347,-2.8407,-2.8397,-2.8557,-2.8942,-2.9279,-2.9318,-3.0266,-3.1096,-3.1332,-3.154,-3.1616,-3.1506,-3.1459,-3.146,-1.7378,-1.7134,-1.7516,-1.7575,-1.7346,-1.7418,-1.7445,-1.7465,-1.7514,-1.7523,-1.7509,-1.7191,-1.7065,-1.7058,-1.6735,0.0,-1.6988,-1.7054,-1.7373,-1.7804,-1.8133,-1.8586,-1.9116,-1.9116,-1.8848,-1.8318,-1.8855,-1.8855,-1.8415,-1.9406,-1.9926,-1.988,-2.0785,-2.1538,-2.2026,-2.2448,-2.2682,-2.2717,-2.3417,-2.3755,-2.3795,-2.4053,-2.4211,-2.4202,-2.4211,-2.4202,-2.4211,-2.4202,-2.4027,-2.3563,-2.3407,-2.2964,-2.2154,0.0,0.0,0.0,0.0,0.0,0.0,0.0,0.0,0.0,0.0,0.0,0.0,0.0,0.0,0.0,-2.2765,0.0,-2.2787,-2.3103,0.0,0.0,0.0,-2.3004,-2.2958,-2.314,-2.3298,-2.3326,0.0,0.0,-2.3544,-2.3923,-2.426,-2.4477,-2.4535,-2.4765,-2.5349,-2.5676,-2.5989,-2.6375,-2.6666,-2.6737,-2.6602,-2.6609,-2.6727,-2.7033,-2.7212,-2.7609,-2.8076,-2.8239,-2.8299,-2.841,-2.8921,-2.926,-2.925,-2.9673,-3.0139,-3.0701,-3.1169,-3.1522,-3.1465,-3.1502,-3.1563,-1.6736,-1.653,-1.6603,-1.6749,-1.6847,-1.6872,-1.6898,-1.6904,-1.6916,-1.6889,-1.6889,-1.6818,-1.6786,-1.6786,-1.6722,-1.669,-1.6749,-1.6813,-1.6845,-1.7003,-1.7345,-1.7543,-1.7701,-1.7701,-1.7648,-1.749,-1.7371,-1.747,-1.7793,-1.8272,-1.8812,-1.9406,-1.9888,-2.0628,-2.168,-2.2002,-2.2371,-2.2839,-2.3244,-2.3605,-2.3805,-2.4053,-2.4211,-2.4211,-2.4211,-2.4211,-2.4211,-2.4211,-2.4156,-2.4045,-2.3669,-2.3081,-2.2272,-2.1894,0.0,0.0,0.0,0.0,0.0,0.0,0.0,0.0,0.0,-2.1332,-2.2134,0.0,-2.2503,0.0,-2.3056,-2.3411,-2.331,-2.3393,0.0,0.0,-2.2842,-2.2898,-2.2944,-2.2981,-2.3127,-2.3421,-2.3483,-2.3666,-2.4027,-2.4137,-2.433,-2.4675,-2.473,-2.4757,-2.4969,-2.5298,-2.5614,-2.5924,-2.6074,-2.6149,-2.6407,-2.6708,-2.6886,-2.7022,-2.7439,-2.782,-2.7926,-2.8137,-2.8295,-2.8348,-2.8595,-2.8833,-2.8823,-2.9303,-2.9702,-2.9901,-3.0158,-3.041,-3.041,-3.0634,-3.0872,-1.6258,-1.6105,-1.6111,-1.6211,-1.6365,-1.6365,-1.6358,-1.6365,-1.6358,-1.6365,-1.6365,-1.6311,-1.6365,-1.6365,-1.6365,-1.6311,-1.6365,-1.6358,-1.6424,-1.6524,-1.669,-1.6855,-1.6955,-1.6955,-1.6908,-1.6802,-1.6736,-1.6789,-1.706,-1.7437,-1.7964,-1.8534,-1.8945,-1.9524,-2.0362,-2.0972,-2.1586,-2.212,-2.285,-2.3397,-2.3805,-2.3945,-2.3962,-2.3886,-2.3877,-2.3804,-2.362,-2.362,-2.362,-2.3611,-2.3361,-2.295,-2.2309,-2.2116,-2.1513,0.0,0.0,0.0,0.0,0.0,0.0,0.0,0.0,0.0,0.0,0.0,-2.2658,-2.3028,-2.3329,-2.3499,-2.3499,-2.3499,-2.3343,-2.295,-2.3068,-2.3178,-2.3169,-2.3325,-2.3565,-2.3794,-2.3813,-2.3895,-2.4174,-2.4367,-2.456,-2.4757,-2.5078,-2.5307,-2.5368,-2.5561,-2.5807,-2.6088,-2.6187,-2.6243,-2.643,-2.6697,-2.6899,-2.6989,-2.726,-2.753,-2.7638,-2.7916,-2.8121,-2.813,-2.8344,-2.8514,-2.8514,-2.8771,-2.9026,-2.9026,-2.9142,-2.942,-2.9911,-3.027,-3.0571,-1.5885,-1.5885,-1.5885,-1.5885,-1.5885,-1.5885,-1.5885,-1.5885,-1.5885,-1.5885,-1.5885,-1.5885,-1.5885,-1.5885,-1.5885,-1.5885,-1.5885,-1.5885,-1.6051,-1.6271,-1.6271,-1.6371,-1.6624,-1.663,-1.6471,-1.6271,-1.6524,-1.6477,-1.633,-1.6802,-1.7226,-1.7477,-1.795,-1.8349,-1.8599,-1.9517,-2.045,-2.1296,-2.2422,-2.3247,-2.3746,-2.3805,-2.3704,-2.3526,-2.3499,-2.3306,-2.2922,-2.295,-2.2986,-2.2986,-2.3032,-2.2876,-2.2465,-2.2428,-2.1943,0.0,-2.1154,0.0,0.0,0.0,0.0,0.0,0.0,0.0,0.0,-2.24,-2.2795,-2.3508,-2.3563,-2.3572,-2.3572,-2.3572,-2.3435,-2.3114,-2.337,-2.3572,-2.3581,-2.3941,-2.4211,-2.4211,-2.4211,-2.4211,-2.422,-2.4569,-2.4785,-2.4964,-2.5525,-2.5957,-2.6076,-2.6085,-2.6223,-2.6545,-2.6591,-2.6563,-2.6591,-2.6627,-2.6691,-2.689,-2.6989,-2.7098,-2.7323,-2.7584,-2.7853,-2.7906,-2.8121,-2.8237,-2.8291,-2.8291,-2.8291,-2.8344,-2.8398,-2.8717,-2.9544,-2.9995,-3.0391,-1.5885,-1.5885,-1.5885,-1.5885,-1.5885,-1.5885,-1.5885,-1.5885,-1.5885,-1.5885,-1.5885,-1.5885,-1.5885,-1.5885,-1.5885,-1.5885,-1.5885,-1.5885,-1.5945,-1.5945,-1.5998,-1.5998,-1.6051,-1.6045,-1.6045,-1.5998,-1.6051,-1.6158,-1.6271,-1.6436,-1.6583,-1.6889,-1.6995,-1.7193,-1.7434,0.0,0.0,0.0,-2.2652,-2.3138,-2.3456,-2.3696,-2.3704,-2.3517,-2.3499,0.0,-2.294,-2.3215,-2.3389,-2.3398,-2.3749,0.0,0.0,0.0,0.0,0.0,0.0,0.0,0.0,0.0,0.0,0.0,-2.2529,-2.2547,-2.2767,-2.3078,-2.3519,-2.4036,-2.4091,-2.4082,-2.4082,-2.4091,-2.4055,-2.3941,-2.3987,-2.4091,-2.4091,-2.4156,-2.4211,-2.4211,-2.4211,-2.4211,-2.4248,-2.4569,-2.4904,-2.5234,-2.5708,-2.6131,-2.6417,-2.6444,-2.6499,-2.6582,-2.6591,-2.6591,-2.6591,-2.6591,-2.6591,-2.6691,-2.6899,-2.6999,-2.7098,-2.7314,-2.7584,-2.7799,-2.7906,-2.8067,-2.8237,-2.8301,-2.8301,-2.8301,-2.8301,-2.8398,-2.8834,-2.9142,-2.9501,-1.5885,-1.5885,-1.5885,-1.5885,0.0,-1.5885,-1.5885,-1.5885,-1.5885,-1.5885,-1.5885,-1.5885,-1.5885,-1.5885,-1.5885,-1.5885,-1.5885,-1.5885,-1.5885,-1.5885,-1.5885,-1.5885,-1.5885,-1.5885,-1.5885,-1.5885,-1.5885,-1.5945,-1.6111,-1.6111,-1.6158,-1.6305,-1.6424,-1.6613,-1.6938,-1.7718,-1.9052,-2.0841,-2.1727,-2.2291,-2.2535,-2.2837,-2.2904,-2.273,-2.2859,0.0,0.0,0.0,0.0,0.0,0.0,0.0,0.0,-2.3206,0.0,-2.2931,-2.2913,-2.2913,-2.2922,-2.3087,-2.3197,-2.3197,-2.338,-2.3455,-2.3215,-2.3611,-2.3932,-2.4183,-2.4211,-2.4211,-2.4211,-2.4211,-2.4211,-2.4211,-2.4211,-2.4211,-2.4211,-2.4211,-2.4211,-2.4211,-2.4211,-2.4266,-2.4496,-2.4812,-2.5267,-2.5663,-2.6013,-2.6344,-2.6536,-2.6591,-2.6591,-2.6591,-2.6591,-2.6591,-2.6591,-2.6591,-2.6591,-2.6646,-2.6691,-2.6791,-2.6791,-2.6999,-2.7314,-2.7584,-2.7799,-2.796,-2.8237,-2.8301,-2.8301,-2.8301,-2.8301,-2.8344,-2.8514,-2.8717,-2.9036,-1.5885,-1.5885,-1.5885,-1.5885,-1.5885,-1.5885,-1.5885,-1.5885,-1.5885,0.0,0.0,-1.5885,-1.5885,-1.5885,-1.5885,-1.5885,-1.5885,-1.5885,-1.5885,-1.5885,-1.5885,-1.5885,-1.5885,-1.5885,-1.5885,-1.5885,-1.5885,-1.5885,-1.5885,-1.5885,-1.5885,-1.5945,-1.6111,-1.6377,-1.6683,-1.7884,-1.8749,-1.9233,-2.0503,-2.1318,-2.1573,-2.1885,-2.1996,-2.1834,-2.2141,-2.224,-2.2229,-2.2783,-2.3113,-2.3162,-2.3479,-2.3517,-2.3208,-2.3069,-2.3033,-2.2985,-2.2865,-2.2819,-2.2828,-2.3175,-2.3453,-2.3551,-2.3919,-2.3965,-2.3618,-2.396,-2.4211,-2.4211,-2.4211,-2.4211,-2.4211,-2.4211,-2.4211,-2.4211,-2.4211,-2.4211,-2.4211,-2.4211,-2.4211,-2.4211,-2.4211,-2.4358,-2.4711,-2.5157,-2.5571,-2.5957,-2.6342,-2.6591,-2.6591,-2.6591,-2.6591,-2.6591,-2.6591,-2.6591,-2.6591,-2.6591,-2.6591,-2.6591,-2.6591,-2.6591,-2.6636,-2.6836,-2.7098,-2.7377,-2.7691,-2.796,-2.8237,-2.8301,-2.8301,-2.8301,-2.8301,-2.8301,-2.8301,-2.8461,-2.8727,-1.5885,-1.5885,-1.5885,-1.5885,-1.5885,-1.5885,-1.5885,-1.5885,-1.5885,-1.5885,-1.5885,-1.5885,-1.5885,-1.5885,-1.5885,-1.5885,-1.5885,-1.5885,-1.5885,-1.5885,-1.5885,-1.5885,-1.5885,-1.5885,-1.5885,-1.5885,-1.5885,-1.5885,-1.5885,-1.5885,-1.5885,-1.5885,-1.5945,-1.6105,-1.6377,-1.7067,-1.747,-1.7588,-1.9583,-2.0739,-2.0995,-2.1566,-2.1764,-2.1676,-2.194,-2.2059,-2.1971,-2.2613,-2.3142,-2.3356,-2.398,-2.4337,-2.4275,-2.369,-2.3439,-2.337,-2.2854,-2.2514,-2.2572,-2.2815,-2.3208,-2.3714,-2.3818,-2.3926,-2.407,-2.4165,-2.4211,-2.4211,-2.4211,-2.4211,-2.4211,-2.4211,-2.4211,-2.4211,-2.4211,-2.4211,-2.4211,-2.4211,-2.4211,-2.4211,-2.4211,-2.4376,-2.4817,-2.5152,-2.5555,-2.5984,-2.6398,-2.6591,-2.6591,-2.6591,-2.6591,-2.6591,-2.6591,-2.6591,-2.6591,-2.6591,-2.6591,-2.6591,-2.6591,-2.6591,-2.6636,-2.6836,-2.7098,-2.7377,-2.7691,-2.796,-2.8237,-2.8301,-2.8301,-2.8301,-2.8301,-2.8301,-2.8301,-2.8344,-2.8461,-1.6111,-1.6111,-1.5945,-1.5885,-1.5885,-1.5885,-1.5885,-1.5885,-1.5885,-1.5885,-1.5885,-1.5885,-1.5885,-1.5885,-1.5885,-1.5885,-1.5885,-1.5885,-1.5885,-1.5885,-1.5885,-1.5885,-1.5885,-1.5885,-1.5885,-1.5885,-1.5885,-1.5885,-1.5885,-1.5885,-1.5885,-1.5885,-1.6051,-1.6164,-1.6324,-1.669,-1.6979,-1.7186,-1.8614,-1.94,-1.9566,-2.0088,-2.0345,-2.0287,-2.0773,-2.1079,-2.1201,-2.2162,-2.2794,-2.3053,-2.3702,-2.4031,-2.3991,-2.3531,-2.3272,-2.3255,-2.28,-2.2476,-2.2476,-2.2627,-2.2878,-2.3279,-2.3347,-2.3488,-2.3954,-2.4102,-2.4211,-2.4211,-2.4211,-2.4211,-2.4211,-2.4211,-2.4211,-2.4211,-2.4211,-2.4211,-2.4211,-2.4211,-2.4211,-2.4229,-2.4413,-2.4647,-2.5051,-2.5497,-2.5892,-2.6287,-2.6554,-2.6591,-2.6591,-2.6591,-2.6591,-2.6591,-2.6591,-2.6591,-2.6591,-2.6591,-2.6591,-2.6591,-2.6591,-2.6691,-2.6791,-2.6935,-2.7152,-2.7584,-2.7799,-2.8014,-2.8237,-2.8301,-2.8301,-2.8301,-2.8301,-2.8301,-2.8301,-2.8301,-2.8408,-1.6377,-1.6377,-1.6152,-1.6099,-1.6051,-1.5992,-1.5992,-1.5998,-1.5945,-1.5885,-1.5885,-1.5885,-1.5885,-1.5885,-1.5885,-1.5885,-1.5885,-1.5885,-1.5885,-1.5885,-1.5885,-1.5885,-1.5885,-1.5885,-1.5885,-1.5885,-1.5885,-1.5885,-1.5885,-1.5885,-1.5885,-1.5945,-1.6111,-1.6223,-1.6217,-1.648,-1.6725,-1.6945,-1.772,-1.8196,-1.8299,-1.8851,-1.9168,-1.9168,-1.9625,-2.01,-2.0435,-2.1458,-2.2189,-2.2522,-2.3129,-2.3444,-2.3456,-2.2959,-2.2664,-2.2622,-2.2127,-2.181,-2.1962,-2.2013,-2.2215,-2.2577,-2.2728,-2.3088,-2.3646,-2.3945,-2.4152,-2.4202,-2.4211,-2.4211,-2.4211,-2.4211,-2.4211,-2.4211,-2.4211,-2.4211,-2.4211,-2.4211,-2.4211,-2.4248,-2.4528,-2.4922,-2.5368,-2.5764,-2.6149,-2.6454,-2.6591,-2.6591,-2.6591,-2.6591,-2.6591,-2.6591,-2.6591,-2.6591,-2.6591,-2.6591,-2.6591,-2.6591,-2.6591,-2.6745,-2.689,-2.7043,-2.7314,-2.7745,-2.796,-2.8077,-2.8237,-2.8301,-2.8301,-2.8301,-2.8301,-2.8301,-2.8301,-2.8301,-2.8354,-1.6677,-1.6677,-1.663,-1.663,-1.6577,-1.6371,-1.6271,-1.6211,-1.5998,-1.5885,-1.5939,-1.5885,-1.5885,-1.5885,-1.5885,-1.5885,-1.5885,-1.5885,-1.5885,-1.5885,-1.5885,-1.5885,-1.5885,-1.5885,-1.5885,-1.5885,-1.5885,-1.5885,-1.5885,-1.5885,-1.5885,-1.5885,-1.5945,-1.5951,-1.5975,-1.6229,-1.6369,-1.6405,-1.6935,-1.7466,-1.802,-1.8612,-1.8934,-1.8934,-1.9233,-1.9554,-1.9805,-2.0508,-2.1123,-2.1692,-2.2243,-2.275,-2.2895,-2.1947,-2.1318,-2.1287,-2.0287,-1.9783,-2.0285,-2.0534,-2.1054,-2.1725,-2.2274,-2.2778,-2.3279,-2.3646,-2.3954,-2.4152,-2.4211,-2.4211,-2.4211,-2.4211,-2.4211,-2.4211,-2.4211,-2.4211,-2.4211,-2.4211,-2.4211,-2.4211,-2.4597,-2.4931,-2.5387,-2.58,-2.6195,-2.6527,-2.6591,-2.6591,-2.6591,-2.6591,-2.6591,-2.6591,-2.6591,-2.6591,-2.6591,-2.6591,-2.6591,-2.6591,-2.6591,-2.6745,-2.6944,-2.7206,-2.7476,-2.7853,-2.8077,-2.8237,-2.8291,-2.8301,-2.8301,-2.8301,-2.8301,-2.8301,-2.8301,-2.8301,-2.8301,-1.7008,-1.6955,-1.6789,-1.667,-1.6677,-1.6577,-1.6524,-1.6524,-1.6411,-1.6365,-1.6365,-1.6211,-1.6057,-1.5885,-1.5885,-1.5885,-1.5885,-1.5885,-1.5885,-1.5885,-1.5885,-1.5885,-1.5885,-1.5885,-1.5885,-1.5885,-1.5885,-1.5885,-1.5885,-1.5885,-1.5885,-1.5885,-1.5885,-1.5976,-1.6133,-1.6235,-1.6435,-1.6754,-1.6978,-1.7277,-1.7676,-1.7955,-1.8076,-1.8089,-1.8364,-1.8596,-1.8771,-1.9345,-1.991,-2.0486,-2.0945,-2.1402,-2.1923,-2.126,-2.0758,-2.0543,-1.994,-1.9628,-1.9835,-2.0248,-2.0712,-2.1216,-2.1725,-2.2333,-2.2979,-2.3388,-2.3755,-2.4102,-2.4211,-2.4211,-2.4211,-2.4211,-2.4211,-2.4211,-2.4211,-2.4211,-2.4211,-2.4211,-2.4211,-2.4248,-2.478,-2.5179,-2.547,-2.5993,-2.6362,-2.6564,-2.6591,-2.6591,-2.6591,-2.6591,-2.6591,-2.6591,-2.6591,-2.6591,-2.6591,-2.6591,-2.6591,-2.6591,-2.6591,-2.6745,-2.7107,-2.7314,-2.7539,-2.8067,-2.8184,-2.8301,-2.8291,-2.8301,-2.8301,-2.8301,-2.8301,-2.8301,-2.8301,-2.8301,-2.8301,-1.7331,-1.7279,-1.7054,-1.6942,-1.6942,-1.6895,-1.6842,-1.6842,-1.673,-1.667,-1.6677,-1.6477,-1.6318,-1.6099,-1.5992,-1.5885,-1.5885,-1.5885,-1.5885,-1.5885,-1.5885,-1.5885,-1.5885,-1.5885,-1.5885,-1.5885,-1.5885,-1.5885,-1.5885,-1.5885,-1.5885,-1.5885,-1.5885,-1.6024,-1.6278,-1.635,-1.6622,-1.705,-1.7159,-1.7292,-1.7449,-1.7485,-1.7485,-1.7485,-1.7719,-1.7849,-1.7914,-1.8363,-1.8946,-1.9519,-1.9866,-2.0328,-2.0881,-2.055,-2.0149,-1.9631,-1.9367,-1.9316,-1.9413,-2.0042,-2.0506,-2.0925,-2.1522,-2.2173,-2.2837,-2.3297,-2.3705,-2.4112,-2.4211,-2.4211,-2.4211,-2.4211,-2.4211,-2.4211,-2.4211,-2.4211,-2.4211,-2.4211,-2.4211,-2.4275,-2.4891,-2.5534,-2.5782,-2.6215,-2.6573,-2.6582,-2.6591,-2.6591,-2.6591,-2.6591,-2.6591,-2.6591,-2.6591,-2.6591,-2.6591,-2.6591,-2.6591,-2.6591,-2.6646,-2.68,-2.7279,-2.7377,-2.7593,-2.8067,-2.8184,-2.8301,-2.8301,-2.8301,-2.8301,-2.8301,-2.8301,-2.8301,-2.8301,-2.8301,-2.8301,-1.7582,-1.7582,-1.7589,-1.7536,-1.7529,-1.7279,-1.7179,-1.712,-1.6842,-1.673,-1.673,-1.6677,-1.6677,-1.6624,-1.6152,-1.5945,-1.5939,-1.5939,-1.5945,-1.5945,-1.5885,-1.5885,-1.5885,-1.5885,-1.5885,-1.5885,-1.5885,-1.5885,-1.5885,-1.5885,-1.5885,-1.5885,-1.5903,-1.6036,-1.6302,-1.6561,-1.6815,-1.7105,-1.7328,-1.7461,-1.7479,-1.7485,-1.7485,-1.7485,-1.7543,-1.7537,-1.7602,-1.7849,-1.8311,-1.8939,-1.9229,-1.9642,-2.0192,-1.9806,-1.9104,-1.8306,-1.8148,-1.8377,-1.8938,-1.9717,-2.0395,-2.0968,-2.1878,-2.2577,-2.2929,-2.3438,-2.3854,-2.4152,-2.4211,-2.4211,-2.4211,-2.4211,-2.4211,-2.4211,-2.4211,-2.4211,-2.4211,-2.4211,-2.4211,-2.4349,-2.4983,-2.5718,-2.638,-2.6554,-2.6582,-2.6591,-2.6591,-2.6591,-2.6591,-2.6591,-2.6591,-2.6591,-2.6591,-2.6591,-2.6591,-2.6591,-2.6591,-2.6591,-2.6636,-2.68,-2.7116,-2.7485,-2.7799,-2.8067,-2.8184,-2.8301,-2.8301,-2.8301,-2.8301,-2.8301,-2.8301,-2.8301,-2.8301,-2.8301,-2.8301,-1.7589,-1.7589,-1.7589,-1.7589,-1.7582,-1.7483,-1.743,-1.743,-1.7318,-1.7265,-1.7213,-1.7107,-1.7014,-1.7001,-1.6577,-1.6411,-1.6411,-1.6211,-1.6158,-1.6164,-1.5998,-1.5885,-1.5885,-1.5885,-1.5885,-1.5885,-1.5885,-1.5885,-1.5885,-1.5885,-1.5885,-1.5928,-1.6079,-1.629,-1.6555,-1.6815,-1.708,-1.7322,-1.7443,-1.7485,-1.7485,-1.7485,-1.7485,-1.7485,-1.7485,-1.7485,-1.7485,-1.7784,-1.8194,-1.859,-1.8887,-1.9236,-1.9601,-1.9131,-1.878,-1.8584,-1.855,-1.8788,-1.9361,-2.0285,-2.1011,-2.142,-2.2232,-2.2878,-2.3188,-2.3546,-2.3904,-2.4152,-2.4211,-2.4211,-2.4211,-2.4211,-2.4211,-2.4211,-2.4211,-2.4211,-2.4211,-2.4211,-2.4303,-2.4643,-2.5252,-2.6021,-2.6399,-2.6591,-2.6591,-2.6591,-2.6591,-2.6591,-2.6591,-2.6591,-2.6591,-2.6591,-2.6591,-2.6591,-2.6591,-2.6591,-2.6591,-2.6591,-2.6691,-2.6899,-2.7215,-2.7377,-2.7647,-2.813,-2.8291,-2.8301,-2.8301,-2.8301,-2.8301,-2.8301,-2.8301,-2.8301,-2.8301,-2.8301,-2.8301,-1.7589,-1.7589,-1.7589,-1.7589,-1.7589,-1.7589,-1.7589,-1.7589,-1.7589,-1.7589,-1.7589,-1.7378,-1.7331,-1.7279,-1.7107,-1.7001,-1.6942,-1.663,-1.6424,-1.6424,-1.6264,-1.6105,-1.6051,-1.6051,-1.6004,-1.5885,-1.5885,-1.5885,-1.5885,-1.5885,-1.5885,-1.5903,-1.6091,-1.635,-1.667,-1.6881,-1.7123,-1.7406,-1.7485,-1.7485,-1.7485,-1.7485,-1.7485,-1.7485,-1.7485,-1.7485,-1.7543,-1.7849,-1.8142,-1.8421,-1.8706,-1.9055,-1.9319,-1.8811,-1.8601,-1.8858,-1.8812,-1.9146,-1.982,-2.0858,-2.1573,-2.1971,-2.2686,-2.3288,-2.3488,-2.3746,-2.4003,-2.4152,-2.4211,-2.4211,-2.4211,-2.4211,-2.4211,-2.4211,-2.4211,-2.4211,-2.4211,-2.4211,-2.4477,-2.4973,-2.558,-2.6149,-2.649,-2.6573,-2.6591,-2.6591,-2.6591,-2.6591,-2.6591,-2.6591,-2.6591,-2.6591,-2.6591,-2.6591,-2.6591,-2.6591,-2.6591,-2.6591,-2.6636,-2.6899,-2.7215,-2.7323,-2.7647,-2.8077,-2.8301,-2.8301,-2.8301,-2.8301,-2.8301,-2.8301,-2.8301,-2.8301,-2.8301,-2.8301,-2.8301,-1.7589,-1.7589,-1.7589,-1.7589,-1.7589,-1.7589,-1.7589,-1.7589,-1.7589,-1.7589,-1.7582,-1.7582,-1.7589,-1.7589,-1.7529,-1.7536,-1.7424,-1.7001,-1.6736,-1.6683,-1.6677,-1.6524,-1.6324,-1.6271,-1.6111,-1.5885,-1.5885,-1.5885,-1.5885,-1.5885,-1.5885,-1.5885,-1.594,-1.6211,-1.6682,-1.6742,-1.699,-1.7346,-1.7461,-1.7479,-1.7485,-1.7485,-1.7485,-1.7485,-1.7485,-1.7485,-1.7543,-1.7843,-1.8142,-1.8421,-1.8765,-1.9062,-1.9299,-1.8838,-1.867,-1.8892,-1.8879,-1.9249,-2.013,-2.1157,-2.1971,-2.2526,-2.3288,-2.3746,-2.3795,-2.3994,-2.4152,-2.4202,-2.4211,-2.4211,-2.4211,-2.4211,-2.4211,-2.4211,-2.4211,-2.4211,-2.4211,-2.4238,-2.4532,-2.5286,-2.5828,-2.6195,-2.6463,-2.6591,-2.6591,-2.6591,-2.6591,-2.6591,-2.6591,-2.6591,-2.6591,-2.6591,-2.6591,-2.6591,-2.6591,-2.6591,-2.6591,-2.6636,-2.6691,-2.6845,-2.7215,-2.7485,-2.7755,-2.813,-2.8291,-2.8301,-2.8301,-2.8301,-2.8301,-2.8301,-2.8301,-2.8301,-2.8301,-2.8301,-2.8301,-1.7589,-1.7589,-1.7589,-1.7589,-1.7589,-1.7589,-1.7589,-1.7589,-1.7589,-1.7589,-1.7589,-1.7589,-1.7589,-1.7589,-1.7589,-1.7589,-1.7589,-1.7371,-1.7219,-1.7008,-1.6842,-1.6677,-1.6577,-1.6371,-1.6158,-1.5945,-1.5885,-1.5885,-1.5885,-1.5885,-1.5885,-1.5916,-1.6066,-1.6229,-1.649,-1.6773,-1.708,-1.7201,-1.7394,-1.7485,-1.7485,-1.7485,-1.7485,-1.7485,-1.7485,-1.7602,-1.7849,-1.8135,-1.8421,-1.8706,-1.9062,-1.9307,-1.9299,-1.9005,-1.9033,-1.9401,-1.9413,-1.9994,-2.1086,-2.1827,-2.2577,-2.3288,-2.3795,-2.4053,-2.4053,-2.4152,-2.4211,-2.4211,-2.4211,-2.4211,-2.4211,-2.4211,-2.4211,-2.4211,-2.4211,-2.422,-2.4303,-2.4707,-2.524,-2.5745,-2.6186,-2.6426,-2.6545,-2.6591,-2.6591,-2.6591,-2.6591,-2.6591,-2.6591,-2.6591,-2.6591,-2.6591,-2.6591,-2.6591,-2.6591,-2.6691,-2.6736,-2.6736,-2.6791,-2.6954,-2.7323,-2.7593,-2.7916,-2.813,-2.8237,-2.8301,-2.8301,-2.8301,-2.8301,-2.8301,-2.8301,-2.8301,-2.8301,-2.8301,-2.8301,-1.7589,-1.7589,-1.7589,-1.7589,-1.7589,-1.7589,-1.7589,-1.7589,-1.7589,-1.7589,-1.7589,-1.7589,-1.7589,-1.7589,-1.7589,-1.7589,-1.7589,-1.7589,-1.7529,-1.7325,-1.716,-1.7001,-1.6842,-1.6583,-1.6371,-1.6205,-1.6205,-1.6152,-1.6051,-1.6158,-1.6152,-1.6088,-1.6324,-1.6513,-1.6569,-1.6826,-1.6996,-1.7124,-1.7253,-1.734,-1.7358,-1.743,-1.7485,-1.7485,-1.7485,-1.7719,-1.8083,-1.8311,-1.8532,-1.8881,-1.9185,-1.9424,-1.9403,-1.9085,-1.9122,-1.9422,-1.9715,-2.0182,-2.1272,-2.2021,-2.2828,-2.3546,-2.4003,-2.4211,-2.4211,-2.4211,-2.4211,-2.4211,-2.4211,-2.4211,-2.4211,-2.4211,-2.4211,-2.4211,-2.4211,-2.4275,-2.4486,-2.5148,-2.5663,-2.6021,-2.6316,-2.6536,-2.6591,-2.6591,-2.6591,-2.6591,-2.6591,-2.6591,-2.6591,-2.6591,-2.6591,-2.6591,-2.6591,-2.6591,-2.6591,-2.6691,-2.6836,-2.689,-2.6944,-2.7215,-2.7539,-2.7755,-2.796,-2.813,-2.8301,-2.8301,-2.8301,-2.8301,-2.8301,-2.8301,-2.8301,-2.8301,-2.8301,-2.8301,-2.8301,-1.7589,-1.7589,-1.7589,-1.7589,-1.7589,-1.7589,-1.7589,-1.7589,-1.7589,-1.7589,-1.7589,-1.7589,-1.7589,-1.7589,-1.7589,-1.7589,-1.7589,-1.7589,-1.7582,-1.7589,-1.7536,-1.7378,-1.712,-1.6849,-1.6683,-1.6624,-1.6624,-1.6524,-1.6318,-1.6524,-1.6571,-1.6377,-1.6555,-1.6816,-1.6923,-1.6836,-1.69,-1.7067,-1.71,-1.7126,-1.7238,-1.7374,-1.7584,-1.759,-1.7596,-1.7895,-1.8363,-1.8538,-1.8648,-1.8939,-1.9243,-1.9424,-1.9377,-1.9098,-1.9176,-1.9485,-1.9636,-2.0295,-2.1044,-2.1996,-2.2778,-2.3447,-2.3954,-2.4211,-2.4211,-2.4211,-2.4211,-2.4211,-2.4211,-2.4211,-2.4211,-2.4211,-2.422,-2.4248,-2.4312,-2.4477,-2.4891,-2.5571,-2.5947,-2.6122,-2.6398,-2.6591,-2.6591,-2.6591,-2.6591,-2.6591,-2.6591,-2.6591,-2.6591,-2.6591,-2.6591,-2.6591,-2.6591,-2.6691,-2.6691,-2.6791,-2.6999,-2.726,-2.7314,-2.7485,-2.7755,-2.7853,-2.8023,-2.8184,-2.8301,-2.8301,-2.8301,-2.8301,-2.8301,-2.8301,-2.8301,-2.8301,-2.8301,-2.8301,-2.8301,-1.7589,-1.7589,-1.7589,-1.7589,-1.7589,-1.7589,-1.7589,-1.7589,-1.7589,-1.7589,-1.7589,-1.7589,-1.7589,-1.7589,-1.7589,-1.7589,-1.7589,-1.7589,-1.7589,-1.7589,-1.7589,-1.743,-1.7226,-1.712,-1.6955,-1.6783,-1.673,-1.6677,-1.663,-1.6683,-1.6677,-1.663,-1.6677,-1.6768,-1.681,-1.6946,-1.7031,-1.7089,-1.7098,-1.7346,-1.7628,-1.7607,-1.7755,-1.8175,-1.8123,-1.8357,-1.8765,-1.901,-1.9185,-1.9243,-1.9359,-1.9424,-1.9417,-1.9503,-1.9706,-2.0129,-2.0383,-2.0918,-2.1911,-2.2393,-2.2904,-2.3596,-2.4003,-2.4211,-2.4211,-2.4211,-2.4211,-2.4211,-2.4211,-2.4211,-2.4211,-2.422,-2.433,-2.4606,-2.4698,-2.4946,-2.5515,-2.5865,-2.6122,-2.6362,-2.6518,-2.6573,-2.6591,-2.6591,-2.6591,-2.6591,-2.6591,-2.6591,-2.6591,-2.6591,-2.6591,-2.6591,-2.6636,-2.6736,-2.6845,-2.6944,-2.7152,-2.7584,-2.7691,-2.7745,-2.7906,-2.8067,-2.8184,-2.8291,-2.8301,-2.8301,-2.8301,-2.8301,-2.8301,-2.8301,-2.8301,-2.8301,-2.8301,-2.8301,-2.8301,-1.7589,-1.7589,-1.7589,-1.7589,-1.7589,-1.7589,-1.7589,-1.7589,-1.7589,-1.7589,-1.7589,-1.7589,-1.7589,-1.7589,-1.7589,-1.7589,-1.7589,-1.7589,-1.7589,-1.7589,-1.7589,-1.7536,-1.7384,-1.7378,-1.7272,-1.71,-1.7054,-1.7001,-1.6948,-1.7001,-1.7001,-1.6955,-1.6995,-1.7107,-1.712,-1.7103,-1.7111,-1.7149,-1.7094,-1.7277,-1.759,-1.7723,-1.79,-1.8198,-1.8345,-1.8532,-1.8881,-1.9243,-1.9424,-1.9424,-1.9424,-1.9424,-1.9424,-1.9642,-2.0016,-2.0511,-2.08,-2.1434,-2.2151,-2.263,-2.3112,-2.3591,-2.3945,-2.4152,-2.4211,-2.4211,-2.4211,-2.4211,-2.4211,-2.4211,-2.4238,-2.4349,-2.4735,-2.5221,-2.528,-2.5463,-2.5984,-2.6168,-2.6316,-2.6518,-2.6591,-2.6591,-2.6591,-2.6591,-2.6591,-2.6591,-2.6591,-2.6591,-2.6591,-2.6591,-2.6591,-2.6591,-2.6691,-2.6836,-2.7053,-2.7215,-2.7368,-2.7799,-2.796,-2.8023,-2.8077,-2.8184,-2.8237,-2.8301,-2.8301,-2.8301,-2.8301,-2.8301,-2.8301,-2.8301,-2.8301,-2.8301,-2.8301,-2.8301,-2.8301,-1.7589,-1.7589,-1.7589,-1.7589,-1.7589,-1.7589,-1.7589,-1.7589,-1.7589,-1.7589,-1.7589,-1.7589,-1.7589,-1.7589,-1.7589,-1.7589,-1.7589,-1.7589,-1.7589,-1.7589,-1.7589,-1.7589,-1.7589,-1.7536,-1.7536,-1.7529,-1.7589,-1.743,-1.7325,-1.7483,-1.743,-1.7325,-1.743,-1.7582,-1.7483,-1.7351,-1.7239,-1.7251,-1.7165,-1.7229,-1.7444,-1.7789,-1.8058,-1.825,-1.8487,-1.87,-1.9004,-1.9243,-1.9424,-1.9424,-1.9424,-1.9424,-1.9424,-1.9707,-2.0094,-2.0541,-2.1256,-2.1908,-2.2156,-2.309,-2.3526,-2.3675,-2.4008,-2.4211,-2.4211,-2.4211,-2.4211,-2.4211,-2.4211,-2.4248,-2.4395,-2.4629,-2.5179,-2.5764,-2.5957,-2.6067,-2.6149,-2.6416,-2.6591,-2.6591,-2.6591,-2.6591,-2.6591,-2.6591,-2.6591,-2.6591,-2.6591,-2.6591,-2.6591,-2.6591,-2.6591,-2.6591,-2.6736,-2.6935,-2.7206,-2.7485,-2.7691,-2.796,-2.813,-2.8184,-2.8184,-2.8237,-2.8291,-2.8301,-2.8301,-2.8301,-2.8301,-2.8301,-2.8301,-2.8301,-2.8301,-2.8301,-2.8301,-2.8301,-2.8301,-1.7589,-1.7589,-1.7589,-1.7589,-1.7589,-1.7589,-1.7589,-1.7589,-1.7589,-1.7589,-1.7589,-1.7589,-1.7589,-1.7589,-1.7589,-1.7589,-1.7589,-1.7589,-1.7589,-1.7589,-1.7589,-1.7589,-1.7589,-1.7589,-1.7589,-1.7589,-1.7589,-1.7589,-1.7536,-1.7536,-1.7582,-1.7536,-1.7536,-1.7589,-1.7589,-1.7536,-1.7536,-1.749,-1.7298,-1.7401,-1.7718,-1.7916,-1.8235,-1.8628,-1.8975,-1.9171,-1.9301,-1.9366,-1.9424,-1.9424,-1.9424,-1.9424,-1.9533,-2.0097,-2.0558,-2.1084,-2.1998,-2.2802,-2.3278,-2.3626,-2.3923,-2.4149,-2.4258,-2.4211,-2.4211,-2.4257,-2.4238,-2.4211,-2.4211,-2.4422,-2.4744,-2.5359,-2.5754,-2.6039,-2.6306,-2.6417,-2.6463,-2.6518,-2.6582,-2.6591,-2.6591,-2.6591,-2.6591,-2.6591,-2.6591,-2.6591,-2.6591,-2.6591,-2.6591,-2.6591,-2.6591,-2.6582,-2.6736,-2.6944,-2.726,-2.7584,-2.7853,-2.8014,-2.8184,-2.8301,-2.8301,-2.8301,-2.8301,-2.8301,-2.8301,-2.8301,-2.8301,-2.8301,-2.8301,-2.8301,-2.8301,-2.8301,-2.8301,-2.8301,-2.8301,-1.7589,-1.7589,-1.7589,-1.7589,-1.7589,-1.7589,-1.7589,-1.7589,-1.7589,-1.7589,-1.7589,-1.7589,-1.7589,-1.7589,-1.7589,-1.7589,-1.7589,-1.7589,-1.7589,-1.7589,-1.7589,-1.7589,-1.7589,-1.7589,-1.7589,-1.7589,-1.7589,-1.7589,-1.7589,-1.7589,-1.7589,-1.7589,-1.7589,-1.7589,-1.7589,-1.7589,-1.7589,-1.7582,-1.7483,-1.7523,-1.7796,-1.796,-1.8344,-1.8835,-1.9199,-1.9424,-1.9424,-1.9424,-1.9424,-1.9424,-1.9424,-1.9424,-1.954,-2.0213,-2.0831,-2.1301,-2.2615,-2.3398,-2.382,-2.4314,-2.4699,-2.4699,-2.4729,-2.4766,-2.478,-2.4771,-2.4771,-2.4771,-2.4826,-2.4955,-2.535,-2.5663,-2.6039,-2.6306,-2.6499,-2.6582,-2.6591,-2.6591,-2.6591,-2.6591,-2.6591,-2.6591,-2.6591,-2.6591,-2.6591,-2.6591,-2.6591,-2.6591,-2.6591,-2.6591,-2.6591,-2.6636,-2.6736,-2.6944,-2.7323,-2.7638,-2.8014,-2.813,-2.8237,-2.8301,-2.8301,-2.8301,-2.8301,-2.8301,-2.8301,-2.8301,-2.8301,-2.8301,-2.8301,-2.8301,-2.8301,-2.8301,-2.8301,-2.8301,-2.8301,-1.7589,-1.7589,-1.7589,-1.7589,-1.7589,-1.7589,-1.7589,-1.7589,-1.7589,-1.7589,-1.7589,-1.7589,-1.7589,-1.7589,-1.7589,-1.7589,-1.7589,-1.7589,-1.7589,-1.7589,-1.7589,-1.7589,-1.7589,-1.7589,-1.7589,-1.7589,-1.7589,-1.7589,-1.7589,-1.7589,-1.7589,-1.7589,-1.7589,-1.7589,-1.7589,-1.7589,-1.7589,-1.7589,-1.7589,-1.7595,-1.7662,-1.7869,-1.8302,-1.8871,-1.9205,-1.9417,-1.9424,-1.9424,-1.9424,-1.9424,-1.9424,-1.9482,-1.9707,-2.027,-2.0945,-2.1353,-2.3063,-2.4008,-2.4301,-2.4941,-2.5377,-2.5202,-2.5249,-2.5335,-2.5317,-2.5313,-2.5243,-2.5368,-2.5396,-2.5518,-2.5957,-2.6122,-2.6296,-2.6472,-2.6573,-2.6591,-2.6591,-2.6591,-2.6591,-2.6591,-2.6591,-2.6591,-2.6591,-2.6591,-2.6591,-2.6591,-2.6591,-2.6591,-2.6591,-2.6591,-2.6591,-2.6691,-2.6791,-2.7161,-2.753,-2.7809,-2.813,-2.8184,-2.8301,-2.8301,-2.8301,-2.8301,-2.8301,-2.8301,-2.8301,-2.8301,-2.8301,-2.8301,-2.8301,-2.8301,-2.8301,-2.8301,-2.8301,-2.8301,-2.8301,-1.7589,-1.7589,-1.7589,-1.7589,-1.7589,-1.7589,-1.7589,-1.7589,-1.7589,-1.7589,-1.7589,-1.7589,-1.7589,-1.7589,-1.7589,-1.7589,-1.7589,-1.7589,-1.7589,-1.7589,-1.7589,-1.7589,-1.7589,-1.7589,-1.7589,-1.7589,-1.7589,-1.7589,-1.7589,-1.7589,-1.7589,-1.7589,-1.7589,-1.7589,-1.7589,-1.7589,-1.7589,-1.7589,-1.7589,-1.7589,-1.7649,-1.7889,-1.8235,-1.8844,-1.9158,-1.9377,-1.9424,-1.9424,-1.9424,-1.9424,-1.9584,-1.9866,-2.0213,-2.078,-2.141,-2.215,-2.3544,-2.4599,-2.4899,-2.5487,-2.587,-2.5803,-2.5637,-2.5497,-2.5427,-2.5427,-2.5527,-2.5607,-2.5773,-2.5966,-2.6012,-2.6243,-2.6508,-2.6582,-2.6591,-2.6591,-2.6591,-2.6591,-2.6591,-2.6591,-2.6591,-2.6591,-2.6591,-2.6591,-2.6591,-2.6591,-2.6591,-2.6591,-2.6591,-2.6591,-2.6591,-2.6691,-2.6836,-2.726,-2.7736,-2.8023,-2.8237,-2.8237,-2.8301,-2.8301,-2.8301,-2.8301,-2.8301,-2.8301,-2.8301,-2.8301,-2.8301,-2.8301,-2.8301,-2.8301,-2.8301,-2.8301,-2.8301,-2.8301,-2.8301,-1.7589,-1.7589,-1.7589,-1.7589,-1.7589,-1.7589,-1.7589,-1.7589,-1.7589,-1.7589,-1.7589,-1.7589,-1.7589,-1.7589,-1.7589,-1.7589,-1.7589,-1.7589,-1.7589,-1.7589,-1.7589,-1.7589,-1.7589,-1.7589,-1.7589,-1.7589,-1.7589,-1.7589,-1.7589,-1.7589,-1.7589,-1.7589,-1.7589,-1.7589,-1.7589,-1.7589,-1.7589,-1.7589,-1.7589,-1.7589,-1.7609,-1.7876,-1.8229,-1.8644,-1.8985,-1.9199,-1.941,-1.9424,-1.9482,-1.9649,-1.9866,-2.027,-2.0788,-2.1417,-2.1987,-2.2554,-2.3888,-2.4944,-2.5276,-2.5865,-2.6298,-2.627,-2.6068,-2.6013,-2.6004,-2.6032,-2.5958,-2.6085,-2.6096,-2.6289,-2.6307,-2.6481,-2.6564,-2.6591,-2.6591,-2.6591,-2.6591,-2.6591,-2.6591,-2.6591,-2.6591,-2.6591,-2.6591,-2.6591,-2.6591,-2.6591,-2.6591,-2.6591,-2.6591,-2.6636,-2.6691,-2.6954,-2.7152,-2.7476,-2.7906,-2.8121,-2.8291,-2.8301,-2.8301,-2.8301,-2.8301,-2.8301,-2.8301,-2.8301,-2.8301,-2.8301,-2.8301,-2.8301,-2.8301,-2.8301,-2.8301,-2.8301,-2.8301,-2.8301,-2.8301,-1.7589,-1.7589,-1.7589,-1.7589,-1.7589,-1.7589,-1.7589,-1.7589,-1.7589,-1.7589,-1.7589,-1.7589,-1.7589,-1.7589,-1.7589,-1.7589,-1.7589,-1.7589,-1.7589,-1.7589,-1.7589,-1.7589,-1.7589,-1.7589,-1.7589,-1.7589,-1.7589,-1.7589,-1.7589,-1.7589,-1.7589,-1.7589,-1.7589,-1.7589,-1.7589,-1.7589,-1.7589,-1.7589,-1.7589,-1.7589,-1.7655,-1.7889,-1.8135,-1.8484,-1.8771,-1.9078,-1.9332,-1.9424,-1.9533,-1.9815,-2.0155,-2.0673,-2.1375,-2.2222,-2.2716,-2.3111,-2.4223,-2.4889,-2.5505,-2.6063,-2.6518,-2.6509,-2.6564,-2.6564,-2.6545,-2.6454,-2.6518,-2.6591,-2.6573,-2.6545,-2.6518,-2.6582,-2.6591,-2.6591,-2.6591,-2.6591,-2.6591,-2.6591,-2.6591,-2.6591,-2.6591,-2.6591,-2.6591,-2.6591,-2.6591,-2.6591,-2.6591,-2.6591,-2.6636,-2.6745,-2.6845,-2.7206,-2.753,-2.7745,-2.8014,-2.8174,-2.8291,-2.8301,-2.8301,-2.8301,-2.8301,-2.8301,-2.8301,-2.8301,-2.8301,-2.8301,-2.8301,-2.8301,-2.8301,-2.8301,-2.8301,-2.8301,-2.8301,-2.8301,-2.8301,-1.7589,-1.7589,-1.7589,-1.7589,-1.7589,-1.7589,-1.7589,-1.7589,-1.7589,-1.7589,-1.7589,-1.7589,-1.7589,-1.7589,-1.7589,-1.7589,-1.7589,-1.7589,-1.7589,-1.7589,-1.7589,-1.7589,-1.7589,-1.7589,-1.7589,-1.7589,-1.7589,-1.7589,-1.7589,-1.7589,-1.7589,-1.7589,-1.7589,-1.7589,-1.7589,-1.7589,-1.7589,-1.7589,-1.7589,-1.7589,-1.7629,-1.7869,-1.8156,-1.8477,-1.88,-1.9159,-1.9472,-1.9591,-1.97,-1.9989,-2.0436,-2.1124,-2.193,-2.2837,-2.3728,-2.4334,-2.4944,-2.5395,-2.5907,-2.6364,-2.6591,-2.6591,-2.6591,-2.6591,-2.6591,-2.6591,-2.6591,-2.6591,-2.6591,-2.6591,-2.6591,-2.6591,-2.6591,-2.6591,-2.6591,-2.6591,-2.6591,-2.6591,-2.6591,-2.6591,-2.6591,-2.6591,-2.6591,-2.6591,-2.6591,-2.6591,-2.6646,-2.6636,-2.6745,-2.6899,-2.7107,-2.7476,-2.7745,-2.8023,-2.8077,-2.8237,-2.8291,-2.8291,-2.8301,-2.8301,-2.8301,-2.8301,-2.8301,-2.8301,-2.8301,-2.8301,-2.8301,-2.8301,-2.8301,-2.8301,-2.8301,-2.8301,-2.8301,-2.8301,-2.8301,-1.7589,-1.7589,-1.7589,-1.7589,-1.7589,-1.7589,-1.7589,-1.7589,-1.7589,-1.7589,-1.7589,-1.7589,-1.7589,-1.7589,-1.7589,-1.7589,-1.7589,-1.7589,-1.7589,-1.7589,-1.7589,-1.7589,-1.7589,-1.7589,-1.7589,-1.7589,-1.7589,-1.7589,-1.7589,-1.7589,-1.7589,-1.7589,-1.7589,-1.7589,-1.7589,-1.7589,-1.7589,-1.7589,-1.7589,-1.7589,-1.7675,-1.7902,-1.8232,-1.8727,-1.916,-1.9646,-2.0044,-2.0328,-2.0558,-2.0845,-2.141,-2.2044,-2.2837,-2.3672,-2.4565,-2.5174,-2.556,-2.5844,-2.6081,-2.6418,-2.6582,-2.6591,-2.6591,-2.6591,-2.6591,-2.6591,-2.6591,-2.6591,-2.6591,-2.6591,-2.6591,-2.6591,-2.6591,-2.6591,-2.6591,-2.6591,-2.6591,-2.6591,-2.6591,-2.6591,-2.6591,-2.6591,-2.6591,-2.6591,-2.6591,-2.6591,-2.6691,-2.6736,-2.7008,-2.7323,-2.753,-2.7745,-2.796,-2.8184,-2.8237,-2.8291,-2.8291,-2.8301,-2.8301,-2.8301,-2.8301,-2.8301,-2.8301,-2.8301,-2.8301,-2.8301,-2.8301,-2.8301,-2.8301,-2.8301,-2.8301,-2.8301,-2.8301,-2.8301,-2.8301,-1.7589,-1.7589,-1.7589,-1.7589,-1.7589,-1.7589,-1.7589,-1.7589,-1.7589,-1.7589,-1.7589,-1.7589,-1.7589,-1.7589,-1.7589,-1.7589,-1.7589,-1.7589,-1.7589,-1.7589,-1.7589,-1.7589,-1.7589,-1.7589,-1.7589,-1.7589,-1.7589,-1.7589,-1.7589,-1.7589,-1.7589,-1.7589,-1.7589,-1.7589,-1.7589,-1.7589,-1.7589,-1.7589,-1.7694,-1.774,-1.7799,-1.8062,-1.854,-1.9103,-1.9637,-2.019,-2.078,-2.1002,-2.1238,-2.171,-2.2101,-2.2667,-2.356,-2.4334,-2.5064,-2.5624,-2.6017,-2.619,-2.63,-2.6464,-2.6582,-2.6591,-2.6591,-2.6591,-2.6591,-2.6591,-2.6591,-2.6591,-2.6591,-2.6591,-2.6591,-2.6591,-2.6591,-2.6591,-2.6591,-2.6591,-2.6591,-2.6591,-2.6591,-2.6591,-2.6591,-2.6591,-2.6591,-2.6591,-2.6591,-2.6591,-2.6691,-2.6836,-2.7215,-2.7638,-2.7799,-2.8014,-2.813,-2.8237,-2.8291,-2.8301,-2.8301,-2.8301,-2.8301,-2.8301,-2.8301,-2.8301,-2.8301,-2.8301,-2.8301,-2.8301,-2.8301,-2.8301,-2.8301,-2.8301,-2.8301,-2.8301,-2.8301,-2.8301,-2.8301,-1.7589,-1.7589,-1.7589,-1.7589,-1.7589,-1.7589,-1.7589,-1.7589,-1.7589,-1.7589,-1.7589,-1.7589,-1.7589,-1.7589,-1.7589,-1.7589,-1.7589,-1.7589,-1.7589,-1.7589,-1.7589,-1.7589,-1.7589,-1.7589,-1.7589,-1.7589,-1.7589,-1.7589,-1.7589,-1.7589,-1.7589,-1.7589,-1.7589,-1.7589,-1.7589,-1.7589,-1.7641,-1.7694,-1.7852,-1.8016,-1.8174,-1.8552,-1.9131,-1.9697,-2.0062,-2.0467,-2.113,-2.1517,-2.1858,-2.2335,-2.2724,-2.3279,-2.4278,-2.4889,-2.5569,-2.6017,-2.63,-2.6473,-2.6527,-2.6527,-2.6582,-2.6591,-2.6591,-2.6591,-2.6591,-2.6591,-2.6591,-2.6591,-2.6591,-2.6591,-2.6591,-2.6591,-2.6591,-2.6591,-2.6591,-2.6591,-2.6591,-2.6591,-2.6591,-2.6591,-2.6591,-2.6591,-2.6691,-2.6691,-2.6736,-2.6736,-2.7062,-2.726,-2.7476,-2.7853,-2.8014,-2.8174,-2.8237,-2.8291,-2.8291,-2.8301,-2.8301,-2.8301,-2.8301,-2.8301,-2.8301,-2.8301,-2.8301,-2.8301,-2.8301,-2.8301,-2.8301,-2.8301,-2.8301,-2.8301,-2.8301,-2.8301,-2.8301,-2.8301,-2.8301,-1.7589,-1.7589,-1.7589,-1.7589,-1.7589,-1.7589,-1.7589,-1.7589,-1.7589,-1.7589,-1.7589,-1.7589,-1.7589,-1.7589,-1.7589,-1.7589,-1.7589,-1.7589,-1.7589,-1.7589,-1.7589,-1.7589,-1.7589,-1.7589,-1.7589,-1.7589,-1.7589,-1.7589,-1.7589,-1.7589,-1.7589,-1.7589,-1.7641,-1.7589,-1.7589,-1.7641,-1.7694,-1.7905,-1.8115,-1.8318,-1.8667,-1.9431,-2.0135,-2.0545,-2.1838,-2.2332,-2.2903,-2.3247,-2.3488,-2.372,-2.3944,-2.4445,-2.4944,-2.5505,-2.5898,-2.6291,-2.6527,-2.6591,-2.6591,-2.6591,-2.6591,-2.6591,-2.6591,-2.6591,-2.6591,-2.6591,-2.6591,-2.6591,-2.6591,-2.6591,-2.6591,-2.6591,-2.6591,-2.6591,-2.6591,-2.6591,-2.6591,-2.6591,-2.6636,-2.6691,-2.6636,-2.6591,-2.6691,-2.6736,-2.6836,-2.689,-2.726,-2.7638,-2.7853,-2.8014,-2.8184,-2.8237,-2.8291,-2.8301,-2.8301,-2.8301,-2.8301,-2.8301,-2.8301,-2.8301,-2.8301,-2.8301,-2.8301,-2.8301,-2.8301,-2.8301,-2.8301,-2.8301,-2.8301,-2.8301,-2.8301,-2.8301,-2.8301,-2.8301,-2.8301,-1.7589,-1.7589,-1.7589,-1.7589,-1.7589,-1.7589,-1.7589,-1.7589,-1.7589,-1.7589,-1.7589,-1.7589,-1.7589,-1.7589,-1.7589,-1.7589,-1.7589,-1.7589,-1.7589,-1.7589,-1.7589,-1.7589,-1.7589,-1.7589,-1.7589,-1.7589,-1.7589,-1.7589,-1.7589,-1.7589,-1.7694,-1.7694,-1.7694,-1.7694,-1.7635,-1.7687,-1.7911,-1.822,-1.8534,-1.8912,-1.9403,-2.0392,-2.1315,-2.1836,-2.2964,-2.3618,-2.4003,-2.4278,-2.4548,-2.4723,-2.5,-2.534,-2.5679,-2.6017,-2.6245,-2.6473,-2.6591,-2.6591,-2.6591,-2.6591,-2.6591,-2.6591,-2.6591,-2.6591,-2.6591,-2.6591,-2.6591,-2.6591,-2.6591,-2.6591,-2.6591,-2.6591,-2.6591,-2.6591,-2.6591,-2.6591,-2.6591,-2.6636,-2.6691,-2.6736,-2.6736,-2.6791,-2.7008,-2.7161,-2.7269,-2.7314,-2.753,-2.7799,-2.8023,-2.8184,-2.8237,-2.8291,-2.8291,-2.8301,-2.8301,-2.8301,-2.8301,-2.8301,-2.8301,-2.8301,-2.8301,-2.8301,-2.8301,-2.8301,-2.8301,-2.8301,-2.8301,-2.8301,-2.8301,-2.8301,-2.8301,-2.8301,-2.8301,-2.8301,-2.8301,-1.7589,-1.7589,-1.7589,-1.7589,-1.7589,-1.7589,-1.7589,-1.7589,-1.7589,-1.7589,-1.7589,-1.7589,-1.7589,-1.7589,-1.7589,-1.7589,-1.7635,-1.7635,-1.7635,-1.7641,-1.774,-1.7687,-1.7641,-1.7635,-1.7694,-1.7641,-1.7582,-1.7635,-1.7641,-1.7694,-1.7799,-1.8037,-1.8163,-1.8078,-1.7701,-1.7911,-1.8279,-1.8803,-1.9233,-1.9829,-2.0642,-2.1573,-2.2408,-2.3182,-2.4001,-2.4585,-2.482,-2.5064,-2.5229,-2.5395,-2.5404,-2.5679,-2.6072,-2.6127,-2.63,-2.6591,-2.6591,-2.6591,-2.6591,-2.6591,-2.6591,-2.6591,-2.6591,-2.6591,-2.6591,-2.6591,-2.6591,-2.6591,-2.6591,-2.6591,-2.6591,-2.6591,-2.6591,-2.6591,-2.6591,-2.6591,-2.6591,-2.6691,-2.6791,-2.689,-2.6989,-2.7098,-2.7368,-2.7593,-2.7745,-2.7853,-2.7853,-2.8014,-2.8184,-2.8237,-2.8291,-2.8301,-2.8301,-2.8301,-2.8301,-2.8301,-2.8301,-2.8301,-2.8301,-2.8301,-2.8301,-2.8301,-2.8301,-2.8301,-2.8301,-2.8301,-2.8301,-2.8301,-2.8301,-2.8301,-2.8301,-2.8301,-2.8301,-2.8301,-2.8301,-1.7589,-1.7589,-1.7589,-1.7589,-1.7589,-1.7589,-1.7589,-1.7589,-1.7589,-1.7589,-1.7589,-1.7589,-1.7589,-1.7589,-1.7589,-1.7641,-1.7635,-1.7852,-1.7852,-1.7852,-1.8003,-1.8003,-1.7905,-1.7799,-1.7799,-1.7641,-1.7635,-1.774,-1.7859,-1.7905,-1.816,-1.8443,-1.9034,-1.9042,-1.8943,-1.9124,-1.9539,-2.027,-2.0773,-2.1269,-2.2118,-2.2955,-2.368,-2.4247,-2.5016,-2.5482,-2.5606,-2.5734,-2.5907,-2.6026,-2.6026,-2.619,-2.6354,-2.6418,-2.6473,-2.6591,-2.6591,-2.6591,-2.6591,-2.6591,-2.6591,-2.6591,-2.6591,-2.6591,-2.6591,-2.6591,-2.6591,-2.6591,-2.6591,-2.6591,-2.6591,-2.6591,-2.6591,-2.6591,-2.6591,-2.6591,-2.6636,-2.6791,-2.6944,-2.6989,-2.7098,-2.7422,-2.7691,-2.7809,-2.797,-2.8077,-2.8077,-2.813,-2.8237,-2.8291,-2.8301,-2.8301,-2.8301,-2.8301,-2.8301,-2.8301,-2.8301,-2.8301,-2.8301,-2.8301,-2.8301,-2.8301,-2.8301,-2.8301,-2.8301,-2.8301,-2.8301,-2.8301,-2.8301,-2.8301,-2.8301,-2.8301,-2.8301,-2.8301,-2.8301,-1.7589,-1.7589,-1.7589,-1.7589,-1.7589,-1.7589,-1.7589,-1.7589,-1.7589,-1.7589,-1.7589,-1.7589,-1.7589,-1.7589,-1.7589,-1.7694,-1.7747,-1.7905,-1.8115,-1.8115,-1.8318,-1.822,-1.8062,-1.8016,-1.7799,-1.7694,-1.7747,-1.7905,-1.8115,-1.822,-1.8762,-1.9522,-2.0204,-2.0765,-2.0696,-2.0795,-2.0773,-2.1463,-2.1985,-2.2449,-2.3372,-2.4175,-2.476,-2.5224,-2.5792,-2.6236,-2.6354,-2.6473,-2.6591,-2.6591,-2.6591,-2.6591,-2.6591,-2.6591,-2.6591,-2.6591,-2.6591,-2.6591,-2.6591,-2.6591,-2.6591,-2.6591,-2.6591,-2.6591,-2.6591,-2.6591,-2.6591,-2.6591,-2.6591,-2.6591,-2.6591,-2.6591,-2.6591,-2.6591,-2.6646,-2.6646,-2.6791,-2.6944,-2.7152,-2.726,-2.7422,-2.7691,-2.796,-2.8023,-2.813,-2.8184,-2.8291,-2.8301,-2.8301,-2.8301,-2.8301,-2.8301,-2.8301,-2.8301,-2.8301,-2.8301,-2.8301,-2.8301,-2.8301,-2.8301,-2.8301,-2.8301,-2.8301,-2.8301,-2.8301,-2.8301,-2.8301,-2.8301,-2.8301,-2.8301,-2.8301,-2.8301,-2.8301,-2.8301,-2.8301,-1.7589,-1.7589,-1.7589,-1.7589,-1.7589,-1.7589,-1.7589,-1.7589,-1.7589,-1.7589,-1.7589,-1.7589,-1.7589,-1.7589,-1.7641,-1.7747,-1.7964,-1.8069,-1.8227,-1.8377,-1.8527,-1.8325,-1.8167,-1.8069,-1.7905,-1.7799,-1.7852,-1.8115,-1.8422,-1.9094,-1.9814,-2.0739,-2.1699,-2.2396,-2.2557,-2.2429,-2.2317,-2.2884,-2.3178,-2.3727,-2.4564,-2.5048,-2.5468,-2.591,-2.6318,-2.6473,-2.6527,-2.6582,-2.6591,-2.6591,-2.6591,-2.6591,-2.6591,-2.6591,-2.6591,-2.6591,-2.6591,-2.6591,-2.6591,-2.6591,-2.6591,-2.6591,-2.6591,-2.6591,-2.6591,-2.6591,-2.6591,-2.6591,-2.6591,-2.6591,-2.6591,-2.6591,-2.6591,-2.6646,-2.6646,-2.68,-2.6944,-2.7152,-2.7422,-2.7584,-2.7799,-2.8023,-2.813,-2.8237,-2.8184,-2.8237,-2.8301,-2.8301,-2.8301,-2.8301,-2.8301,-2.8301,-2.8301,-2.8301,-2.8301,-2.8301,-2.8301,-2.8301,-2.8301,-2.8301,-2.8301,-2.8301,-2.8301,-2.8301,-2.8301,-2.8301,-2.8301,-2.8301,-2.8301,-2.8301,-2.8301,-2.8301,-2.8301,-2.8301,-2.8301,-1.7589,-1.7589,-1.7589,-1.7589,-1.7589,-1.7589,-1.7589,-1.7589,-1.7589,-1.7589,-1.7589,-1.7589,-1.7641,-1.7641,-1.7799,-1.7911,-1.8128,-1.8398,-1.8608,-1.8757,-1.8855,-1.8646,-1.8429,-1.8272,-1.8003,-1.7859,-1.7971,-1.8457,-1.9264,-2.0034,-2.1346,-2.2506,-2.2997,-2.3806,-2.4164,-2.4221,-2.4318,-2.433,-2.4405,-2.4881,-2.5413,-2.5738,-2.6091,-2.6373,-2.6527,-2.6591,-2.6591,-2.6591,-2.6591,-2.6591,-2.6591,-2.6591,-2.6591,-2.6591,-2.6591,-2.6591,-2.6591,-2.6591,-2.6591,-2.6591,-2.6591,-2.6591,-2.6591,-2.6591,-2.6591,-2.6636,-2.6636,-2.6591,-2.6591,-2.6591,-2.6636,-2.6636,-2.6636,-2.6691,-2.68,-2.6999,-2.7152,-2.7422,-2.7638,-2.7853,-2.8023,-2.813,-2.8291,-2.8291,-2.8237,-2.8291,-2.8301,-2.8301,-2.8301,-2.8301,-2.8301,-2.8301,-2.8301,-2.8301,-2.8301,-2.8301,-2.8301,-2.8301,-2.8301,-2.8301,-2.8301,-2.8301,-2.8301,-2.8301,-2.8301,-2.8301,-2.8301,-2.8301,-2.8301,-2.8301,-2.8301,-2.8301,-2.8301,-2.8301,-2.8301,-1.7589,-1.7589,-1.7589,-1.7589,-1.7589,-1.7589,-1.7589,-1.7589,-1.7589,-1.7589,-1.7589,-1.7687,-1.7747,-1.7799,-1.8062,-1.8227,-1.8391,-1.866,-1.8921,-1.9071,-1.9227,-1.8966,-1.875,-1.8534,-1.8377,-1.8195,-1.8475,-1.9103,-1.9992,-2.1315,-2.2664,-2.36,-2.407,-2.4765,-2.5253,-2.5493,-2.5634,-2.5626,-2.5698,-2.5907,-2.6081,-2.63,-2.6473,-2.6527,-2.6591,-2.6591,-2.6591,-2.6591,-2.6591,-2.6591,-2.6591,-2.6591,-2.6591,-2.6591,-2.6591,-2.6591,-2.6591,-2.6591,-2.6591,-2.6591,-2.6591,-2.6636,-2.6636,-2.6691,-2.6691,-2.6691,-2.6636,-2.6591,-2.6591,-2.6636,-2.6636,-2.6682,-2.6736,-2.6736,-2.6999,-2.7206,-2.7476,-2.7691,-2.7862,-2.8023,-2.813,-2.8237,-2.8301,-2.8301,-2.8301,-2.8301,-2.8301,-2.8301,-2.8301,-2.8301,-2.8301,-2.8301,-2.8301,-2.8301,-2.8301,-2.8301,-2.8301,-2.8301,-2.8301,-2.8301,-2.8301,-2.8301,-2.8301,-2.8301,-2.8301,-2.8301,-2.8301,-2.8301,-2.8301,-2.8301,-2.8301,-2.8301,-2.8301,-2.8301,-2.8301,-1.7628,-1.7589,-1.7628,-1.7694,-1.7635,-1.7687,-1.7687,-1.7687,-1.7747,-1.7635,-1.7687,-1.7911,-1.8016,-1.8122,-1.8331,-1.86,-1.8705,-1.8921,-1.9078,-1.9272,-1.9279,-1.9123,-1.8921,-1.8876,-1.8702,-1.8833,-1.9288,-1.9971,-2.0806,-2.2139,-2.3483,-2.4365,-2.5048,-2.5557,-2.5907,-2.6299,-2.64,-2.6309,-2.619,-2.6245,-2.6473,-2.6582,-2.6591,-2.6582,-2.6591,-2.6591,-2.6591,-2.6591,-2.6591,-2.6591,-2.6591,-2.6591,-2.6591,-2.6591,-2.6591,-2.6591,-2.6591,-2.6591,-2.6591,-2.6591,-2.6646,-2.6636,-2.6636,-2.6791,-2.6899,-2.6745,-2.6636,-2.6691,-2.6691,-2.6682,-2.6736,-2.6836,-2.689,-2.7053,-2.726,-2.7476,-2.7691,-2.7906,-2.8077,-2.8184,-2.8237,-2.8301,-2.8301,-2.8301,-2.8301,-2.8301,-2.8301,-2.8301,-2.8301,-2.8301,-2.8301,-2.8301,-2.8301,-2.8301,-2.8301,-2.8301,-2.8301,-2.8301,-2.8301,-2.8301,-2.8301,-2.8301,-2.8301,-2.8301,-2.8301,-2.8301,-2.8301,-2.8301,-2.8301,-2.8301,-2.8301,-2.8301,-2.8301,-2.8301,-2.8301,-1.7799,-1.7641,-1.7799,-1.8003,-1.816,-1.8213,-1.8213,-1.8213,-1.8213,-1.8108,-1.7957,-1.8167,-1.8325,-1.8377,-1.8698,-1.8921,-1.8974,-1.9227,-1.9227,-1.9331,-1.9376,-1.9227,-1.8988,-1.9024,-1.8991,-1.9322,-1.9947,-2.1055,-2.2449,-2.3476,-2.4226,-2.5116,-2.575,-2.6068,-2.6275,-2.6649,-2.6781,-2.6636,-2.6537,-2.6473,-2.6582,-2.6591,-2.6591,-2.6591,-2.6591,-2.6591,-2.6591,-2.6591,-2.6591,-2.6591,-2.6591,-2.6591,-2.6591,-2.6591,-2.6591,-2.6591,-2.6636,-2.6636,-2.6636,-2.6691,-2.6745,-2.6845,-2.6944,-2.7107,-2.7062,-2.6745,-2.6691,-2.6745,-2.6845,-2.6836,-2.689,-2.6989,-2.7152,-2.7368,-2.7584,-2.7745,-2.7906,-2.8067,-2.8237,-2.8237,-2.8291,-2.8301,-2.8301,-2.8301,-2.8301,-2.8301,-2.8301,-2.8301,-2.8301,-2.8301,-2.8301,-2.8301,-2.8301,-2.8301,-2.8301,-2.8301,-2.8301,-2.8301,-2.8301,-2.8301,-2.8301,-2.8301,-2.8301,-2.8301,-2.8301,-2.8301,-2.8301,-2.8301,-2.8301,-2.8301,-2.8301,-2.8301,-2.8301,-2.8301,-2.8301,-1.7991,-1.7943,-1.8115,-1.8272,-1.837,-1.8422,-1.8422,-1.8422,-1.8684,-1.8698,-1.8541,-1.8646,-1.8698,-1.8848,-1.9116,-1.9435,-1.9539,-1.9635,-1.9791,-1.9791,-1.9606,-1.9428,-1.9308,-1.9328,-1.9512,-1.9832,-2.0846,-2.2114,-2.396,-2.4217,-2.4697,-2.5526,-2.6066,-2.6399,-2.6522,-2.6786,-2.6926,-2.6781,-2.6691,-2.6636,-2.6636,-2.6591,-2.6591,-2.6591,-2.6591,-2.6591,-2.6591,-2.6591,-2.6591,-2.6591,-2.6591,-2.6591,-2.6591,-2.6591,-2.6591,-2.6636,-2.6682,-2.6791,-2.6791,-2.6845,-2.7008,-2.7098,-2.7206,-2.7323,-2.7485,-2.7279,-2.7062,-2.7116,-2.7107,-2.7107,-2.7215,-2.7314,-2.7476,-2.7691,-2.7853,-2.8067,-2.8121,-2.8184,-2.8237,-2.8291,-2.8301,-2.8301,-2.8301,-2.8301,-2.8301,-2.8301,-2.8301,-2.8301,-2.8301,-2.8301,-2.8301,-2.8301,-2.8301,-2.8301,-2.8301,-2.8301,-2.8301,-2.8301,-2.8301,-2.8301,-2.8301,-2.8301,-2.8301,-2.8301,-2.8301,-2.8301,-2.8301,-2.8301,-2.8301,-2.8301,-2.8301,-2.8301,-2.8301,-2.8301,-2.8301,-1.8208,-1.8461,-1.8475,-1.8475,-1.8527,-1.8572,-1.8579,-1.8691,-1.9212,-1.948,-1.9539,-1.9383,-1.9331,-1.948,-1.9783,-2.0205,-2.0462,-2.0447,-2.055,-2.0426,-2.017,-2.0023,-1.9934,-1.9917,-2.0377,-2.1116,-2.2164,-2.3504,-2.513,-2.5038,-2.518,-2.5761,-2.6177,-2.6596,-2.6659,-2.6854,-2.6985,-2.6907,-2.6781,-2.6691,-2.6636,-2.6591,-2.6591,-2.6591,-2.6591,-2.6591,-2.6591,-2.6591,-2.6591,-2.6591,-2.6591,-2.6591,-2.6636,-2.6691,-2.6682,-2.6736,-2.6944,-2.6999,-2.7098,-2.7206,-2.7314,-2.7422,-2.7476,-2.7584,-2.7755,-2.7755,-2.7539,-2.7485,-2.7485,-2.7431,-2.7539,-2.7647,-2.7799,-2.796,-2.813,-2.8291,-2.8291,-2.8301,-2.8301,-2.8301,-2.8301,-2.8301,-2.8301,-2.8301,-2.8301,-2.8301,-2.8301,-2.8301,-2.8301,-2.8301,-2.8301,-2.8301,-2.8301,-2.8301,-2.8301,-2.8301,-2.8301,-2.8301,-2.8301,-2.8301,-2.8301,-2.8301,-2.8301,-2.8301,-2.8301,-2.8301,-2.8301,-2.8301,-2.8301,-2.8301,-2.8301,-2.8301,-2.8301,-2.8301,-2.8301,-1.8531,-1.8817,-1.8817,-1.8914,-1.9116,-1.9316,-1.9472,-1.9524,-2.005,-2.0359,-2.0557,-2.0763,-2.0668,-2.0315,-2.0814,-2.1173,-2.1267,-2.1318,-2.1216,-2.1078,-2.1051,-2.0796,-2.0703,-2.1002,-2.1681,-2.2619,-2.3665,-2.4853,-2.5604,-2.562,-2.566,-2.5723,-2.6152,-2.6487,-2.667,-2.6869,-2.711,-2.7074,-2.6989,-2.6845,-2.6691,-2.6646,-2.6646,-2.6591,-2.6591,-2.6591,-2.6591,-2.6591,-2.6591,-2.6591,-2.6636,-2.6691,-2.6745,-2.6845,-2.689,-2.6999,-2.7152,-2.7314,-2.7368,-2.7476,-2.7584,-2.7799,-2.7799,-2.7862,-2.8023,-2.813,-2.797,-2.7916,-2.7862,-2.7691,-2.7745,-2.7853,-2.796,-2.813,-2.8291,-2.8291,-2.8291,-2.8301,-2.8301,-2.8301,-2.8301,-2.8301,-2.8301,-2.8301,-2.8301,-2.8301,-2.8301,-2.8301,-2.8301,-2.8301,-2.8301,-2.8301,-2.8301,-2.8301,-2.8301,-2.8301,-2.8301,-2.8301,-2.8301,-2.8301,-2.8301,-2.8301,-2.8301,-2.8301,-2.8301,-2.8301,-2.8301,-2.8301,-2.8301,-2.8301,-2.8301,-2.8301,-2.8301,-2.8301,-2.8301]},{"header":{"parameterUnit":"m.s-1","parameterCategory":1,"la1":31.0,"la2":29.5877,"lo1":-88.7671,"lo2":-86.6584,"dy":0.0162,"dx":0.0185,"nx":115,"ny":88,"refTime":"2024-02-27T06:00:00:Z","depth":0,"parameterNumber":3,"parameterNumberName":"V-component_of_WINDS"},"data":[0.0,0.0,0.0,0.0,0.0,0.0,0.0,0.0,0.0,0.0,0.0,0.0,0.0,0.0,0.0,0.0,0.0,0.0,0.0,0.0,0.0,0.0,0.0,0.0,0.0,0.0,0.0,0.0,0.0,0.0,0.0,0.0,0.0,0.0,0.0,0.0,0.0,0.0,0.0,0.0,0.0,0.0,0.0,0.0,0.0,0.0,0.0,0.0,0.0,0.0,0.0,0.0,0.0,0.0,0.0,0.0,0.0,0.0,0.0,0.0,0.0,0.0,0.0,0.0,0.0,0.0,0.0,0.0,0.0,0.0,0.0,0.0,0.0,0.0,0.0,0.0,0.0,0.0,0.0,0.0,0.0,0.0,0.0,0.0,0.0,0.0,0.0,0.0,0.0,0.0,0.0,0.0,0.0,0.0,0.0,0.0,0.0,0.0,0.0,0.0,0.0,0.0,0.0,0.0,0.0,0.0,0.0,0.0,0.0,0.0,0.0,0.0,0.0,0.0,0.0,0.0,0.0,0.0,0.0,0.0,0.0,0.0,0.0,0.0,0.0,0.0,0.0,0.0,0.0,0.0,0.0,0.0,0.0,0.0,0.0,0.0,0.0,0.0,0.0,0.0,0.0,0.0,0.0,0.0,0.0,0.0,0.0,0.0,0.0,0.0,0.0,0.0,0.0,0.0,0.0,0.0,0.0,0.0,0.0,0.0,0.0,0.0,0.0,0.0,0.0,0.0,0.0,0.0,0.0,0.0,0.0,0.0,0.0,0.0,0.0,0.0,0.0,0.0,0.0,0.0,0.0,0.0,0.0,0.0,0.0,0.0,0.0,0.0,0.0,0.0,0.0,0.0,0.0,0.0,0.0,0.0,0.0,0.0,0.0,0.0,0.0,0.0,0.0,0.0,0.0,0.0,0.0,0.0,0.0,0.0,0.0,0.0,0.0,0.0,0.0,0.0,0.0,0.0,0.0,0.0,0.0,0.0,0.0,0.0,0.0,0.0,0.0,0.0,0.0,0.0,0.0,0.0,0.0,0.0,0.0,0.0,0.0,0.0,0.0,0.0,0.0,0.0,0.0,0.0,0.0,0.0,0.0,0.0,0.0,0.0,0.0,0.0,0.0,0.0,0.0,0.0,0.0,0.0,0.0,0.0,0.0,0.0,0.0,0.0,0.0,0.0,0.0,0.0,0.0,0.0,0.0,0.0,0.0,0.0,0.0,0.0,0.0,0.0,0.0,0.0,0.0,0.0,0.0,0.0,0.0,0.0,0.0,0.0,0.0,0.0,0.0,0.0,0.0,0.0,0.0,0.0,0.0,0.0,0.0,0.0,0.0,0.0,0.0,0.0,0.0,0.0,0.0,0.0,0.0,0.0,0.0,0.0,0.0,0.0,0.0,0.0,0.0,0.0,0.0,0.0,0.0,0.0,0.0,0.0,0.0,0.0,0.0,0.0,0.0,0.0,0.0,0.0,0.0,0.0,0.0,0.0,0.0,0.0,0.0,0.0,0.0,0.0,0.0,0.0,0.0,0.0,0.0,0.0,0.0,0.0,0.0,0.0,0.0,0.0,0.0,0.0,0.0,0.0,0.0,0.0,0.0,0.0,0.0,0.0,0.0,0.0,0.0,0.0,0.0,0.0,0.0,0.0,0.0,0.0,0.0,0.0,0.0,0.0,0.0,0.0,0.0,0.0,0.0,0.0,0.0,0.0,0.0,0.0,0.0,0.0,0.0,0.0,0.0,0.0,0.0,0.0,0.0,0.0,0.0,0.0,0.0,0.0,0.0,0.0,0.0,0.0,0.0,0.0,0.0,0.0,0.0,0.0,0.0,0.0,0.0,0.0,0.0,0.0,0.0,0.0,0.0,0.0,0.0,0.0,0.0,0.0,0.0,0.0,0.0,0.0,0.0,0.0,0.0,0.0,0.0,0.0,0.0,0.0,0.0,0.0,0.0,0.0,0.0,0.0,0.0,0.0,0.0,0.0,0.0,0.0,0.0,0.0,0.0,0.0,0.0,0.0,0.0,0.0,0.0,0.0,0.0,0.0,0.0,0.0,0.0,0.0,0.0,0.0,0.0,0.0,0.0,0.0,0.0,0.0,0.0,0.0,0.0,0.0,0.0,0.0,0.0,0.0,0.0,0.0,0.0,0.0,0.0,0.0,0.0,0.0,0.0,0.0,0.0,0.0,0.0,0.0,0.0,0.0,0.0,0.0,0.0,0.0,0.0,0.0,0.0,0.0,0.0,0.0,0.0,0.0,0.0,0.0,0.0,0.0,0.0,0.0,0.0,0.0,0.0,0.0,0.0,0.0,0.0,0.0,0.0,0.0,0.0,0.0,0.0,0.0,0.0,0.0,0.0,0.0,0.0,0.0,0.0,0.0,0.0,0.0,0.0,0.0,0.0,0.0,0.0,0.0,0.0,0.0,0.0,0.0,0.0,0.0,0.0,0.0,0.0,0.0,0.0,0.0,0.0,0.0,0.0,0.0,0.0,0.0,0.0,0.0,0.0,0.0,0.0,0.0,0.0,0.0,0.0,0.0,0.0,0.0,0.0,0.0,0.0,0.0,0.0,0.0,0.0,0.0,0.0,0.0,0.0,0.0,0.0,0.0,0.0,0.0,0.0,0.0,0.0,0.0,0.0,0.0,0.0,0.0,0.0,0.0,0.0,0.0,0.0,0.0,0.0,0.0,0.0,0.0,0.0,0.0,0.0,0.0,0.0,0.0,0.0,0.0,0.0,0.0,0.0,0.0,0.0,0.0,0.0,0.0,0.0,0.0,0.0,0.0,0.0,0.0,0.0,0.0,0.0,0.0,0.0,0.0,0.0,0.0,0.0,0.0,0.0,0.0,0.0,0.0,0.0,0.0,0.0,0.0,0.0,0.0,0.0,0.0,0.0,0.0,0.0,0.0,0.0,0.0,0.0,0.0,0.0,0.0,0.0,0.0,0.0,0.0,0.0,0.0,0.0,0.0,0.0,0.0,0.0,0.0,0.0,0.0,0.0,0.0,0.0,0.0,0.0,0.0,0.0,0.0,0.0,0.0,0.0,0.0,0.0,0.0,0.0,0.0,0.0,0.0,0.0,0.0,0.0,0.0,0.0,0.0,0.0,0.0,0.0,0.0,0.0,0.0,0.0,0.0,0.0,0.0,0.0,0.0,0.0,0.0,0.0,0.0,0.0,0.0,0.0,0.0,0.0,0.0,0.0,0.0,0.0,0.0,0.0,0.0,0.0,0.0,0.0,0.0,0.0,0.0,0.0,0.0,0.0,0.0,0.0,0.0,0.0,0.0,0.0,0.0,0.0,0.0,0.0,0.0,0.0,0.0,0.0,0.0,0.0,0.0,0.0,0.0,0.0,0.0,0.0,0.0,0.0,0.0,0.0,0.0,0.0,0.0,0.0,0.0,0.0,0.0,0.0,0.0,0.0,0.0,0.0,0.0,0.0,0.0,0.0,0.0,0.0,0.0,0.0,0.0,0.0,0.0,0.0,0.0,0.0,0.0,0.0,0.0,0.0,0.0,0.0,0.0,0.0,0.0,0.0,0.0,0.0,0.0,0.0,0.0,0.0,0.0,0.0,0.0,0.0,0.0,0.0,0.0,0.0,0.0,0.0,0.0,0.0,0.0,0.0,0.0,0.0,0.0,0.0,0.0,0.0,0.0,0.0,0.0,0.0,0.0,0.0,0.0,0.0,0.0,0.0,0.0,0.0,0.0,0.0,0.0,0.0,0.0,0.0,0.0,0.0,0.0,0.0,0.0,0.0,0.0,0.0,0.0,0.0,0.0,0.0,0.0,0.0,0.0,0.0,0.0,0.0,0.0,0.0,0.0,0.0,0.0,0.0,0.0,0.0,0.0,0.0,0.0,0.0,0.0,0.0,0.0,0.0,0.0,0.0,0.0,0.0,0.0,0.0,0.0,0.0,0.0,0.0,0.0,0.0,0.0,0.0,0.0,0.0,0.0,0.0,0.0,0.0,0.0,0.0,0.0,0.0,0.0,0.0,0.0,0.0,0.0,0.0,0.0,0.0,0.0,0.0,0.0,0.0,0.0,0.0,0.0,0.0,0.0,0.0,0.0,0.0,0.0,0.0,0.0,0.0,0.0,0.0,0.0,0.0,0.0,0.0,0.0,0.0,0.0,0.0,0.0,0.0,0.0,0.0,0.0,0.0,0.0,0.0,0.0,0.0,0.0,0.0,0.0,0.0,0.0,0.0,0.0,0.0,0.0,0.0,0.0,0.0,0.0,0.0,0.0,0.0,0.0,0.0,0.0,2.8587,0.0,0.0,0.0,0.0,0.0,0.0,0.0,0.0,0.0,0.0,0.0,0.0,0.0,0.0,0.0,0.0,0.0,0.0,0.0,0.0,0.0,0.0,0.0,0.0,0.0,0.0,0.0,0.0,0.0,0.0,0.0,0.0,0.0,0.0,0.0,0.0,0.0,0.0,0.0,0.0,0.0,0.0,0.0,0.0,0.0,0.0,0.0,0.0,0.0,0.0,0.0,0.0,0.0,0.0,0.0,0.0,0.0,0.0,0.0,0.0,0.0,0.0,0.0,0.0,0.0,0.0,0.0,0.0,0.0,0.0,0.0,0.0,0.0,0.0,0.0,0.0,0.0,0.0,0.0,0.0,0.0,0.0,0.0,0.0,0.0,0.0,0.0,0.0,0.0,0.0,0.0,0.0,0.0,0.0,0.0,0.0,0.0,0.0,0.0,0.0,0.0,0.0,0.0,0.0,0.0,0.0,0.0,0.0,0.0,0.0,2.8587,2.8587,2.8587,2.8587,2.8587,0.0,0.0,0.0,0.0,0.0,0.0,0.0,0.0,0.0,0.0,0.0,0.0,0.0,0.0,0.0,0.0,0.0,0.0,0.0,0.0,0.0,0.0,0.0,0.0,0.0,0.0,0.0,0.0,0.0,0.0,0.0,0.0,0.0,0.0,0.0,0.0,0.0,0.0,0.0,0.0,0.0,0.0,0.0,0.0,0.0,0.0,0.0,0.0,0.0,0.0,0.0,0.0,0.0,0.0,0.0,0.0,0.0,0.0,0.0,0.0,0.0,0.0,0.0,0.0,0.0,0.0,0.0,0.0,0.0,0.0,0.0,0.0,0.0,0.0,0.0,0.0,0.0,0.0,0.0,0.0,0.0,0.0,0.0,0.0,0.0,0.0,0.0,0.0,0.0,0.0,0.0,0.0,0.0,0.0,0.0,0.0,0.0,0.0,0.0,0.0,0.0,0.0,0.0,0.0,0.0,0.0,0.0,0.0,0.0,0.0,0.0,0.0,2.8587,2.8587,2.8587,0.0,0.0,0.0,0.0,0.0,0.0,0.0,0.0,0.0,0.0,0.0,0.0,0.0,0.0,0.0,0.0,0.0,0.0,0.0,0.0,0.0,0.0,0.0,0.0,0.0,0.0,0.0,0.0,0.0,0.0,0.0,0.0,0.0,0.0,0.0,0.0,0.0,0.0,0.0,0.0,0.0,0.0,0.0,0.0,0.0,0.0,0.0,0.0,0.0,0.0,0.0,0.0,0.0,0.0,0.0,0.0,0.0,0.0,0.0,0.0,0.0,0.0,0.0,0.0,0.0,0.0,0.0,0.0,0.0,0.0,0.0,0.0,0.0,0.0,0.0,0.0,0.0,0.0,0.0,0.0,0.0,0.0,0.0,0.0,0.0,0.0,0.0,0.0,0.0,0.0,0.0,0.0,0.0,0.0,0.0,0.0,0.0,0.0,0.0,0.0,0.0,0.0,0.0,0.0,0.0,0.0,0.0,0.0,0.0,0.0,2.8587,2.8587,2.8587,0.0,2.8587,0.0,0.0,0.0,0.0,0.0,0.0,0.0,0.0,0.0,0.0,0.0,0.0,0.0,0.0,0.0,0.0,0.0,0.0,0.0,0.0,0.0,0.0,0.0,0.0,0.0,0.0,0.0,0.0,0.0,0.0,0.0,0.0,0.0,0.0,0.0,0.0,0.0,0.0,0.0,0.0,0.0,0.0,0.0,0.0,0.0,0.0,0.0,0.0,0.0,0.0,0.0,0.0,0.0,0.0,0.0,0.0,0.0,0.0,0.0,0.0,0.0,0.0,0.0,0.0,0.0,0.0,0.0,0.0,0.0,0.0,0.0,0.0,0.0,0.0,0.0,0.0,0.0,0.0,0.0,0.0,0.0,0.0,0.0,0.0,0.0,0.0,0.0,0.0,0.0,0.0,0.0,0.0,0.0,0.0,0.0,0.0,0.0,0.0,0.0,0.0,0.0,0.0,0.0,0.0,0.0,0.0,0.0,0.0,0.0,0.0,2.8587,2.8587,2.8587,2.8587,0.0,0.0,0.0,0.0,0.0,0.0,0.0,0.0,0.0,0.0,0.0,0.0,0.0,0.0,0.0,0.0,0.0,0.0,0.0,0.0,0.0,0.0,0.0,0.0,0.0,0.0,0.0,0.0,0.0,0.0,0.0,0.0,0.0,0.0,0.0,0.0,0.0,0.0,0.0,0.0,0.0,0.0,0.0,0.0,0.0,0.0,0.0,0.0,0.0,0.0,0.0,0.0,0.0,0.0,0.0,0.0,0.0,0.0,0.0,0.0,0.0,0.0,0.0,0.0,0.0,0.0,0.0,0.0,0.0,0.0,0.0,0.0,0.0,0.0,0.0,0.0,0.0,0.0,0.0,0.0,0.0,0.0,0.0,0.0,0.0,0.0,0.0,0.0,0.0,0.0,0.0,0.0,0.0,0.0,0.0,0.0,0.0,0.0,0.0,0.0,0.0,0.0,0.0,0.0,0.0,0.0,0.0,0.0,0.0,0.0,2.8587,2.8587,2.8587,2.8587,2.8587,2.8587,0.0,0.0,0.0,0.0,0.0,0.0,0.0,0.0,0.0,0.0,0.0,0.0,0.0,0.0,0.0,0.0,0.0,0.0,0.0,0.0,0.0,0.0,0.0,0.0,0.0,0.0,0.0,0.0,0.0,0.0,0.0,0.0,0.0,0.0,0.0,0.0,0.0,0.0,0.0,0.0,0.0,0.0,0.0,0.0,0.0,0.0,0.0,0.0,0.0,0.0,0.0,0.0,0.0,0.0,0.0,0.0,0.0,0.0,0.0,0.0,0.0,0.0,0.0,0.0,0.0,0.0,0.0,0.0,0.0,0.0,0.0,0.0,0.0,0.0,0.0,0.0,0.0,0.0,0.0,0.0,0.0,0.0,0.0,0.0,0.0,0.0,0.0,0.0,0.0,0.0,0.0,0.0,0.0,0.0,0.0,0.0,0.0,0.0,0.0,0.0,0.0,0.0,0.0,0.0,0.0,0.0,0.0,0.0,2.8587,2.8587,2.8587,2.8587,2.8587,2.8587,0.0,0.0,0.0,0.0,0.0,0.0,0.0,0.0,0.0,0.0,0.0,0.0,0.0,0.0,0.0,0.0,0.0,0.0,0.0,0.0,0.0,0.0,0.0,0.0,0.0,0.0,0.0,0.0,0.0,0.0,0.0,0.0,0.0,0.0,0.0,0.0,0.0,0.0,0.0,0.0,0.0,0.0,0.0,0.0,0.0,0.0,0.0,0.0,0.0,0.0,0.0,0.0,0.0,0.0,0.0,0.0,0.0,0.0,0.0,0.0,0.0,0.0,0.0,0.0,0.0,0.0,0.0,0.0,0.0,0.0,0.0,0.0,0.0,0.0,0.0,0.0,0.0,0.0,0.0,0.0,0.0,0.0,0.0,0.0,0.0,0.0,0.0,0.0,0.0,0.0,0.0,0.0,0.0,0.0,0.0,0.0,0.0,0.0,0.0,0.0,0.0,0.0,0.0,0.0,0.0,0.0,0.0,0.0,0.0,2.8587,2.8587,2.8587,2.8587,2.8587,2.8587,0.0,0.0,0.0,0.0,0.0,0.0,0.0,0.0,0.0,0.0,0.0,0.0,0.0,0.0,0.0,0.0,0.0,0.0,0.0,0.0,0.0,0.0,0.0,0.0,0.0,0.0,0.0,0.0,0.0,0.0,0.0,0.0,0.0,0.0,0.0,0.0,0.0,0.0,0.0,0.0,0.0,0.0,0.0,0.0,0.0,0.0,0.0,0.0,0.0,0.0,0.0,0.0,0.0,0.0,0.0,0.0,0.0,0.0,0.0,0.0,0.0,0.0,0.0,0.0,0.0,0.0,0.0,0.0,0.0,0.0,0.0,0.0,0.0,0.0,0.0,0.0,0.0,0.0,0.0,0.0,0.0,0.0,0.0,0.0,0.0,0.0,0.0,0.0,0.0,0.0,0.0,0.0,0.0,0.0,0.0,0.0,0.0,0.0,0.0,0.0,0.0,0.0,0.0,0.0,0.0,0.0,0.0,0.0,0.0,2.8587,0.0,2.8587,2.8587,2.8587,2.8587,0.0,0.0,0.0,0.0,0.0,0.0,0.0,0.0,0.0,0.0,0.0,0.0,0.0,0.0,0.0,0.0,0.0,0.0,0.0,0.0,0.0,0.0,0.0,0.0,0.0,0.0,0.0,0.0,0.0,0.0,0.0,0.0,0.0,0.0,0.0,0.0,0.0,0.0,0.0,0.0,0.0,0.0,0.0,0.0,0.0,0.0,0.0,0.0,0.0,0.0,0.0,0.0,0.0,0.0,0.0,0.0,0.0,0.0,0.0,0.0,0.0,0.0,0.0,0.0,0.0,0.0,0.0,0.0,0.0,0.0,0.0,0.0,0.0,0.0,0.0,0.0,0.0,0.0,0.0,0.0,0.0,0.0,0.0,0.0,0.0,0.0,0.0,0.0,0.0,0.0,0.0,0.0,0.0,0.0,0.0,0.0,0.0,0.0,0.0,0.0,0.0,0.0,0.0,0.0,0.0,0.0,0.0,0.0,2.8587,2.8587,2.8587,2.8587,2.8587,2.8587,2.8587,0.0,0.0,0.0,0.0,0.0,0.0,0.0,0.0,0.0,0.0,0.0,0.0,0.0,0.0,0.0,0.0,0.0,0.0,0.0,0.0,0.0,0.0,0.0,0.0,0.0,0.0,0.0,0.0,0.0,0.0,0.0,0.0,0.0,0.0,0.0,0.0,0.0,0.0,0.0,0.0,0.0,0.0,0.0,0.0,0.0,0.0,0.0,0.0,0.0,0.0,0.0,0.0,0.0,0.0,0.0,0.0,0.0,0.0,0.0,0.0,0.0,0.0,0.0,0.0,0.0,0.0,0.0,0.0,0.0,0.0,0.0,0.0,0.0,0.0,0.0,0.0,0.0,0.0,0.0,0.0,0.0,0.0,0.0,0.0,0.0,0.0,0.0,0.0,0.0,0.0,0.0,0.0,0.0,0.0,0.0,0.0,0.0,0.0,0.0,0.0,0.0,0.0,0.0,0.0,0.0,0.0,0.0,0.0,0.0,2.8587,2.8587,2.8587,2.8587,2.8587,2.8587,0.0,0.0,0.0,0.0,0.0,0.0,0.0,0.0,0.0,0.0,0.0,0.0,0.0,0.0,0.0,0.0,0.0,0.0,0.0,0.0,0.0,0.0,0.0,0.0,0.0,0.0,0.0,0.0,0.0,0.0,0.0,0.0,0.0,0.0,0.0,0.0,0.0,0.0,0.0,0.0,0.0,0.0,0.0,0.0,0.0,0.0,0.0,0.0,0.0,0.0,0.0,0.0,0.0,0.0,0.0,0.0,0.0,0.0,0.0,0.0,0.0,0.0,0.0,0.0,0.0,0.0,0.0,0.0,0.0,0.0,0.0,0.0,0.0,0.0,0.0,0.0,0.0,0.0,0.0,0.0,0.0,0.0,0.0,0.0,0.0,0.0,0.0,0.0,0.0,0.0,0.0,0.0,0.0,0.0,0.0,0.0,0.0,0.0,0.0,0.0,0.0,0.0,0.0,0.0,0.0,0.0,0.0,0.0,0.0,2.8926,2.8926,2.8912,2.8912,2.8912,2.8817,2.86,0.0,0.0,0.0,0.0,0.0,0.0,0.0,0.0,0.0,0.0,0.0,0.0,0.0,0.0,0.0,0.0,0.0,0.0,0.0,0.0,0.0,0.0,0.0,0.0,0.0,0.0,0.0,0.0,0.0,0.0,0.0,0.0,0.0,0.0,0.0,0.0,0.0,0.0,0.0,0.0,0.0,0.0,0.0,0.0,0.0,0.0,0.0,0.0,0.0,0.0,0.0,0.0,0.0,0.0,0.0,0.0,0.0,0.0,0.0,0.0,0.0,0.0,0.0,0.0,0.0,0.0,0.0,0.0,0.0,0.0,0.0,0.0,0.0,0.0,0.0,0.0,0.0,0.0,0.0,0.0,0.0,0.0,0.0,0.0,0.0,0.0,0.0,0.0,0.0,0.0,0.0,0.0,0.0,0.0,0.0,0.0,0.0,0.0,0.0,0.0,0.0,0.0,0.0,0.0,0.0,0.0,0.0,0.0,2.9611,2.9611,2.9597,2.9556,2.9529,2.9244,0.0,0.0,0.0,0.0,0.0,0.0,0.0,0.0,0.0,0.0,0.0,0.0,0.0,0.0,0.0,0.0,0.0,0.0,0.0,0.0,0.0,0.0,0.0,0.0,0.0,0.0,0.0,0.0,0.0,0.0,0.0,0.0,0.0,0.0,0.0,0.0,0.0,0.0,0.0,0.0,0.0,0.0,0.0,0.0,0.0,0.0,0.0,0.0,0.0,0.0,0.0,0.0,0.0,0.0,0.0,0.0,0.0,0.0,0.0,0.0,0.0,0.0,0.0,0.0,0.0,0.0,0.0,0.0,0.0,0.0,0.0,0.0,0.0,0.0,0.0,0.0,0.0,0.0,0.0,0.0,0.0,0.0,0.0,0.0,0.0,0.0,0.0,0.0,0.0,0.0,0.0,0.0,0.0,0.0,0.0,0.0,0.0,0.0,0.0,0.0,0.0,0.0,0.0,0.0,0.0,0.0,0.0,0.0,0.0,3.0785,3.0847,3.0608,3.0174,2.9713,2.9434,0.0,0.0,0.0,0.0,0.0,0.0,0.0,0.0,0.0,0.0,0.0,0.0,0.0,0.0,0.0,0.0,0.0,0.0,0.0,0.0,0.0,0.0,0.0,0.0,0.0,0.0,0.0,0.0,0.0,0.0,0.0,0.0,0.0,0.0,0.0,0.0,0.0,0.0,0.0,0.0,0.0,0.0,0.0,0.0,0.0,0.0,0.0,0.0,0.0,0.0,0.0,0.0,0.0,0.0,0.0,0.0,0.0,0.0,0.0,0.0,0.0,0.0,0.0,0.0,0.0,0.0,0.0,0.0,0.0,0.0,0.0,0.0,0.0,0.0,0.0,0.0,0.0,0.0,0.0,0.0,0.0,0.0,0.0,0.0,0.0,0.0,0.0,0.0,0.0,0.0,0.0,0.0,0.0,0.0,0.0,0.0,0.0,0.0,0.0,0.0,0.0,0.0,0.0,0.0,0.0,0.0,0.0,0.0,3.0515,3.1414,3.1624,3.1548,3.1165,3.0323,2.974,0.0,0.0,0.0,0.0,0.0,0.0,0.0,0.0,0.0,0.0,0.0,0.0,0.0,0.0,0.0,0.0,0.0,0.0,0.0,0.0,0.0,0.0,0.0,0.0,0.0,0.0,0.0,0.0,0.0,0.0,0.0,0.0,0.0,0.0,0.0,0.0,0.0,0.0,0.0,0.0,0.0,0.0,0.0,0.0,0.0,0.0,0.0,0.0,0.0,0.0,0.0,0.0,0.0,0.0,0.0,0.0,0.0,0.0,0.0,0.0,0.0,0.0,0.0,0.0,0.0,0.0,0.0,0.0,0.0,0.0,0.0,0.0,0.0,0.0,0.0,0.0,0.0,0.0,0.0,0.0,0.0,0.0,0.0,0.0,0.0,0.0,0.0,0.0,0.0,0.0,0.0,0.0,0.0,0.0,0.0,0.0,0.0,0.0,0.0,0.0,0.0,0.0,0.0,0.0,0.0,0.0,0.0,0.0,3.1357,3.1852,3.2343,3.2545,3.2345,3.1145,3.0215,0.0,0.0,0.0,0.0,0.0,0.0,0.0,0.0,0.0,0.0,0.0,0.0,0.0,0.0,0.0,0.0,0.0,0.0,0.0,0.0,0.0,0.0,0.0,0.0,0.0,0.0,0.0,0.0,0.0,0.0,0.0,0.0,0.0,0.0,0.0,0.0,0.0,0.0,0.0,0.0,0.0,0.0,0.0,0.0,0.0,0.0,0.0,0.0,0.0,0.0,0.0,0.0,0.0,0.0,0.0,0.0,0.0,0.0,0.0,0.0,0.0,0.0,0.0,0.0,0.0,0.0,0.0,0.0,0.0,0.0,0.0,0.0,0.0,0.0,0.0,0.0,0.0,0.0,0.0,0.0,0.0,0.0,0.0,0.0,0.0,0.0,0.0,0.0,0.0,0.0,0.0,0.0,0.0,0.0,0.0,0.0,0.0,0.0,0.0,0.0,0.0,0.0,0.0,0.0,0.0,0.0,0.0,0.0,3.282,3.3409,3.3873,3.3919,3.3531,3.1957,3.0839,0.0,0.0,0.0,0.0,0.0,0.0,0.0,0.0,0.0,0.0,0.0,0.0,0.0,0.0,0.0,0.0,0.0,0.0,0.0,0.0,0.0,0.0,0.0,0.0,0.0,0.0,0.0,0.0,0.0,0.0,0.0,0.0,0.0,0.0,0.0,0.0,0.0,0.0,0.0,0.0,0.0,0.0,0.0,0.0,0.0,0.0,0.0,0.0,3.0467,0.0,0.0,0.0,0.0,0.0,0.0,0.0,0.0,0.0,0.0,0.0,0.0,0.0,0.0,0.0,0.0,0.0,0.0,0.0,0.0,0.0,0.0,0.0,0.0,0.0,0.0,0.0,0.0,0.0,0.0,0.0,0.0,0.0,0.0,0.0,0.0,0.0,0.0,0.0,0.0,0.0,0.0,0.0,0.0,0.0,0.0,0.0,0.0,0.0,0.0,0.0,0.0,0.0,0.0,0.0,0.0,0.0,0.0,0.0,3.3967,3.4772,3.4933,3.491,3.4604,3.3434,3.2297,0.0,0.0,0.0,0.0,0.0,0.0,0.0,0.0,0.0,0.0,0.0,0.0,0.0,0.0,0.0,0.0,0.0,0.0,0.0,0.0,0.0,0.0,0.0,0.0,0.0,0.0,0.0,0.0,0.0,0.0,0.0,0.0,0.0,0.0,0.0,0.0,0.0,0.0,0.0,0.0,0.0,0.0,0.0,0.0,0.0,0.0,0.0,0.0,0.0,0.0,0.0,0.0,0.0,0.0,0.0,0.0,0.0,0.0,0.0,0.0,0.0,0.0,0.0,0.0,0.0,0.0,0.0,0.0,0.0,0.0,0.0,0.0,0.0,0.0,0.0,0.0,0.0,0.0,0.0,0.0,0.0,0.0,0.0,0.0,0.0,0.0,0.0,0.0,0.0,0.0,0.0,0.0,0.0,0.0,0.0,0.0,0.0,0.0,0.0,0.0,0.0,0.0,0.0,0.0,0.0,0.0,0.0,3.4574,3.5082,3.605,3.6004,3.5894,3.5803,3.5153,3.4157,3.2665,0.0,0.0,0.0,0.0,0.0,0.0,0.0,0.0,0.0,0.0,0.0,0.0,0.0,0.0,0.0,0.0,0.0,0.0,0.0,0.0,0.0,0.0,0.0,0.0,0.0,0.0,0.0,0.0,0.0,0.0,0.0,0.0,0.0,0.0,0.0,0.0,0.0,0.0,3.1428,3.1782,0.0,0.0,0.0,0.0,0.0,0.0,0.0,0.0,3.2828,0.0,0.0,0.0,0.0,0.0,0.0,0.0,0.0,0.0,0.0,0.0,0.0,0.0,0.0,0.0,0.0,0.0,0.0,0.0,0.0,0.0,0.0,0.0,0.0,0.0,0.0,0.0,0.0,0.0,0.0,0.0,0.0,0.0,0.0,0.0,0.0,0.0,0.0,0.0,0.0,0.0,0.0,0.0,0.0,0.0,0.0,0.0,0.0,0.0,0.0,0.0,0.0,0.0,0.0,0.0,0.0,3.5222,3.5967,3.672,3.7468,3.7806,3.7761,3.7259,3.6603,3.5869,3.4994,0.0,0.0,0.0,0.0,0.0,0.0,0.0,0.0,0.0,0.0,0.0,0.0,0.0,0.0,0.0,0.0,0.0,0.0,0.0,0.0,0.0,0.0,0.0,0.0,0.0,0.0,0.0,0.0,0.0,0.0,0.0,0.0,0.0,0.0,0.0,0.0,0.0,0.0,0.0,3.1632,3.1589,0.0,0.0,0.0,0.0,0.0,0.0,0.0,0.0,3.3562,0.0,0.0,0.0,0.0,0.0,0.0,0.0,0.0,0.0,0.0,0.0,0.0,0.0,0.0,0.0,0.0,0.0,0.0,0.0,0.0,0.0,0.0,0.0,0.0,0.0,0.0,0.0,0.0,0.0,0.0,0.0,0.0,0.0,0.0,0.0,0.0,0.0,0.0,0.0,0.0,0.0,0.0,0.0,0.0,0.0,0.0,0.0,0.0,0.0,0.0,0.0,0.0,0.0,0.0,0.0,3.696,3.7345,3.7952,3.8856,3.9035,3.892,3.8536,3.7558,3.6808,0.0,0.0,0.0,0.0,0.0,0.0,0.0,0.0,0.0,0.0,0.0,0.0,0.0,0.0,0.0,0.0,0.0,0.0,0.0,0.0,0.0,0.0,0.0,0.0,0.0,0.0,0.0,0.0,0.0,0.0,0.0,0.0,0.0,0.0,0.0,0.0,0.0,0.0,0.0,0.0,3.3006,3.2976,3.269,0.0,0.0,0.0,0.0,0.0,0.0,3.4795,3.4524,0.0,0.0,0.0,0.0,0.0,0.0,0.0,0.0,0.0,0.0,0.0,0.0,0.0,0.0,0.0,0.0,0.0,0.0,0.0,0.0,0.0,0.0,0.0,0.0,0.0,0.0,0.0,0.0,0.0,0.0,0.0,0.0,0.0,0.0,0.0,0.0,0.0,0.0,0.0,0.0,0.0,0.0,0.0,0.0,0.0,0.0,0.0,0.0,0.0,0.0,0.0,0.0,0.0,0.0,0.0,3.8344,3.835,3.8904,4.0015,3.9985,3.9788,3.9559,3.8316,3.7556,0.0,0.0,0.0,0.0,0.0,0.0,0.0,0.0,0.0,0.0,0.0,0.0,0.0,0.0,0.0,0.0,0.0,0.0,0.0,0.0,0.0,0.0,0.0,0.0,0.0,0.0,0.0,0.0,0.0,0.0,0.0,0.0,0.0,0.0,0.0,0.0,0.0,0.0,0.0,0.0,0.0,3.4531,3.3753,3.4008,0.0,0.0,0.0,0.0,3.5668,3.5742,0.0,0.0,0.0,0.0,0.0,0.0,0.0,0.0,0.0,0.0,0.0,0.0,0.0,0.0,0.0,0.0,0.0,0.0,0.0,0.0,0.0,0.0,0.0,0.0,0.0,0.0,0.0,0.0,0.0,0.0,0.0,0.0,0.0,0.0,0.0,0.0,0.0,0.0,0.0,0.0,0.0,0.0,0.0,0.0,0.0,0.0,0.0,0.0,0.0,0.0,0.0,0.0,0.0,0.0,0.0,0.0,3.7997,3.8443,3.9305,4.0619,4.0662,4.0509,4.0095,3.8968,3.8213,0.0,0.0,0.0,0.0,0.0,0.0,0.0,0.0,0.0,0.0,0.0,0.0,0.0,0.0,0.0,0.0,0.0,0.0,0.0,0.0,0.0,0.0,0.0,0.0,0.0,0.0,0.0,0.0,0.0,0.0,0.0,0.0,0.0,0.0,0.0,0.0,0.0,0.0,0.0,0.0,0.0,3.5189,3.5967,3.5836,3.5716,0.0,0.0,3.5887,3.6317,3.6246,0.0,0.0,0.0,0.0,0.0,0.0,0.0,0.0,0.0,0.0,0.0,0.0,0.0,0.0,0.0,0.0,0.0,0.0,0.0,0.0,0.0,0.0,0.0,0.0,0.0,0.0,0.0,0.0,0.0,0.0,0.0,0.0,0.0,0.0,0.0,0.0,0.0,0.0,0.0,0.0,0.0,0.0,0.0,0.0,0.0,0.0,0.0,0.0,0.0,0.0,0.0,0.0,0.0,0.0,0.0,3.746,3.8811,3.947,4.0219,4.1042,4.1088,4.0919,4.0543,3.9318,3.8573,0.0,0.0,0.0,0.0,0.0,0.0,0.0,0.0,0.0,0.0,0.0,0.0,0.0,0.0,0.0,0.0,0.0,0.0,0.0,0.0,0.0,0.0,0.0,0.0,0.0,0.0,0.0,0.0,0.0,0.0,0.0,0.0,0.0,0.0,0.0,0.0,0.0,0.0,0.0,0.0,0.0,0.0,3.67,3.7297,0.0,0.0,0.0,3.7725,3.7896,0.0,0.0,0.0,0.0,0.0,0.0,0.0,0.0,0.0,0.0,0.0,0.0,0.0,0.0,0.0,0.0,0.0,0.0,0.0,0.0,0.0,0.0,0.0,0.0,0.0,0.0,0.0,0.0,0.0,0.0,0.0,0.0,0.0,0.0,0.0,0.0,0.0,0.0,0.0,0.0,0.0,0.0,0.0,0.0,0.0,0.0,0.0,0.0,0.0,0.0,0.0,0.0,0.0,0.0,0.0,0.0,0.0,3.9596,4.0309,4.0909,4.1407,4.139,4.1256,4.0904,3.9613,0.0,0.0,0.0,0.0,0.0,0.0,0.0,0.0,0.0,0.0,0.0,0.0,0.0,0.0,0.0,0.0,0.0,0.0,0.0,0.0,0.0,0.0,0.0,0.0,0.0,0.0,0.0,3.397,0.0,0.0,0.0,0.0,0.0,0.0,0.0,0.0,0.0,0.0,0.0,0.0,0.0,0.0,3.7164,3.7334,3.8354,3.8884,0.0,0.0,3.9032,3.9067,3.8895,3.8387,0.0,0.0,0.0,0.0,0.0,0.0,0.0,0.0,0.0,0.0,0.0,0.0,0.0,0.0,0.0,0.0,0.0,0.0,0.0,0.0,0.0,0.0,0.0,0.0,0.0,0.0,0.0,0.0,0.0,0.0,0.0,0.0,0.0,0.0,0.0,0.0,0.0,0.0,0.0,0.0,0.0,0.0,0.0,0.0,0.0,0.0,0.0,0.0,0.0,0.0,0.0,0.0,0.0,0.0,0.0,3.9903,4.0514,4.1135,4.1834,4.167,4.1489,4.1258,3.9973,3.9171,0.0,0.0,0.0,0.0,0.0,0.0,0.0,0.0,0.0,0.0,0.0,0.0,0.0,0.0,0.0,0.0,0.0,0.0,0.0,0.0,0.0,0.0,0.0,0.0,0.0,0.0,0.0,0.0,0.0,0.0,0.0,0.0,0.0,0.0,0.0,0.0,0.0,0.0,0.0,0.0,0.0,3.756,3.8304,3.8895,3.9253,0.0,0.0,3.9067,3.9268,3.8629,3.8105,3.8165,0.0,0.0,0.0,0.0,0.0,0.0,0.0,0.0,0.0,0.0,0.0,0.0,0.0,0.0,0.0,0.0,0.0,0.0,0.0,0.0,0.0,0.0,0.0,0.0,0.0,0.0,0.0,0.0,0.0,0.0,0.0,0.0,0.0,0.0,0.0,0.0,0.0,0.0,0.0,0.0,0.0,0.0,0.0,0.0,0.0,0.0,0.0,0.0,0.0,0.0,0.0,0.0,0.0,3.8837,4.0404,4.1538,4.2171,4.2317,4.2254,4.2126,4.198,4.1039,4.0197,0.0,0.0,0.0,0.0,0.0,0.0,0.0,0.0,0.0,0.0,0.0,0.0,0.0,0.0,0.0,0.0,0.0,0.0,0.0,0.0,0.0,0.0,0.0,0.0,0.0,0.0,0.0,0.0,3.6571,3.715,3.7403,0.0,0.0,0.0,0.0,0.0,0.0,0.0,0.0,0.0,0.0,3.7924,3.8985,3.964,0.0,0.0,3.9968,3.9933,4.0036,3.9416,3.88,3.8486,3.7497,0.0,0.0,0.0,0.0,0.0,0.0,0.0,0.0,0.0,0.0,0.0,0.0,0.0,0.0,0.0,0.0,0.0,0.0,0.0,0.0,0.0,0.0,0.0,0.0,0.0,0.0,0.0,0.0,0.0,0.0,0.0,0.0,0.0,0.0,0.0,0.0,0.0,0.0,0.0,0.0,0.0,0.0,0.0,0.0,0.0,0.0,0.0,0.0,0.0,0.0,0.0,0.0,3.9576,4.0922,4.2302,4.2959,4.2818,4.2772,4.2711,4.2618,4.186,4.1092,0.0,0.0,0.0,0.0,0.0,0.0,0.0,0.0,0.0,0.0,0.0,0.0,0.0,0.0,0.0,0.0,0.0,0.0,0.0,0.0,0.0,0.0,0.0,0.0,0.0,0.0,0.0,0.0,3.7329,3.7831,3.7905,0.0,0.0,0.0,0.0,0.0,0.0,0.0,0.0,0.0,0.0,3.8773,3.9637,4.0229,4.0593,4.0593,4.0524,4.0539,4.0558,3.9868,3.9223,3.8994,0.0,0.0,0.0,0.0,0.0,0.0,0.0,0.0,0.0,0.0,0.0,0.0,0.0,0.0,0.0,0.0,0.0,0.0,0.0,0.0,0.0,0.0,0.0,0.0,0.0,0.0,0.0,3.5834,0.0,0.0,3.5667,0.0,0.0,0.0,0.0,0.0,0.0,0.0,0.0,0.0,0.0,0.0,0.0,0.0,0.0,0.0,0.0,0.0,0.0,0.0,0.0,0.0,0.0,3.9934,4.1364,4.267,4.3306,4.3306,4.3188,4.3096,4.305,4.2241,4.1789,4.1743,0.0,0.0,0.0,0.0,0.0,0.0,0.0,0.0,0.0,0.0,0.0,0.0,0.0,0.0,0.0,0.0,0.0,0.0,0.0,0.0,0.0,0.0,0.0,0.0,0.0,0.0,3.7102,3.7713,3.8173,0.0,0.0,0.0,0.0,0.0,0.0,0.0,0.0,0.0,0.0,3.9503,4.0256,4.0303,4.06,4.0799,4.0783,4.0627,4.0593,4.0765,3.9714,3.908,0.0,0.0,0.0,0.0,0.0,0.0,0.0,0.0,0.0,0.0,0.0,0.0,0.0,0.0,0.0,0.0,0.0,0.0,0.0,0.0,0.0,0.0,0.0,0.0,0.0,0.0,0.0,3.8178,3.7703,0.0,0.0,0.0,0.0,0.0,0.0,0.0,0.0,0.0,0.0,0.0,4.2428,4.2801,0.0,0.0,0.0,0.0,0.0,0.0,0.0,0.0,0.0,0.0,0.0,0.0,4.1245,4.2159,4.3564,4.4236,4.4088,4.4059,4.3931,4.3789,4.3481,4.294,4.215,0.0,0.0,0.0,0.0,0.0,0.0,0.0,0.0,0.0,0.0,0.0,0.0,0.0,0.0,0.0,0.0,0.0,0.0,0.0,0.0,0.0,0.0,0.0,0.0,0.0,3.753,0.0,0.0,0.0,0.0,0.0,0.0,0.0,0.0,0.0,0.0,0.0,3.9441,4.0373,4.0842,4.115,4.126,4.1399,4.1392,0.0,0.0,0.0,0.0,0.0,0.0,0.0,0.0,0.0,0.0,0.0,0.0,0.0,0.0,3.8103,3.7718,3.7653,3.7592,3.7313,0.0,0.0,0.0,0.0,0.0,0.0,0.0,0.0,0.0,0.0,0.0,0.0,0.0,0.0,4.0337,0.0,3.9831,0.0,0.0,0.0,0.0,0.0,0.0,0.0,0.0,4.2843,4.3481,4.391,4.402,4.4189,0.0,4.4378,4.3448,0.0,0.0,0.0,0.0,0.0,0.0,0.0,0.0,4.1929,4.2601,4.4092,4.4814,4.4686,4.4686,4.4575,4.4423,4.4384,4.3831,4.2703,4.1205,4.0082,0.0,0.0,0.0,0.0,0.0,0.0,0.0,0.0,0.0,0.0,0.0,0.0,0.0,0.0,0.0,0.0,0.0,0.0,0.0,0.0,0.0,0.0,0.0,3.8732,0.0,0.0,0.0,0.0,0.0,0.0,0.0,0.0,0.0,3.991,4.0308,4.0992,4.1838,4.2122,4.225,4.2331,0.0,0.0,0.0,0.0,0.0,0.0,0.0,4.0865,4.1326,4.0767,4.0354,4.0626,4.0483,4.0246,3.9977,0.0,0.0,3.8944,3.8704,3.8606,3.8606,3.849,3.8358,3.8358,3.8277,3.8177,0.0,0.0,0.0,0.0,0.0,0.0,0.0,0.0,4.376,4.3611,0.0,4.2202,0.0,0.0,0.0,0.0,4.1008,4.1819,0.0,0.0,4.4187,4.4498,4.4404,4.4422,4.4822,4.5622,4.5584,4.5549,4.5404,4.2775,0.0,0.0,0.0,0.0,0.0,0.0,4.1997,4.2774,4.4253,4.5005,4.5005,4.5005,4.5005,4.5005,4.4869,4.4364,4.3525,4.3379,4.2398,4.0333,3.9228,0.0,0.0,0.0,0.0,0.0,0.0,0.0,0.0,0.0,0.0,0.0,0.0,0.0,0.0,0.0,0.0,0.0,0.0,0.0,0.0,4.0393,0.0,0.0,0.0,0.0,0.0,0.0,0.0,0.0,0.0,0.0,4.0819,4.2055,4.2987,4.2896,0.0,0.0,0.0,0.0,4.2632,4.2617,4.2349,4.227,4.2618,4.2082,4.1949,4.2867,0.0,0.0,4.1055,4.045,4.029,4.0706,4.1356,4.1243,3.985,3.9372,3.913,3.9066,3.9013,3.871,3.8664,3.8882,3.8787,4.4684,0.0,0.0,0.0,0.0,4.3596,4.3734,4.4157,4.4647,4.4632,4.4202,4.4163,0.0,0.0,0.0,0.0,0.0,0.0,4.4594,4.5287,4.5509,4.5837,4.6271,4.6288,4.6436,4.6655,4.6758,4.6471,4.5855,4.4956,4.3646,4.1973,0.0,0.0,0.0,0.0,4.3156,4.3855,4.4792,4.5291,4.5291,4.5291,4.5247,4.5123,4.5005,4.4821,4.4545,4.4034,4.3454,4.2807,4.0984,0.0,0.0,0.0,0.0,0.0,0.0,0.0,0.0,0.0,0.0,0.0,0.0,0.0,0.0,0.0,0.0,0.0,0.0,0.0,4.0968,4.124,4.0866,0.0,0.0,0.0,0.0,0.0,0.0,0.0,0.0,0.0,4.3045,4.3321,4.366,0.0,0.0,4.435,4.4064,4.3902,4.3697,4.3353,4.3232,0.0,4.3998,4.3899,4.4092,4.5036,4.483,4.4527,4.4402,4.4191,4.4125,4.4259,4.4282,4.4074,4.3654,4.2891,4.2338,4.2286,4.2252,4.2011,4.1437,4.1263,4.1055,4.6692,4.5928,4.4216,4.4129,4.51,4.5052,4.5329,4.5822,4.615,4.6317,4.6261,4.5972,4.5845,4.5827,4.55,0.0,0.0,0.0,4.6021,4.639,4.6672,4.6963,4.7345,4.7323,4.7407,4.7436,4.7472,4.7219,4.6774,4.6518,4.5606,4.4063,0.0,0.0,4.2801,4.3489,4.4054,4.4464,4.5131,4.5476,4.5459,4.5423,4.5371,4.5274,4.5194,4.5157,4.514,4.4755,4.4334,4.4052,4.2423,4.0962,0.0,0.0,0.0,0.0,0.0,0.0,0.0,0.0,0.0,0.0,0.0,3.6393,3.7506,0.0,0.0,0.0,4.0192,4.1467,4.1679,4.197,0.0,0.0,0.0,0.0,0.0,0.0,0.0,4.2107,4.2971,4.3683,4.413,4.4283,4.4536,4.4899,4.4951,4.4988,4.501,0.0,4.4918,4.4955,4.4917,4.5039,4.55,4.5613,4.5798,4.6297,4.626,4.6074,4.592,4.5906,4.5889,4.5812,4.5871,4.5958,4.591,4.5619,4.5034,4.4129,4.3812,4.3516,4.2968,4.2905,4.2711,4.8401,4.8384,4.6539,4.5785,4.5935,4.6743,4.7129,4.7184,4.7957,4.8307,4.827,4.7554,4.7205,4.7187,4.6452,0.0,4.6048,4.6856,4.7093,4.6994,4.7705,4.7949,4.7762,4.7762,4.7847,4.8032,4.7866,4.7866,4.7974,4.7582,4.6942,4.6133,4.483,4.4038,4.3818,4.4415,4.4756,4.4826,4.5346,4.5632,4.5589,4.5476,4.5414,4.5397,4.5414,4.5397,4.5414,4.5397,4.507,4.4432,4.3563,4.2404,4.091,0.0,0.0,0.0,0.0,0.0,0.0,0.0,0.0,0.0,0.0,0.0,0.0,0.0,0.0,0.0,4.1711,0.0,4.2078,4.2661,0.0,0.0,0.0,4.1714,4.1739,4.2508,4.3022,4.3074,0.0,0.0,4.4397,4.4992,4.5388,4.5316,4.5306,4.5493,4.6086,4.6084,4.6289,4.6856,4.6893,4.6898,4.702,4.7151,4.724,4.7179,4.6895,4.6754,4.6497,4.6422,4.6293,4.6248,4.6621,4.7054,4.7038,4.7487,4.7309,4.5091,4.4411,4.409,4.4011,4.396,4.3844,4.8605,4.8697,4.8218,4.796,4.7905,4.8145,4.8219,4.8237,4.844,4.8532,4.8532,4.8329,4.8237,4.8237,4.8052,4.796,4.796,4.8145,4.8237,4.8182,4.8309,4.8362,4.8304,4.8304,4.8323,4.8381,4.8382,4.8326,4.8229,4.807,4.7756,4.7286,4.6852,4.606,4.4947,4.4986,4.524,4.5683,4.5742,4.571,4.5607,4.5476,4.5414,4.5414,4.5414,4.5414,4.5414,4.5414,4.5311,4.5104,4.4397,4.3294,4.1778,4.0961,0.0,0.0,0.0,0.0,0.0,0.0,0.0,0.0,0.0,3.8286,3.9829,0.0,4.1231,0.0,4.2909,4.3915,4.3725,4.388,0.0,0.0,4.2735,4.2839,4.2814,4.2994,4.3381,4.3932,4.4165,4.4509,4.507,4.5276,4.5638,4.6163,4.6266,4.6318,4.647,4.6959,4.7299,4.7375,4.7404,4.7541,4.8134,4.8682,4.9008,4.9,4.8745,4.8551,4.8491,4.8368,4.8276,4.8245,4.8303,4.8344,4.8327,4.8289,4.7998,4.739,4.7111,4.6716,4.5945,4.5632,4.5235,4.8767,4.8839,4.8857,4.8804,4.8732,4.8732,4.8713,4.8732,4.8713,4.8732,4.8732,4.875,4.8732,4.8732,4.8732,4.875,4.8732,4.8713,4.8732,4.8678,4.8642,4.8606,4.855,4.855,4.8587,4.8624,4.8605,4.8587,4.8513,4.84,4.8207,4.797,4.7788,4.728,4.6413,4.5754,4.5511,4.5732,4.583,4.5795,4.5607,4.5511,4.5303,4.4923,4.4906,4.4768,4.4423,4.4423,4.4423,4.4406,4.4052,4.3276,4.2068,4.1595,4.0567,0.0,0.0,0.0,0.0,0.0,0.0,0.0,0.0,0.0,0.0,0.0,4.2169,4.2857,4.376,4.4311,4.4311,4.4311,4.4018,4.3276,4.35,4.3707,4.369,4.3983,4.432,4.4751,4.4785,4.4941,4.5345,4.5707,4.6069,4.6562,4.7165,4.7596,4.7586,4.7948,4.8282,4.8552,4.861,4.8713,4.9189,4.9555,4.9801,4.9708,4.956,4.9411,4.935,4.9216,4.9077,4.9094,4.897,4.8894,4.8894,4.8721,4.8547,4.8547,4.85,4.8126,4.7292,4.6947,4.6518,4.889,4.889,4.889,4.889,4.889,4.889,4.889,4.889,4.889,4.889,4.889,4.889,4.889,4.889,4.889,4.889,4.889,4.889,4.8856,4.8804,4.8804,4.875,4.8623,4.8642,4.8696,4.8804,4.8678,4.8715,4.8805,4.8624,4.8476,4.8344,4.817,4.7957,4.7672,4.6542,4.5798,4.554,4.5846,4.5871,4.5615,4.5607,4.5174,4.4363,4.4311,4.3949,4.3224,4.3276,4.3345,4.3345,4.3431,4.3138,4.2361,4.2292,4.1378,0.0,3.9784,0.0,0.0,0.0,0.0,0.0,0.0,0.0,0.0,4.224,4.2871,4.4328,4.4432,4.4449,4.4449,4.4449,4.419,4.3586,4.4069,4.4449,4.4466,4.5027,4.5414,4.5414,4.5414,4.5414,4.5432,4.6086,4.6613,4.6828,4.7879,4.8689,4.8913,4.893,4.9189,4.9924,5.0011,4.9826,4.9878,4.9947,4.9935,4.9784,4.9708,4.9649,4.9547,4.9381,4.9229,4.9199,4.9077,4.9032,4.9001,4.9001,4.9001,4.897,4.894,4.8753,4.8211,4.7885,4.7704,4.889,4.889,4.889,4.889,4.889,4.889,4.889,4.889,4.889,4.889,4.889,4.889,4.889,4.889,4.889,4.889,4.889,4.889,4.8891,4.8891,4.8874,4.8874,4.8856,4.8838,4.8838,4.8874,4.8856,4.8821,4.8804,4.8769,4.8678,4.8532,4.8495,4.8052,4.7258,0.0,0.0,0.0,4.6059,4.5905,4.5787,4.5641,4.5174,4.4345,4.4311,0.0,4.3258,4.3776,4.4104,4.4121,4.4665,0.0,0.0,0.0,0.0,0.0,0.0,0.0,0.0,0.0,0.0,0.0,4.2482,4.2516,4.293,4.3517,4.4234,4.5087,4.519,4.5173,4.5173,4.519,4.5121,4.5027,4.5113,4.519,4.519,4.5311,4.5414,4.5414,4.5414,4.5414,4.5483,4.6086,4.6837,4.7458,4.8224,4.9016,4.9683,4.9735,4.9838,4.9993,5.0011,5.0011,5.0011,5.0011,5.0011,4.9935,4.9801,4.9725,4.9649,4.953,4.9381,4.926,4.9199,4.9107,4.9032,4.9018,4.9018,4.9018,4.9018,4.894,4.8707,4.85,4.826,4.889,4.889,4.889,4.889,0.0,4.889,4.889,4.889,4.889,4.889,4.889,4.889,4.889,4.889,4.889,4.889,4.889,4.889,4.889,4.889,4.889,4.889,4.889,4.889,4.889,4.889,4.889,4.8891,4.8857,4.8857,4.8821,4.8731,4.8732,4.842,4.7832,4.7548,4.7008,4.6265,4.633,4.6343,4.6204,4.6055,4.5563,4.4732,4.4622,0.0,0.0,0.0,0.0,0.0,0.0,0.0,0.0,4.3759,0.0,4.3241,4.3207,4.3207,4.3224,4.3534,4.3741,4.3741,4.4087,4.4113,4.3776,4.4406,4.501,4.5363,4.5414,4.5414,4.5414,4.5414,4.5414,4.5414,4.5414,4.5414,4.5414,4.5414,4.5414,4.5414,4.5414,4.5518,4.5949,4.6665,4.7396,4.8137,4.8924,4.9545,4.9907,5.0011,5.0011,5.0011,5.0011,5.0011,5.0011,5.0011,5.0011,4.9982,4.9935,4.986,4.986,4.9725,4.953,4.9381,4.926,4.9168,4.9032,4.9018,4.9018,4.9018,4.9018,4.897,4.8894,4.8753,4.8564,4.889,4.889,4.889,4.889,4.889,4.889,4.889,4.889,4.889,0.0,0.0,4.889,4.889,4.889,4.889,4.889,4.889,4.889,4.889,4.889,4.889,4.889,4.889,4.889,4.889,4.889,4.889,4.889,4.889,4.889,4.889,4.8891,4.8857,4.8769,4.8624,4.8153,4.7445,4.6576,4.6735,4.6778,4.6661,4.6666,4.6246,4.5393,4.5396,4.5348,4.5201,4.5077,4.4997,4.4972,4.4983,4.4699,4.4111,4.3963,4.3894,4.3919,4.3806,4.3719,4.3737,4.4283,4.4578,4.4526,4.5105,4.5191,4.4535,4.5061,4.5414,4.5414,4.5414,4.5414,4.5414,4.5414,4.5414,4.5414,4.5414,4.5414,4.5414,4.5414,4.5414,4.5414,4.5414,4.569,4.6475,4.7189,4.7965,4.8689,4.9413,5.0011,5.0011,5.0011,5.0011,5.0011,5.0011,5.0011,5.0011,5.0011,5.0011,5.0011,5.0011,5.0011,4.9964,4.9813,4.9649,4.9518,4.932,4.9168,4.9032,4.9018,4.9018,4.9018,4.9018,4.9018,4.9018,4.8925,4.8769,4.889,4.889,4.889,4.889,4.889,4.889,4.889,4.889,4.889,4.889,4.889,4.889,4.889,4.889,4.889,4.889,4.889,4.889,4.889,4.889,4.889,4.889,4.889,4.889,4.889,4.889,4.889,4.889,4.889,4.889,4.889,4.889,4.8891,4.8839,4.8769,4.8532,4.8326,4.8158,4.7424,4.6994,4.688,4.7459,4.7346,4.6484,4.705,4.7037,4.6323,4.6752,4.6928,4.6844,4.7317,4.7508,4.7386,4.6873,4.6628,4.6618,4.609,4.5779,4.5772,4.576,4.5672,4.5433,4.5511,4.5477,4.5268,4.5328,4.5414,4.5414,4.5414,4.5414,4.5414,4.5414,4.5414,4.5414,4.5414,4.5414,4.5414,4.5414,4.5414,4.5414,4.5414,4.5725,4.6552,4.7303,4.8062,4.8741,4.9516,5.0011,5.0011,5.0011,5.0011,5.0011,5.0011,5.0011,5.0011,5.0011,5.0011,5.0011,5.0011,5.0011,4.9964,4.9813,4.9649,4.9518,4.932,4.9168,4.9032,4.9018,4.9018,4.9018,4.9018,4.9018,4.9018,4.897,4.8925,4.8857,4.8857,4.8891,4.889,4.889,4.889,4.889,4.889,4.889,4.889,4.889,4.889,4.889,4.889,4.889,4.889,4.889,4.889,4.889,4.889,4.889,4.889,4.889,4.889,4.889,4.889,4.889,4.889,4.889,4.889,4.889,4.889,4.8856,4.884,4.8787,4.8642,4.879,4.9214,4.865,4.8321,4.8275,4.8948,4.9117,4.8676,4.8938,4.9062,4.9052,4.9054,4.9022,4.8879,4.9002,4.8864,4.8382,4.7716,4.7321,4.7286,4.6618,4.6211,4.6211,4.6137,4.6013,4.5811,4.5821,4.5727,4.5528,4.545,4.5414,4.5414,4.5414,4.5414,4.5414,4.5414,4.5414,4.5414,4.5414,4.5414,4.5414,4.5414,4.5414,4.5449,4.5793,4.6355,4.7113,4.7827,4.8568,4.9309,4.9809,5.0011,5.0011,5.0011,5.0011,5.0011,5.0011,5.0011,5.0011,5.0011,5.0011,5.0011,5.0011,4.9935,4.986,4.9737,4.9619,4.9381,4.926,4.9138,4.9032,4.9018,4.9018,4.9018,4.9018,4.9018,4.9018,4.9018,4.8956,4.8769,4.8769,4.8803,4.882,4.8856,4.8855,4.8855,4.8874,4.8891,4.889,4.889,4.889,4.889,4.889,4.889,4.889,4.889,4.889,4.889,4.889,4.889,4.889,4.889,4.889,4.889,4.889,4.889,4.889,4.889,4.889,4.889,4.8891,4.8857,4.8841,4.8822,4.8899,4.927,4.9917,5.0041,4.9994,4.977,5.0419,5.0759,5.0759,5.0794,5.1027,5.1546,5.1171,5.088,5.0733,5.046,4.9991,4.9315,4.8405,4.7918,4.783,4.7049,4.6507,4.6435,4.6411,4.6315,4.6161,4.6087,4.593,4.5667,4.5511,4.5423,4.5397,4.5414,4.5414,4.5414,4.5414,4.5414,4.5414,4.5414,4.5414,4.5414,4.5414,4.5414,4.5483,4.613,4.6872,4.7586,4.8327,4.9051,4.9752,5.0011,5.0011,5.0011,5.0011,5.0011,5.0011,5.0011,5.0011,5.0011,5.0011,5.0011,5.0011,5.0011,4.9906,4.9784,4.9679,4.953,4.929,4.9168,4.9124,4.9032,4.9018,4.9018,4.9018,4.9018,4.9018,4.9018,4.9018,4.8987,4.8605,4.8605,4.8642,4.8642,4.866,4.875,4.8804,4.8804,4.8874,4.889,4.8873,4.889,4.889,4.889,4.889,4.889,4.889,4.889,4.889,4.889,4.889,4.889,4.889,4.889,4.889,4.889,4.889,4.889,4.889,4.889,4.889,4.889,4.8891,4.891,4.8984,4.9579,5.0006,5.0118,5.1547,5.1823,5.0888,5.1485,5.1846,5.1846,5.2485,5.2825,5.2794,5.2567,5.2281,5.2047,5.1772,5.1551,5.1273,5.0175,4.9469,4.9398,4.8231,4.7468,4.7214,4.7084,4.6875,4.659,4.6308,4.6062,4.5811,4.5667,4.5528,4.5423,4.5414,4.5414,4.5414,4.5414,4.5414,4.5414,4.5414,4.5414,4.5414,4.5414,4.5414,4.5414,4.6138,4.6889,4.762,4.8396,4.9137,4.989,5.0011,5.0011,5.0011,5.0011,5.0011,5.0011,5.0011,5.0011,5.0011,5.0011,5.0011,5.0011,5.0011,4.9906,4.9755,4.959,4.9441,4.9229,4.9124,4.9032,4.9001,4.9018,4.9018,4.9018,4.9018,4.9018,4.9018,4.9018,4.9018,4.8532,4.855,4.8587,4.8587,4.8605,4.866,4.8678,4.8678,4.8695,4.8732,4.8732,4.8804,4.8875,4.889,4.889,4.889,4.889,4.889,4.889,4.889,4.889,4.889,4.889,4.889,4.889,4.889,4.889,4.889,4.889,4.889,4.889,4.889,4.889,4.9169,4.9652,4.9968,5.058,5.1565,5.2252,5.2586,5.2639,5.2895,5.306,5.3097,5.3333,5.3439,5.3378,5.3151,5.29,5.268,5.2499,5.2315,5.212,5.1169,5.0426,4.9902,4.8439,4.7533,4.7446,4.7272,4.707,4.6824,4.659,4.6301,4.5963,4.5778,4.5632,4.545,4.5414,4.5414,4.5414,4.5414,4.5414,4.5414,4.5414,4.5414,4.5414,4.5414,4.5414,4.5483,4.6483,4.7355,4.7775,4.8758,4.9579,4.9959,5.0011,5.0011,5.0011,5.0011,5.0011,5.0011,5.0011,5.0011,5.0011,5.0011,5.0011,5.0011,5.0011,4.9906,4.9666,4.953,4.9428,4.9107,4.9063,4.9018,4.9001,4.9018,4.9018,4.9018,4.9018,4.9018,4.9018,4.9018,4.9018,4.8438,4.8457,4.8495,4.8514,4.8514,4.855,4.8569,4.8569,4.8587,4.8587,4.8605,4.8715,4.8768,4.882,4.8855,4.889,4.889,4.889,4.889,4.889,4.889,4.889,4.889,4.889,4.889,4.889,4.889,4.889,4.889,4.889,4.889,4.889,4.889,4.9317,5.0098,5.032,5.1156,5.2475,5.281,5.3218,5.3701,5.3813,5.3813,5.3813,5.3736,5.3734,5.3733,5.3519,5.3316,5.3088,5.2959,5.2783,5.2504,5.1837,5.0987,4.9995,4.8545,4.766,4.76,4.7359,4.716,4.6998,4.6684,4.6357,4.6055,4.5846,4.5658,4.5467,4.5414,4.5414,4.5414,4.5414,4.5414,4.5414,4.5414,4.5414,4.5414,4.5414,4.5414,4.5535,4.669,4.7896,4.8361,4.9304,4.9976,4.9993,5.0011,5.0011,5.0011,5.0011,5.0011,5.0011,5.0011,5.0011,5.0011,5.0011,5.0011,5.0011,4.9982,4.9877,4.9594,4.9518,4.9398,4.9107,4.9063,4.9018,4.9018,4.9018,4.9018,4.9018,4.9018,4.9018,4.9018,4.9018,4.9018,4.8306,4.8306,4.8324,4.8343,4.8325,4.8457,4.8513,4.8513,4.8569,4.8587,4.8587,4.8605,4.8605,4.8623,4.8803,4.8891,4.8873,4.8873,4.8891,4.8891,4.889,4.889,4.889,4.889,4.889,4.889,4.889,4.889,4.889,4.889,4.889,4.889,4.8946,4.9355,5.0172,5.0971,5.1751,5.2642,5.333,5.3738,5.3794,5.3813,5.3813,5.3813,5.3793,5.3775,5.3774,5.3734,5.3558,5.3297,5.3193,5.3063,5.2773,5.2105,5.1096,4.9788,4.8701,4.803,4.777,4.7454,4.7187,4.6957,4.6518,4.6161,4.5988,4.5752,4.5581,4.5423,4.5414,4.5414,4.5414,4.5414,4.5414,4.5414,4.5414,4.5414,4.5414,4.5414,4.5414,4.5673,4.6862,4.8241,4.9614,4.9942,4.9993,5.0011,5.0011,5.0011,5.0011,5.0011,5.0011,5.0011,5.0011,5.0011,5.0011,5.0011,5.0011,5.0011,4.9964,4.9877,4.9683,4.9458,4.926,4.9107,4.9063,4.9018,4.9018,4.9018,4.9018,4.9018,4.9018,4.9018,4.9018,4.9018,4.9018,4.8324,4.8324,4.8324,4.8324,4.8306,4.8363,4.8382,4.8382,4.8401,4.842,4.8439,4.8476,4.855,4.8513,4.866,4.8695,4.8695,4.8804,4.8821,4.884,4.8874,4.889,4.889,4.889,4.889,4.889,4.889,4.889,4.889,4.889,4.889,4.902,4.9485,5.0135,5.0952,5.1751,5.2568,5.3311,5.3683,5.3813,5.3813,5.3813,5.3813,5.3813,5.3813,5.3813,5.3813,5.3735,5.3598,5.342,5.3336,5.3212,5.2953,5.1857,5.0904,5.0206,4.88,4.785,4.7621,4.7214,4.6916,4.6731,4.635,4.6013,4.5879,4.5718,4.5554,4.5423,4.5414,4.5414,4.5414,4.5414,4.5414,4.5414,4.5414,4.5414,4.5414,4.5414,4.5587,4.6224,4.7493,4.881,4.9648,5.0011,5.0011,5.0011,5.0011,5.0011,5.0011,5.0011,5.0011,5.0011,5.0011,5.0011,5.0011,5.0011,5.0011,5.0011,4.9935,4.9801,4.9607,4.9518,4.9367,4.9094,4.9001,4.9018,4.9018,4.9018,4.9018,4.9018,4.9018,4.9018,4.9018,4.9018,4.9018,4.8324,4.8324,4.8324,4.8324,4.8324,4.8324,4.8324,4.8324,4.8324,4.8324,4.8324,4.8401,4.8438,4.8457,4.8476,4.8513,4.8514,4.8642,4.8732,4.8732,4.8786,4.8839,4.8856,4.8856,4.8892,4.889,4.889,4.889,4.889,4.889,4.889,4.8946,4.9522,5.032,5.1305,5.1955,5.2698,5.3571,5.3813,5.3813,5.3813,5.3813,5.3813,5.3813,5.3813,5.3813,5.3793,5.3734,5.3636,5.3499,5.338,5.3256,5.3078,5.1683,5.0762,5.0437,4.8846,4.7687,4.741,4.6985,4.6661,4.6453,4.613,4.5829,4.5727,4.5615,4.5502,4.5423,4.5414,4.5414,4.5414,4.5414,4.5414,4.5414,4.5414,4.5414,4.5414,4.5414,4.5914,4.6845,4.7982,4.9051,4.9821,4.9976,5.0011,5.0011,5.0011,5.0011,5.0011,5.0011,5.0011,5.0011,5.0011,5.0011,5.0011,5.0011,5.0011,5.0011,4.9964,4.9801,4.9607,4.9547,4.9367,4.9124,4.9018,4.9018,4.9018,4.9018,4.9018,4.9018,4.9018,4.9018,4.9018,4.9018,4.9018,4.8324,4.8324,4.8324,4.8324,4.8324,4.8324,4.8324,4.8324,4.8324,4.8324,4.8306,4.8306,4.8324,4.8324,4.8325,4.8343,4.8363,4.8513,4.8605,4.8624,4.8605,4.8678,4.8787,4.8804,4.8857,4.889,4.889,4.889,4.889,4.889,4.889,4.889,4.9057,4.9893,5.1342,5.1528,5.2289,5.3385,5.3738,5.3794,5.3813,5.3813,5.3813,5.3813,5.3813,5.3813,5.3793,5.3716,5.3636,5.3499,5.3359,5.3274,5.3023,5.1756,5.0778,5.0362,4.8862,4.7793,4.728,4.6829,4.6453,4.6186,4.5829,4.5615,4.5589,4.5485,4.5423,4.5397,4.5414,4.5414,4.5414,4.5414,4.5414,4.5414,4.5414,4.5414,4.5414,4.5466,4.6017,4.7431,4.8448,4.9137,4.9769,5.0011,5.0011,5.0011,5.0011,5.0011,5.0011,5.0011,5.0011,5.0011,5.0011,5.0011,5.0011,5.0011,5.0011,4.9964,4.9935,4.983,4.9607,4.9458,4.9307,4.9094,4.9001,4.9018,4.9018,4.9018,4.9018,4.9018,4.9018,4.9018,4.9018,4.9018,4.9018,4.8324,4.8324,4.8324,4.8324,4.8324,4.8324,4.8324,4.8324,4.8324,4.8324,4.8324,4.8324,4.8324,4.8324,4.8324,4.8324,4.8324,4.8382,4.8457,4.8532,4.8569,4.8605,4.866,4.875,4.8821,4.8891,4.889,4.889,4.889,4.889,4.889,4.8983,4.9447,4.9949,5.0563,5.1621,5.2568,5.294,5.3534,5.3813,5.3813,5.3813,5.3813,5.3813,5.3813,5.3774,5.3734,5.3617,5.3499,5.338,5.3274,5.3227,5.3023,5.2215,5.1247,5.0378,4.9283,4.7973,4.6947,4.6542,4.6161,4.5829,4.5589,4.5476,4.5476,4.5423,4.5414,4.5414,4.5414,4.5414,4.5414,4.5414,4.5414,4.5414,4.5414,4.5432,4.5587,4.6345,4.7345,4.8293,4.912,4.97,4.9924,5.0011,5.0011,5.0011,5.0011,5.0011,5.0011,5.0011,5.0011,5.0011,5.0011,5.0011,5.0011,4.9935,4.9889,4.9889,4.986,4.9772,4.9547,4.9398,4.9216,4.9094,4.9032,4.9018,4.9018,4.9018,4.9018,4.9018,4.9018,4.9018,4.9018,4.9018,4.9018,4.8324,4.8324,4.8324,4.8324,4.8324,4.8324,4.8324,4.8324,4.8324,4.8324,4.8324,4.8324,4.8324,4.8324,4.8324,4.8324,4.8324,4.8324,4.8325,4.842,4.8458,4.8513,4.8569,4.8678,4.875,4.8785,4.8785,4.8803,4.8856,4.8821,4.8803,4.8968,4.9322,4.9712,5.0064,5.1028,5.1733,5.2122,5.2902,5.3367,5.3423,5.3645,5.3813,5.3813,5.3813,5.3736,5.3656,5.3558,5.344,5.3318,5.3251,5.3185,5.313,5.2435,5.1486,5.0432,4.9415,4.8275,4.6949,4.6429,4.6038,4.5718,4.5502,4.5414,4.5414,4.5414,4.5414,4.5414,4.5414,4.5414,4.5414,4.5414,4.5414,4.5414,4.5414,4.5535,4.5931,4.7172,4.8137,4.881,4.9493,4.9907,5.0011,5.0011,5.0011,5.0011,5.0011,5.0011,5.0011,5.0011,5.0011,5.0011,5.0011,5.0011,5.0011,4.9935,4.9813,4.9784,4.9755,4.9607,4.9428,4.9307,4.9168,4.9094,4.9018,4.9018,4.9018,4.9018,4.9018,4.9018,4.9018,4.9018,4.9018,4.9018,4.9018,4.8324,4.8324,4.8324,4.8324,4.8324,4.8324,4.8324,4.8324,4.8324,4.8324,4.8324,4.8324,4.8324,4.8324,4.8324,4.8324,4.8324,4.8324,4.8306,4.8324,4.8343,4.8401,4.8513,4.8587,4.8624,4.8623,4.8623,4.8678,4.8768,4.8678,4.8641,4.8769,4.877,4.9012,4.9677,4.9954,5.0509,5.1195,5.2048,5.2512,5.2661,5.3274,5.3719,5.3737,5.3756,5.3678,5.3519,5.3459,5.34,5.3297,5.323,5.3185,5.3057,5.2472,5.1632,5.0596,4.9531,4.8397,4.7265,4.6506,4.6062,4.577,4.5528,4.5414,4.5414,4.5414,4.5414,4.5414,4.5414,4.5414,4.5414,4.5414,4.5432,4.5483,4.5604,4.5914,4.669,4.7965,4.8672,4.8999,4.9516,5.0011,5.0011,5.0011,5.0011,5.0011,5.0011,5.0011,5.0011,5.0011,5.0011,5.0011,5.0011,4.9935,4.9935,4.986,4.9725,4.956,4.953,4.9458,4.9307,4.9229,4.9155,4.9063,4.9018,4.9018,4.9018,4.9018,4.9018,4.9018,4.9018,4.9018,4.9018,4.9018,4.9018,4.8324,4.8324,4.8324,4.8324,4.8324,4.8324,4.8324,4.8324,4.8324,4.8324,4.8324,4.8324,4.8324,4.8324,4.8324,4.8324,4.8324,4.8324,4.8324,4.8324,4.8324,4.8382,4.8476,4.8513,4.855,4.8569,4.8587,4.8605,4.8642,4.8624,4.8605,4.8642,4.8605,4.8698,4.8993,4.9566,4.9991,5.0343,5.1102,5.1843,5.2305,5.2621,5.3065,5.3542,5.358,5.3501,5.3359,5.3314,5.3251,5.323,5.3188,5.3185,5.3167,5.2865,5.2184,5.11,5.0136,4.8982,4.7666,4.6685,4.6065,4.5693,4.5502,4.5414,4.5414,4.5414,4.5414,4.5414,4.5414,4.5414,4.5414,4.5432,4.5638,4.6155,4.6328,4.6793,4.7862,4.8517,4.8999,4.9579,4.9873,4.9976,5.0011,5.0011,5.0011,5.0011,5.0011,5.0011,5.0011,5.0011,5.0011,5.0011,4.9964,4.9889,4.983,4.9755,4.9619,4.9381,4.932,4.929,4.9199,4.9107,4.9063,4.9001,4.9018,4.9018,4.9018,4.9018,4.9018,4.9018,4.9018,4.9018,4.9018,4.9018,4.9018,4.8324,4.8324,4.8324,4.8324,4.8324,4.8324,4.8324,4.8324,4.8324,4.8324,4.8324,4.8324,4.8324,4.8324,4.8324,4.8324,4.8324,4.8324,4.8324,4.8324,4.8324,4.8343,4.8419,4.8401,4.8438,4.8458,4.8495,4.8513,4.8532,4.8513,4.8513,4.855,4.8495,4.8476,4.8513,4.8974,4.9344,4.9455,5.0176,5.0897,5.1265,5.2025,5.2542,5.3039,5.3278,5.344,5.3318,5.323,5.3185,5.3185,5.3185,5.3185,5.3185,5.3063,5.2485,5.1411,5.0683,4.959,4.805,4.7047,4.6355,4.5805,4.5511,4.5423,4.5414,4.5414,4.5414,4.5414,4.5414,4.5414,4.5466,4.5673,4.6397,4.731,4.7545,4.7889,4.8741,4.9085,4.9493,4.9873,5.0011,5.0011,5.0011,5.0011,5.0011,5.0011,5.0011,5.0011,5.0011,5.0011,5.0011,5.0011,4.9935,4.9813,4.9696,4.9607,4.95,4.926,4.9168,4.9155,4.9124,4.9063,4.9032,4.9018,4.9018,4.9018,4.9018,4.9018,4.9018,4.9018,4.9018,4.9018,4.9018,4.9018,4.9018,4.8324,4.8324,4.8324,4.8324,4.8324,4.8324,4.8324,4.8324,4.8324,4.8324,4.8324,4.8324,4.8324,4.8324,4.8324,4.8324,4.8324,4.8324,4.8324,4.8324,4.8324,4.8324,4.8324,4.8343,4.8343,4.8325,4.8324,4.8382,4.842,4.8363,4.8382,4.842,4.8382,4.8306,4.8363,4.8493,4.8512,4.8715,4.9325,4.9861,5.0303,5.13,5.2075,5.2443,5.3125,5.3361,5.3295,5.323,5.3185,5.3185,5.3185,5.3185,5.3185,5.306,5.2517,5.1651,5.1002,4.9937,4.8477,4.7606,4.6802,4.6091,4.5632,4.5414,4.5414,4.5414,4.5414,4.5414,4.5414,4.5483,4.5759,4.632,4.7355,4.8327,4.8689,4.8896,4.9051,4.9551,5.0011,5.0011,5.0011,5.0011,5.0011,5.0011,5.0011,5.0011,5.0011,5.0011,5.0011,5.0011,5.0011,5.0011,4.9889,4.9737,4.959,4.9458,4.932,4.9168,4.9094,4.9063,4.9063,4.9032,4.9001,4.9018,4.9018,4.9018,4.9018,4.9018,4.9018,4.9018,4.9018,4.9018,4.9018,4.9018,4.9018,4.8324,4.8324,4.8324,4.8324,4.8324,4.8324,4.8324,4.8324,4.8324,4.8324,4.8324,4.8324,4.8324,4.8324,4.8324,4.8324,4.8324,4.8324,4.8324,4.8324,4.8324,4.8324,4.8324,4.8324,4.8324,4.8324,4.8324,4.8324,4.8343,4.8343,4.8306,4.8343,4.8343,4.8324,4.8324,4.8343,4.8343,4.8381,4.8678,4.9139,4.9689,5.0593,5.1495,5.2061,5.2849,5.3214,5.3209,5.3206,5.3185,5.3185,5.3185,5.3185,5.3124,5.2872,5.2526,5.2022,5.1048,5.0179,4.9356,4.804,4.6952,4.6638,4.5986,4.5414,4.5414,4.55,4.5466,4.5414,4.5414,4.5811,4.6414,4.7569,4.831,4.8844,4.9344,4.9683,4.9769,4.9873,4.9993,5.0011,5.0011,5.0011,5.0011,5.0011,5.0011,5.0011,5.0011,5.0011,5.0011,5.0011,5.0011,4.9993,4.9889,4.9755,4.956,4.9381,4.9229,4.9138,4.9063,4.9018,4.9018,4.9018,4.9018,4.9018,4.9018,4.9018,4.9018,4.9018,4.9018,4.9018,4.9018,4.9018,4.9018,4.9018,4.9018,4.8324,4.8324,4.8324,4.8324,4.8324,4.8324,4.8324,4.8324,4.8324,4.8324,4.8324,4.8324,4.8324,4.8324,4.8324,4.8324,4.8324,4.8324,4.8324,4.8324,4.8324,4.8324,4.8324,4.8324,4.8324,4.8324,4.8324,4.8324,4.8324,4.8324,4.8324,4.8324,4.8324,4.8324,4.8324,4.8324,4.8324,4.8306,4.8363,4.8639,4.906,4.9852,5.0917,5.1924,5.2747,5.3185,5.3185,5.3185,5.3185,5.3185,5.3185,5.3185,5.3143,5.2828,5.2545,5.2229,5.1397,5.0464,4.9661,4.8767,4.7827,4.7321,4.6754,4.6579,4.6483,4.6466,4.6466,4.6466,4.6569,4.681,4.7551,4.8137,4.8844,4.9344,4.9706,4.9993,5.0011,5.0011,5.0011,5.0011,5.0011,5.0011,5.0011,5.0011,5.0011,5.0011,5.0011,5.0011,5.0011,5.0011,5.0011,4.9964,4.9889,4.9755,4.9547,4.935,4.9138,4.9094,4.9032,4.9018,4.9018,4.9018,4.9018,4.9018,4.9018,4.9018,4.9018,4.9018,4.9018,4.9018,4.9018,4.9018,4.9018,4.9018,4.9018,4.8324,4.8324,4.8324,4.8324,4.8324,4.8324,4.8324,4.8324,4.8324,4.8324,4.8324,4.8324,4.8324,4.8324,4.8324,4.8324,4.8324,4.8324,4.8324,4.8324,4.8324,4.8324,4.8324,4.8324,4.8324,4.8324,4.8324,4.8324,4.8324,4.8324,4.8324,4.8324,4.8324,4.8324,4.8324,4.8324,4.8324,4.8324,4.8324,4.8343,4.8526,4.9262,5.0455,5.1848,5.2766,5.3167,5.3185,5.3185,5.3185,5.3185,5.3185,5.3164,5.306,5.2806,5.2499,5.2356,5.1497,5.0761,5.0101,4.9348,4.8619,4.8028,4.7738,4.7648,4.7614,4.7482,4.7476,4.7586,4.7638,4.7993,4.8689,4.8999,4.9327,4.9786,4.9976,5.0011,5.0011,5.0011,5.0011,5.0011,5.0011,5.0011,5.0011,5.0011,5.0011,5.0011,5.0011,5.0011,5.0011,5.0011,5.0011,4.9935,4.986,4.9637,4.9411,4.9277,4.9094,4.9063,4.9018,4.9018,4.9018,4.9018,4.9018,4.9018,4.9018,4.9018,4.9018,4.9018,4.9018,4.9018,4.9018,4.9018,4.9018,4.9018,4.9018,4.8324,4.8324,4.8324,4.8324,4.8324,4.8324,4.8324,4.8324,4.8324,4.8324,4.8324,4.8324,4.8324,4.8324,4.8324,4.8324,4.8324,4.8324,4.8324,4.8324,4.8324,4.8324,4.8324,4.8324,4.8324,4.8324,4.8324,4.8324,4.8324,4.8324,4.8324,4.8324,4.8324,4.8324,4.8324,4.8324,4.8324,4.8324,4.8324,4.8324,4.8489,4.915,5.0271,5.1775,5.2637,5.3057,5.3185,5.3185,5.3185,5.3185,5.3085,5.2959,5.2828,5.2586,5.2333,5.2024,5.1365,5.0716,5.0352,4.9486,4.8912,4.8528,4.8217,4.7827,4.782,4.782,4.801,4.8034,4.8344,4.8706,4.8792,4.9355,4.9723,4.9993,5.0011,5.0011,5.0011,5.0011,5.0011,5.0011,5.0011,5.0011,5.0011,5.0011,5.0011,5.0011,5.0011,5.0011,5.0011,5.0011,5.0011,4.9935,4.9813,4.956,4.9273,4.9155,4.9032,4.9032,4.9018,4.9018,4.9018,4.9018,4.9018,4.9018,4.9018,4.9018,4.9018,4.9018,4.9018,4.9018,4.9018,4.9018,4.9018,4.9018,4.9018,4.8324,4.8324,4.8324,4.8324,4.8324,4.8324,4.8324,4.8324,4.8324,4.8324,4.8324,4.8324,4.8324,4.8324,4.8324,4.8324,4.8324,4.8324,4.8324,4.8324,4.8324,4.8324,4.8324,4.8324,4.8324,4.8324,4.8324,4.8324,4.8324,4.8324,4.8324,4.8324,4.8324,4.8324,4.8324,4.8324,4.8324,4.8324,4.8324,4.8324,4.8379,4.9114,5.0253,5.1224,5.216,5.2747,5.3148,5.3185,5.3164,5.3082,5.2959,5.2806,5.2604,5.2351,5.2114,5.1871,5.1228,5.0721,5.0557,4.9819,4.9459,4.9407,4.9028,4.8924,4.8907,4.8959,4.8821,4.893,4.9079,4.9441,4.9476,4.9804,4.9959,5.0011,5.0011,5.0011,5.0011,5.0011,5.0011,5.0011,5.0011,5.0011,5.0011,5.0011,5.0011,5.0011,5.0011,5.0011,5.0011,4.9964,4.9935,4.9772,4.9619,4.9441,4.9199,4.9077,4.9001,4.9018,4.9018,4.9018,4.9018,4.9018,4.9018,4.9018,4.9018,4.9018,4.9018,4.9018,4.9018,4.9018,4.9018,4.9018,4.9018,4.9018,4.9018,4.8324,4.8324,4.8324,4.8324,4.8324,4.8324,4.8324,4.8324,4.8324,4.8324,4.8324,4.8324,4.8324,4.8324,4.8324,4.8324,4.8324,4.8324,4.8324,4.8324,4.8324,4.8324,4.8324,4.8324,4.8324,4.8324,4.8324,4.8324,4.8324,4.8324,4.8324,4.8324,4.8324,4.8324,4.8324,4.8324,4.8324,4.8324,4.8324,4.8324,4.8508,4.915,4.9996,5.0784,5.1573,5.2417,5.3115,5.3185,5.3124,5.2999,5.285,5.2649,5.241,5.2036,5.1779,5.1604,5.107,5.0749,5.0464,5.02,4.9873,4.9855,4.9959,4.9959,4.9924,4.9752,4.9873,5.0011,4.9976,4.9924,4.9873,4.9993,5.0011,5.0011,5.0011,5.0011,5.0011,5.0011,5.0011,5.0011,5.0011,5.0011,5.0011,5.0011,5.0011,5.0011,5.0011,5.0011,4.9964,4.9906,4.983,4.959,4.9411,4.929,4.9138,4.9046,4.9001,4.9018,4.9018,4.9018,4.9018,4.9018,4.9018,4.9018,4.9018,4.9018,4.9018,4.9018,4.9018,4.9018,4.9018,4.9018,4.9018,4.9018,4.9018,4.8324,4.8324,4.8324,4.8324,4.8324,4.8324,4.8324,4.8324,4.8324,4.8324,4.8324,4.8324,4.8324,4.8324,4.8324,4.8324,4.8324,4.8324,4.8324,4.8324,4.8324,4.8324,4.8324,4.8324,4.8324,4.8324,4.8324,4.8324,4.8324,4.8324,4.8324,4.8324,4.8324,4.8324,4.8324,4.8324,4.8324,4.8324,4.8324,4.8324,4.8434,4.9095,4.9884,5.0765,5.1479,5.2284,5.2959,5.3103,5.3042,5.2934,5.2721,5.2449,5.2138,5.1747,5.1323,5.1017,5.0721,5.0519,5.0302,5.0109,5.0011,5.0011,5.0011,5.0011,5.0011,5.0011,5.0011,5.0011,5.0011,5.0011,5.0011,5.0011,5.0011,5.0011,5.0011,5.0011,5.0011,5.0011,5.0011,5.0011,5.0011,5.0011,5.0011,5.0011,5.0011,5.0011,4.9982,4.9964,4.9906,4.9801,4.9666,4.9441,4.929,4.9155,4.9124,4.9032,4.9001,4.9001,4.9018,4.9018,4.9018,4.9018,4.9018,4.9018,4.9018,4.9018,4.9018,4.9018,4.9018,4.9018,4.9018,4.9018,4.9018,4.9018,4.9018,4.8324,4.8324,4.8324,4.8324,4.8324,4.8324,4.8324,4.8324,4.8324,4.8324,4.8324,4.8324,4.8324,4.8324,4.8324,4.8324,4.8324,4.8324,4.8324,4.8324,4.8324,4.8324,4.8324,4.8324,4.8324,4.8324,4.8324,4.8324,4.8324,4.8324,4.8324,4.8324,4.8324,4.8324,4.8324,4.8324,4.8324,4.8324,4.8324,4.8324,4.8397,4.8688,4.942,5.0591,5.0908,5.1685,5.2558,5.2783,5.2694,5.2581,5.2333,5.209,5.1747,5.1349,5.0928,5.063,5.0436,5.0313,5.0235,5.008,4.9993,5.0011,5.0011,5.0011,5.0011,5.0011,5.0011,5.0011,5.0011,5.0011,5.0011,5.0011,5.0011,5.0011,5.0011,5.0011,5.0011,5.0011,5.0011,5.0011,5.0011,5.0011,5.0011,5.0011,5.0011,5.0011,4.9935,4.9889,4.9742,4.9547,4.9411,4.929,4.9168,4.9063,4.9032,4.9001,4.9001,4.9018,4.9018,4.9018,4.9018,4.9018,4.9018,4.9018,4.9018,4.9018,4.9018,4.9018,4.9018,4.9018,4.9018,4.9018,4.9018,4.9018,4.9018,4.8324,4.8324,4.8324,4.8324,4.8324,4.8324,4.8324,4.8324,4.8324,4.8324,4.8324,4.8324,4.8324,4.8324,4.8324,4.8324,4.8324,4.8324,4.8324,4.8324,4.8324,4.8324,4.8324,4.8324,4.8324,4.8324,4.8324,4.8324,4.8324,4.8324,4.8324,4.8324,4.8324,4.8324,4.8324,4.8324,4.8324,4.8324,4.8286,4.8248,4.8247,4.8149,4.9096,4.9927,5.0496,5.0929,5.225,5.2477,5.2402,5.2251,5.2066,5.1822,5.1401,5.1017,5.0684,5.0425,5.0246,5.0178,5.012,5.0034,4.9993,5.0011,5.0011,5.0011,5.0011,5.0011,5.0011,5.0011,5.0011,5.0011,5.0011,5.0011,5.0011,5.0011,5.0011,5.0011,5.0011,5.0011,5.0011,5.0011,5.0011,5.0011,5.0011,5.0011,5.0011,5.0011,4.9935,4.9813,4.9607,4.935,4.926,4.9138,4.9094,4.9032,4.9001,4.9018,4.9018,4.9018,4.9018,4.9018,4.9018,4.9018,4.9018,4.9018,4.9018,4.9018,4.9018,4.9018,4.9018,4.9018,4.9018,4.9018,4.9018,4.9018,4.9018,4.8324,4.8324,4.8324,4.8324,4.8324,4.8324,4.8324,4.8324,4.8324,4.8324,4.8324,4.8324,4.8324,4.8324,4.8324,4.8324,4.8324,4.8324,4.8324,4.8324,4.8324,4.8324,4.8324,4.8324,4.8324,4.8324,4.8324,4.8324,4.8324,4.8324,4.8324,4.8324,4.8324,4.8324,4.8324,4.8324,4.8305,4.8286,4.8228,4.8187,4.8128,4.8172,4.8722,4.9843,5.0286,5.0818,5.2299,5.2268,5.2126,5.1987,5.1797,5.1528,5.1044,5.0749,5.0453,5.0246,5.012,5.0051,5.0022,5.0022,4.9993,5.0011,5.0011,5.0011,5.0011,5.0011,5.0011,5.0011,5.0011,5.0011,5.0011,5.0011,5.0011,5.0011,5.0011,5.0011,5.0011,5.0011,5.0011,5.0011,5.0011,5.0011,4.9935,4.9935,4.9889,4.9889,4.9713,4.956,4.9441,4.9229,4.9138,4.9046,4.9032,4.9001,4.9001,4.9018,4.9018,4.9018,4.9018,4.9018,4.9018,4.9018,4.9018,4.9018,4.9018,4.9018,4.9018,4.9018,4.9018,4.9018,4.9018,4.9018,4.9018,4.9018,4.9018,4.8324,4.8324,4.8324,4.8324,4.8324,4.8324,4.8324,4.8324,4.8324,4.8324,4.8324,4.8324,4.8324,4.8324,4.8324,4.8324,4.8324,4.8324,4.8324,4.8324,4.8324,4.8324,4.8324,4.8324,4.8324,4.8324,4.8324,4.8324,4.8324,4.8324,4.8324,4.8324,4.8305,4.8324,4.8324,4.8305,4.8286,4.8208,4.813,4.8032,4.8002,4.8246,4.876,4.9753,5.0074,5.0604,5.144,5.1457,5.1391,5.1305,5.1201,5.0964,5.0721,5.0464,5.0285,5.0103,5.0022,5.0011,5.0011,5.0011,5.0011,5.0011,5.0011,5.0011,5.0011,5.0011,5.0011,5.0011,5.0011,5.0011,5.0011,5.0011,5.0011,5.0011,5.0011,5.0011,5.0011,5.0011,4.9964,4.9935,4.9964,5.0011,4.9935,4.9889,4.9813,4.9784,4.956,4.935,4.9229,4.9138,4.9063,4.9032,4.9001,4.9018,4.9018,4.9018,4.9018,4.9018,4.9018,4.9018,4.9018,4.9018,4.9018,4.9018,4.9018,4.9018,4.9018,4.9018,4.9018,4.9018,4.9018,4.9018,4.9018,4.9018,4.9018,4.8324,4.8324,4.8324,4.8324,4.8324,4.8324,4.8324,4.8324,4.8324,4.8324,4.8324,4.8324,4.8324,4.8324,4.8324,4.8324,4.8324,4.8324,4.8324,4.8324,4.8324,4.8324,4.8324,4.8324,4.8324,4.8324,4.8324,4.8324,4.8324,4.8324,4.8286,4.8286,4.8286,4.8286,4.8287,4.8267,4.8226,4.809,4.797,4.8011,4.8025,4.8187,4.8875,4.9627,4.9955,5.0362,5.0893,5.1044,5.0893,5.083,5.0694,5.0547,5.0397,5.0246,5.0149,5.0051,5.0011,5.0011,5.0011,5.0011,5.0011,5.0011,5.0011,5.0011,5.0011,5.0011,5.0011,5.0011,5.0011,5.0011,5.0011,5.0011,5.0011,5.0011,5.0011,5.0011,5.0011,4.9964,4.9935,4.9889,4.9889,4.986,4.9742,4.9637,4.9577,4.953,4.9411,4.926,4.9155,4.9063,4.9032,4.9001,4.9001,4.9018,4.9018,4.9018,4.9018,4.9018,4.9018,4.9018,4.9018,4.9018,4.9018,4.9018,4.9018,4.9018,4.9018,4.9018,4.9018,4.9018,4.9018,4.9018,4.9018,4.9018,4.9018,4.8324,4.8324,4.8324,4.8324,4.8324,4.8324,4.8324,4.8324,4.8324,4.8324,4.8324,4.8324,4.8324,4.8324,4.8324,4.8324,4.8287,4.8287,4.8287,4.8305,4.8248,4.8267,4.8305,4.8287,4.8286,4.8305,4.8306,4.8287,4.8305,4.8286,4.8247,4.8242,4.8258,4.8352,4.8304,4.8226,4.8088,4.7886,4.7904,4.8168,4.8335,4.8312,4.9028,4.9574,4.9899,5.0267,5.0608,5.0684,5.0602,5.0519,5.0537,5.0397,5.0217,5.0189,5.012,5.0011,5.0011,5.0011,5.0011,5.0011,5.0011,5.0011,5.0011,5.0011,5.0011,5.0011,5.0011,5.0011,5.0011,5.0011,5.0011,5.0011,5.0011,5.0011,5.0011,5.0011,5.0011,4.9935,4.986,4.9784,4.9708,4.9649,4.95,4.9398,4.929,4.9229,4.9229,4.9138,4.9063,4.9032,4.9001,4.9018,4.9018,4.9018,4.9018,4.9018,4.9018,4.9018,4.9018,4.9018,4.9018,4.9018,4.9018,4.9018,4.9018,4.9018,4.9018,4.9018,4.9018,4.9018,4.9018,4.9018,4.9018,4.9018,4.9018,4.8324,4.8324,4.8324,4.8324,4.8324,4.8324,4.8324,4.8324,4.8324,4.8324,4.8324,4.8324,4.8324,4.8324,4.8324,4.8305,4.8287,4.8228,4.8228,4.8228,4.8151,4.8151,4.8208,4.8247,4.8247,4.8305,4.8287,4.8248,4.8246,4.8208,4.8092,4.8046,4.832,4.8652,4.8712,4.8704,4.8665,4.8937,4.8938,4.8916,4.8816,4.8947,4.923,4.9714,4.9901,5.0147,5.0391,5.0369,5.0302,5.0263,5.0263,5.0178,5.0092,5.008,5.0051,5.0011,5.0011,5.0011,5.0011,5.0011,5.0011,5.0011,5.0011,5.0011,5.0011,5.0011,5.0011,5.0011,5.0011,5.0011,5.0011,5.0011,5.0011,5.0011,5.0011,5.0011,4.9964,4.986,4.9755,4.9708,4.9649,4.9471,4.932,4.9277,4.9185,4.9124,4.9124,4.9094,4.9032,4.9001,4.9018,4.9018,4.9018,4.9018,4.9018,4.9018,4.9018,4.9018,4.9018,4.9018,4.9018,4.9018,4.9018,4.9018,4.9018,4.9018,4.9018,4.9018,4.9018,4.9018,4.9018,4.9018,4.9018,4.9018,4.9018,4.8324,4.8324,4.8324,4.8324,4.8324,4.8324,4.8324,4.8324,4.8324,4.8324,4.8324,4.8324,4.8324,4.8324,4.8324,4.8286,4.8267,4.8208,4.813,4.813,4.8032,4.809,4.8149,4.8187,4.8247,4.8286,4.8267,4.8208,4.813,4.809,4.8091,4.8167,4.8329,4.8771,4.9055,4.9289,4.9086,4.9215,4.9091,4.9117,4.9139,4.9293,4.9526,4.9774,4.9944,5.0132,5.0092,5.0051,5.0011,5.0011,5.0011,5.0011,5.0011,5.0011,5.0011,5.0011,5.0011,5.0011,5.0011,5.0011,5.0011,5.0011,5.0011,5.0011,5.0011,5.0011,5.0011,5.0011,5.0011,5.0011,5.0011,5.0011,5.0011,5.0011,4.9982,4.9982,4.986,4.9755,4.9619,4.956,4.9471,4.932,4.9168,4.9155,4.9094,4.9063,4.9001,4.9018,4.9018,4.9018,4.9018,4.9018,4.9018,4.9018,4.9018,4.9018,4.9018,4.9018,4.9018,4.9018,4.9018,4.9018,4.9018,4.9018,4.9018,4.9018,4.9018,4.9018,4.9018,4.9018,4.9018,4.9018,4.9018,4.9018,4.9018,4.8324,4.8324,4.8324,4.8324,4.8324,4.8324,4.8324,4.8324,4.8324,4.8324,4.8324,4.8324,4.8324,4.8324,4.8305,4.8267,4.8207,4.8168,4.8108,4.803,4.7951,4.805,4.811,4.8168,4.8208,4.8247,4.8228,4.813,4.7992,4.7708,4.7836,4.8272,4.817,4.8862,4.9497,4.9791,4.9541,4.9497,4.9425,4.9467,4.9537,4.9425,4.9716,4.9905,5.0022,5.0051,5.0022,4.9993,5.0011,5.0011,5.0011,5.0011,5.0011,5.0011,5.0011,5.0011,5.0011,5.0011,5.0011,5.0011,5.0011,5.0011,5.0011,5.0011,5.0011,5.0011,5.0011,5.0011,5.0011,5.0011,5.0011,5.0011,5.0011,4.9982,4.9982,4.9877,4.9755,4.9619,4.9471,4.9381,4.926,4.9155,4.9094,4.9032,4.9063,4.9032,4.9018,4.9018,4.9018,4.9018,4.9018,4.9018,4.9018,4.9018,4.9018,4.9018,4.9018,4.9018,4.9018,4.9018,4.9018,4.9018,4.9018,4.9018,4.9018,4.9018,4.9018,4.9018,4.9018,4.9018,4.9018,4.9018,4.9018,4.9018,4.9018,4.8324,4.8324,4.8324,4.8324,4.8324,4.8324,4.8324,4.8324,4.8324,4.8324,4.8324,4.8324,4.8305,4.8305,4.8247,4.8226,4.8166,4.8085,4.8004,4.7925,4.7866,4.7947,4.801,4.807,4.8151,4.8246,4.8225,4.8083,4.7681,4.7341,4.7665,4.8402,4.8214,4.9082,4.982,5.0356,5.0136,5.0022,4.9898,4.9903,4.9875,4.984,4.9987,4.9994,5.0022,5.0011,5.0011,5.0011,5.0011,5.0011,5.0011,5.0011,5.0011,5.0011,5.0011,5.0011,5.0011,5.0011,5.0011,5.0011,5.0011,5.0011,5.0011,5.0011,5.0011,4.9964,4.9964,5.0011,5.0011,5.0011,4.9964,4.9964,4.9964,4.9935,4.9877,4.9725,4.9619,4.9471,4.935,4.9229,4.9155,4.9094,4.9001,4.9001,4.9032,4.9001,4.9018,4.9018,4.9018,4.9018,4.9018,4.9018,4.9018,4.9018,4.9018,4.9018,4.9018,4.9018,4.9018,4.9018,4.9018,4.9018,4.9018,4.9018,4.9018,4.9018,4.9018,4.9018,4.9018,4.9018,4.9018,4.9018,4.9018,4.9018,4.9018,4.8324,4.8324,4.8324,4.8324,4.8324,4.8324,4.8324,4.8324,4.8324,4.8324,4.8324,4.8267,4.8267,4.8247,4.8149,4.8108,4.8067,4.7984,4.7881,4.7801,4.7738,4.7842,4.7907,4.797,4.803,4.8183,4.8285,4.8187,4.7529,4.6908,4.6987,4.7726,4.8015,4.8868,4.9562,5.0032,5.031,5.0293,5.03,5.0302,5.0235,5.012,5.0051,5.0022,5.0011,5.0011,5.0011,5.0011,5.0011,5.0011,5.0011,5.0011,5.0011,5.0011,5.0011,5.0011,5.0011,5.0011,5.0011,5.0011,5.0011,4.9964,4.9964,4.9935,4.9935,4.9935,4.9964,5.0011,5.0011,4.9964,4.9964,4.9918,4.9889,4.9889,4.9725,4.959,4.9441,4.932,4.9246,4.9155,4.9094,4.9032,4.9018,4.9018,4.9018,4.9018,4.9018,4.9018,4.9018,4.9018,4.9018,4.9018,4.9018,4.9018,4.9018,4.9018,4.9018,4.9018,4.9018,4.9018,4.9018,4.9018,4.9018,4.9018,4.9018,4.9018,4.9018,4.9018,4.9018,4.9018,4.9018,4.9018,4.9018,4.9018,4.9018,4.8268,4.8324,4.8268,4.8286,4.8287,4.8267,4.8267,4.8267,4.8267,4.8287,4.8267,4.8226,4.8187,4.8148,4.8068,4.7986,4.7945,4.7881,4.7819,4.7699,4.7717,4.778,4.7881,4.792,4.8093,4.8273,4.8345,4.8215,4.7285,4.6546,4.6212,4.668,4.7358,4.8193,4.8981,4.9723,5.0046,5.0138,5.0178,5.0149,5.0051,4.9993,5.0011,4.9993,5.0011,5.0011,5.0011,5.0011,5.0011,5.0011,5.0011,5.0011,5.0011,5.0011,5.0011,5.0011,5.0011,5.0011,5.0011,5.0011,4.9982,4.9964,4.9964,4.986,4.9801,4.9906,4.9964,4.9935,4.9935,4.9918,4.9889,4.9813,4.9784,4.9696,4.956,4.9441,4.932,4.9199,4.9124,4.9063,4.9032,4.9018,4.9018,4.9018,4.9018,4.9018,4.9018,4.9018,4.9018,4.9018,4.9018,4.9018,4.9018,4.9018,4.9018,4.9018,4.9018,4.9018,4.9018,4.9018,4.9018,4.9018,4.9018,4.9018,4.9018,4.9018,4.9018,4.9018,4.9018,4.9018,4.9018,4.9018,4.9018,4.9018,4.9018,4.8247,4.8305,4.8247,4.8151,4.8092,4.8072,4.8072,4.8072,4.8072,4.8111,4.8189,4.811,4.805,4.803,4.7927,4.7881,4.7861,4.7738,4.7738,4.7696,4.7657,4.7738,4.7897,4.7988,4.8211,4.8584,4.8605,4.8136,4.7199,4.6324,4.5804,4.6258,4.6936,4.7763,4.8518,4.9337,4.9842,4.9964,5.004,5.0051,4.9993,5.0011,5.0011,5.0011,5.0011,5.0011,5.0011,5.0011,5.0011,5.0011,5.0011,5.0011,5.0011,5.0011,5.0011,5.0011,4.9964,4.9964,4.9964,4.9935,4.9906,4.983,4.9755,4.9666,4.9713,4.9906,4.9935,4.9906,4.983,4.9813,4.9784,4.9708,4.9619,4.95,4.9381,4.929,4.9199,4.9107,4.9032,4.9032,4.9001,4.9018,4.9018,4.9018,4.9018,4.9018,4.9018,4.9018,4.9018,4.9018,4.9018,4.9018,4.9018,4.9018,4.9018,4.9018,4.9018,4.9018,4.9018,4.9018,4.9018,4.9018,4.9018,4.9018,4.9018,4.9018,4.9018,4.9018,4.9018,4.9018,4.9018,4.9018,4.9018,4.9018,4.9018,4.7801,4.8152,4.813,4.807,4.8012,4.7992,4.7992,4.7992,4.7891,4.7927,4.7988,4.7947,4.7927,4.7847,4.7762,4.7654,4.7611,4.7551,4.7486,4.7486,4.7626,4.7636,4.779,4.814,4.8445,4.8779,4.8375,4.7831,4.7152,4.603,4.5486,4.5697,4.6425,4.738,4.8094,4.8951,4.972,4.9842,4.9935,4.9964,4.9964,5.0011,5.0011,5.0011,5.0011,5.0011,5.0011,5.0011,5.0011,5.0011,5.0011,5.0011,5.0011,5.0011,5.0011,4.9964,4.9918,4.986,4.986,4.983,4.9742,4.9649,4.959,4.9547,4.9458,4.9594,4.9713,4.9683,4.9666,4.9666,4.9607,4.953,4.9441,4.932,4.9229,4.9107,4.9077,4.9063,4.9032,4.9001,4.9018,4.9018,4.9018,4.9018,4.9018,4.9018,4.9018,4.9018,4.9018,4.9018,4.9018,4.9018,4.9018,4.9018,4.9018,4.9018,4.9018,4.9018,4.9018,4.9018,4.9018,4.9018,4.9018,4.9018,4.9018,4.9018,4.9018,4.9018,4.9018,4.9018,4.9018,4.9018,4.9018,4.9018,4.9018,4.7279,4.7935,4.7972,4.7972,4.7951,4.7913,4.7931,4.7909,4.7702,4.7615,4.7611,4.7675,4.7696,4.7615,4.7468,4.7312,4.7201,4.7165,4.712,4.7259,4.7517,4.7749,4.8125,4.8533,4.8892,4.8854,4.8495,4.8056,4.7513,4.6234,4.5309,4.5072,4.5801,4.6889,4.7481,4.8446,4.9443,4.9686,4.9842,4.9935,4.9964,5.0011,5.0011,5.0011,5.0011,5.0011,5.0011,5.0011,5.0011,5.0011,5.0011,5.0011,4.9964,4.9935,4.9918,4.9889,4.9755,4.9725,4.9649,4.959,4.953,4.9471,4.9441,4.9381,4.9307,4.9307,4.9428,4.9458,4.9458,4.9488,4.9428,4.9367,4.926,4.9168,4.9094,4.9001,4.9001,4.9018,4.9018,4.9018,4.9018,4.9018,4.9018,4.9018,4.9018,4.9018,4.9018,4.9018,4.9018,4.9018,4.9018,4.9018,4.9018,4.9018,4.9018,4.9018,4.9018,4.9018,4.9018,4.9018,4.9018,4.9018,4.9018,4.9018,4.9018,4.9018,4.9018,4.9018,4.9018,4.9018,4.9018,4.9018,4.9018,4.9018,4.9018,4.7195,4.7922,4.7922,4.7863,4.7762,4.766,4.7597,4.7575,4.7377,4.7245,4.7138,4.7048,4.7111,4.7285,4.7025,4.6865,4.6801,4.6778,4.6824,4.6929,4.7561,4.7971,4.8479,4.9031,4.9567,4.949,4.9063,4.8385,4.7526,4.6338,4.5354,4.4778,4.541,4.6343,4.7138,4.8102,4.8907,4.935,4.9708,4.983,4.9935,4.9982,4.9982,5.0011,5.0011,5.0011,5.0011,5.0011,5.0011,5.0011,4.9964,4.9935,4.9906,4.983,4.9784,4.9725,4.9619,4.953,4.95,4.9441,4.9381,4.926,4.926,4.9246,4.9155,4.9094,4.9185,4.9216,4.9246,4.932,4.929,4.9229,4.9168,4.9094,4.9001,4.9001,4.9001,4.9018,4.9018,4.9018,4.9018,4.9018,4.9018,4.9018,4.9018,4.9018,4.9018,4.9018,4.9018,4.9018,4.9018,4.9018,4.9018,4.9018,4.9018,4.9018,4.9018,4.9018,4.9018,4.9018,4.9018,4.9018,4.9018,4.9018,4.9018,4.9018,4.9018,4.9018,4.9018,4.9018,4.9018,4.9018,4.9018,4.9018,4.9018]}]]